[[{"header":{"parameterUnit":"m.s-1","parameterCategory":1,"la1":30.6,"la2":29.2853,"lo1":-89.7004,"lo2":-87.6739,"dy":0.0162,"dx":0.0183,"nx":112,"ny":82,"refTime":"2023-07-14T12:00:00:Z","depth":0,"parameterNumber":2,"parameterNumberName":"U-component_of_WINDS"},"data":[0.0,0.0,0.0,0.0,0.0,0.0,0.0,0.0,0.0,0.0,0.0,0.0,0.0,0.0,0.0,0.0,0.0,0.0,0.0,0.0,0.0,0.0,0.0,0.0,0.0,0.0,0.0,0.0,0.0,0.0,0.0,0.0,0.0,0.0,0.0,0.0,0.0,0.0,0.0,0.0,0.0,0.0,0.0,0.0,0.0,0.0,0.0,0.0,0.0,0.0,0.0,0.0,0.0,0.0,0.0,0.0,0.0,0.0,0.0,0.0,0.0,0.0,0.0,0.0,0.0,0.0,0.0,0.0,0.0,0.0,0.0,0.0,0.0,0.0,0.0,0.0,0.0,0.0,0.0,0.0,0.0,0.0,0.0,0.0,0.0,0.0,0.0,0.0,0.0,0.0,0.0,-1.1888,-1.452,-1.6124,-1.6193,-1.5644,-1.4082,-1.1191,0.0,0.0,0.0,0.0,0.0,0.0,0.0,0.0,0.0,0.0,0.0,0.0,0.0,0.0,0.0,0.0,0.0,0.0,0.0,0.0,0.0,0.0,0.0,0.0,0.0,0.0,0.0,0.0,0.0,0.0,0.0,0.0,0.0,0.0,0.0,0.0,0.0,0.0,0.0,0.0,0.0,0.0,0.0,0.0,0.0,0.0,0.0,0.0,0.0,0.0,0.0,0.0,0.0,0.0,0.0,0.0,0.0,0.0,0.0,0.0,0.0,0.0,0.0,0.0,0.0,0.0,0.0,0.0,0.0,0.0,0.0,0.0,0.0,0.0,0.0,0.0,0.0,0.0,0.0,0.0,0.0,0.0,0.0,0.0,0.0,0.0,0.0,0.0,0.0,0.0,0.0,0.0,0.0,0.0,0.0,0.0,0.0,0.0,0.0,0.0,0.0,0.0,0.0,0.0,-1.1162,-1.4473,-1.5596,-1.6251,-1.657,-1.5557,-1.3932,-1.1645,0.0,0.0,0.0,0.0,0.0,0.0,0.0,0.0,0.0,0.0,0.0,0.0,0.0,0.0,0.0,0.0,0.0,0.0,0.0,0.0,0.0,0.0,0.0,0.0,0.0,0.0,0.0,0.0,0.0,0.0,0.0,0.0,0.0,0.0,0.0,0.0,0.0,0.0,0.0,0.0,0.0,0.0,0.0,0.0,0.0,0.0,0.0,0.0,0.0,0.0,0.0,0.0,0.0,0.0,0.0,0.0,0.0,0.0,0.0,0.0,0.0,0.0,0.0,0.0,0.0,0.0,0.0,0.0,0.0,0.0,0.0,0.0,0.0,0.0,0.0,0.0,0.0,0.0,0.0,0.0,0.0,0.0,0.0,0.0,0.0,0.0,0.0,0.0,0.0,0.0,0.0,0.0,0.0,0.0,0.0,0.0,0.0,0.0,0.0,0.0,0.0,0.0,0.0,-1.0588,-1.283,-1.5498,-1.6162,-1.6514,-1.6687,-1.5537,-1.3893,-1.1743,-1.0958,0.0,0.0,0.0,0.0,0.0,0.0,0.0,0.0,0.0,0.0,0.0,0.0,0.0,0.0,0.0,0.0,0.0,0.0,0.0,0.0,0.0,0.0,0.0,0.0,0.0,0.0,0.0,0.0,0.0,0.0,0.0,0.0,0.0,0.0,0.0,0.0,0.0,0.0,0.0,0.0,0.0,0.0,0.0,0.0,0.0,0.0,0.0,0.0,0.0,0.0,0.0,0.0,0.0,0.0,0.0,0.0,0.0,0.0,0.0,0.0,0.0,0.0,0.0,0.0,0.0,0.0,0.0,0.0,0.0,0.0,0.0,0.0,0.0,0.0,0.0,0.0,0.0,0.0,0.0,0.0,0.0,0.0,0.0,0.0,0.0,0.0,0.0,0.0,0.0,0.0,0.0,0.0,0.0,0.0,0.0,0.0,0.0,0.0,0.0,0.0,0.0,0.0,-1.2096,-1.3772,-1.5595,-1.6162,-1.6395,-1.6395,-1.5322,-1.3711,-1.1565,-1.0723,0.0,0.0,0.0,0.0,0.0,0.0,0.0,0.0,0.0,0.0,0.0,0.0,0.0,0.0,0.0,0.0,0.0,0.0,0.0,0.0,0.0,0.0,0.0,0.0,0.0,0.0,0.0,0.0,0.0,0.0,0.0,0.0,0.0,0.0,0.0,0.0,0.0,0.0,0.0,0.0,0.0,0.0,0.0,0.0,0.0,0.0,0.0,0.0,0.0,0.0,0.0,0.0,0.0,0.0,0.0,0.0,0.0,0.0,0.0,0.0,0.0,0.0,0.0,0.0,0.0,0.0,0.0,0.0,0.0,0.0,0.0,0.0,0.0,0.0,0.0,0.0,0.0,0.0,0.0,0.0,0.0,0.0,0.0,0.0,0.0,0.0,0.0,0.0,0.0,0.0,0.0,0.0,0.0,0.0,0.0,0.0,0.0,0.0,0.0,0.0,0.0,0.0,-1.1853,-1.3432,-1.4736,-1.5254,-1.5508,-1.5508,-1.466,-1.3237,-1.1084,-1.0537,0.0,0.0,0.0,0.0,0.0,0.0,0.0,0.0,0.0,0.0,0.0,0.0,0.0,0.0,0.0,0.0,0.0,0.0,0.0,0.0,0.0,0.0,0.0,0.0,0.0,0.0,0.0,0.0,0.0,0.0,0.0,0.0,0.0,0.0,0.0,0.0,0.0,0.0,0.0,0.0,0.0,0.0,0.0,0.0,0.0,0.0,0.0,0.0,0.0,0.0,0.0,0.0,0.0,0.0,0.0,0.0,0.0,0.0,0.0,0.0,0.0,0.0,0.0,0.0,0.0,0.0,0.0,0.0,0.0,0.0,0.0,0.0,0.0,0.0,0.0,0.0,0.0,0.0,0.0,0.0,0.0,0.0,0.0,0.0,0.0,0.0,0.0,0.0,0.0,0.0,0.0,0.0,0.0,0.0,0.0,0.0,0.0,0.0,0.0,0.0,0.0,0.0,-1.1883,-1.3486,0.0,-1.4932,-1.5019,-1.5019,-1.4238,-1.2905,-1.1025,0.0,0.0,0.0,0.0,0.0,0.0,0.0,0.0,0.0,0.0,0.0,0.0,0.0,0.0,0.0,0.0,0.0,0.0,0.0,0.0,0.0,0.0,0.0,0.0,0.0,0.0,0.0,0.0,0.0,0.0,0.0,0.0,0.0,0.0,0.0,0.0,0.0,0.0,0.0,0.0,0.0,0.0,0.0,0.0,0.0,0.0,0.0,0.0,0.0,0.0,0.0,0.0,0.0,0.0,0.0,0.0,0.0,0.0,0.0,0.0,0.0,0.0,0.0,0.0,0.0,0.0,0.0,0.0,0.0,0.0,0.0,0.0,0.0,0.0,0.0,0.0,0.0,0.0,0.0,0.0,0.0,0.0,0.0,0.0,0.0,0.0,0.0,0.0,0.0,0.0,0.0,0.0,0.0,0.0,0.0,0.0,0.0,0.0,0.0,0.0,0.0,0.0,-1.0177,-1.2003,-1.3526,0.0,-1.4502,-1.4531,-1.4394,-1.3848,-1.2705,-1.083,0.0,0.0,0.0,0.0,0.0,0.0,0.0,0.0,0.0,0.0,0.0,0.0,0.0,0.0,0.0,0.0,0.0,0.0,0.0,0.0,0.0,0.0,0.0,0.0,0.0,0.0,0.0,0.0,0.0,0.0,0.0,0.0,0.0,0.0,0.0,0.0,0.0,0.0,0.0,0.0,0.0,0.0,0.0,0.0,0.0,0.0,0.0,0.0,0.0,0.0,0.0,0.0,0.0,0.0,0.0,0.0,0.0,0.0,0.0,0.0,0.0,0.0,0.0,0.0,0.0,0.0,0.0,0.0,0.0,0.0,0.0,0.0,0.0,0.0,0.0,0.0,0.0,0.0,0.0,0.0,0.0,0.0,0.0,0.0,0.0,0.0,0.0,0.0,0.0,0.0,0.0,0.0,0.0,0.0,0.0,0.0,0.0,0.0,0.0,0.0,0.0,0.0,-1.0186,-1.2168,-1.3496,-1.3496,-1.3851,-1.3929,-1.3535,-1.3496,-1.2578,0.0,0.0,0.0,0.0,0.0,0.0,0.0,0.0,0.0,0.0,0.0,0.0,0.0,0.0,0.0,0.0,0.0,0.0,0.0,0.0,0.0,0.0,0.0,0.0,0.0,0.0,0.0,0.0,0.0,0.0,0.0,0.0,0.0,0.0,0.0,0.0,0.0,0.0,0.0,0.0,0.0,0.0,0.0,0.0,0.0,0.0,0.0,0.0,0.0,0.0,0.0,0.0,0.0,0.0,0.0,0.0,0.0,0.0,0.0,0.0,0.0,0.0,0.0,0.0,0.0,0.0,0.0,0.0,0.0,0.0,0.0,0.0,0.0,0.0,0.0,0.0,0.0,0.0,0.0,0.0,0.0,0.0,0.0,0.0,0.0,0.0,0.0,0.0,0.0,0.0,0.0,0.0,0.0,0.0,0.0,0.0,0.0,0.0,0.0,0.0,0.0,0.0,0.0,0.0,-1.1565,-1.3091,-1.3091,-1.3174,-1.3203,-1.3101,-1.3091,-1.2289,-1.042,0.0,0.0,0.0,0.0,0.0,0.0,0.0,0.0,0.0,0.0,0.0,0.0,0.0,0.0,0.0,0.0,0.0,0.0,0.0,0.0,0.0,0.0,0.0,0.0,0.0,0.0,0.0,0.0,0.0,0.0,0.0,0.0,0.0,0.0,0.0,0.0,0.0,0.0,0.0,0.0,0.0,0.0,0.0,0.0,0.0,0.0,0.0,0.0,0.0,0.0,0.0,0.0,0.0,0.0,0.0,0.0,0.0,0.0,0.0,0.0,0.0,0.0,0.0,0.0,0.0,0.0,0.0,0.0,0.0,0.0,0.0,0.0,0.0,0.0,0.0,0.0,0.0,0.0,0.0,0.0,0.0,0.0,0.0,0.0,0.0,0.0,0.0,0.0,0.0,0.0,0.0,0.0,0.0,0.0,0.0,0.0,0.0,0.0,0.0,0.0,0.0,0.0,-1.0051,-1.2015,-1.3311,-1.3154,-1.3135,-1.3066,-1.2925,-1.2905,-1.2308,-1.0899,0.0,0.0,0.0,0.0,0.0,0.0,0.0,0.0,0.0,0.0,0.0,0.0,0.0,0.0,0.0,0.0,0.0,0.0,0.0,0.0,0.0,0.0,0.0,0.0,0.0,0.0,0.0,0.0,0.0,0.0,0.0,0.0,0.0,0.0,0.0,0.0,0.0,0.0,0.0,0.0,0.0,0.0,0.0,0.0,0.0,0.0,0.0,0.0,0.0,0.0,0.0,0.0,0.0,0.0,0.0,0.0,0.0,0.0,0.0,0.0,0.0,0.0,0.0,0.0,0.0,0.0,0.0,0.0,0.0,0.0,0.0,0.0,0.0,0.0,0.0,0.0,0.0,0.0,0.0,0.0,0.0,0.0,0.0,0.0,0.0,0.0,0.0,0.0,0.0,0.0,0.0,0.0,0.0,0.0,0.0,0.0,0.0,0.0,0.0,0.0,0.0,0.0,-1.1378,-1.3017,-1.3958,-1.3578,-1.3564,-1.3408,-1.3027,-1.3023,-1.2631,-1.1702,0.0,0.0,0.0,0.0,0.0,0.0,0.0,0.0,0.0,0.0,0.0,0.0,0.0,0.0,0.0,0.0,0.0,0.0,0.0,0.0,0.0,0.0,0.0,0.0,0.0,0.0,0.0,0.0,0.0,0.0,0.0,0.0,0.0,0.0,0.0,0.0,0.0,0.0,0.0,0.0,0.0,0.0,0.0,0.0,0.0,0.0,0.0,0.0,0.0,0.0,0.0,0.0,0.0,0.0,0.0,0.0,0.0,0.0,0.0,0.0,-1.1363,0.0,0.0,0.0,0.0,0.0,0.0,0.0,0.0,0.0,0.0,0.0,0.0,0.0,0.0,0.0,0.0,0.0,0.0,0.0,0.0,0.0,0.0,0.0,0.0,0.0,0.0,0.0,0.0,0.0,0.0,0.0,0.0,0.0,0.0,0.0,0.0,0.0,0.0,0.0,0.0,0.0,-1.0526,-1.261,-1.4075,-1.3977,-1.3977,-1.3938,-1.3851,-1.3841,-1.3334,-1.2158,0.0,0.0,0.0,0.0,0.0,0.0,0.0,0.0,0.0,0.0,0.0,0.0,0.0,0.0,0.0,0.0,0.0,0.0,0.0,0.0,0.0,0.0,0.0,0.0,0.0,0.0,0.0,0.0,0.0,0.0,0.0,0.0,0.0,0.0,0.0,0.0,0.0,0.0,0.0,0.0,0.0,0.0,0.0,0.0,0.0,0.0,0.0,0.0,0.0,0.0,0.0,0.0,0.0,0.0,0.0,0.0,0.0,0.0,0.0,0.0,0.0,-1.1205,0.0,0.0,0.0,0.0,0.0,0.0,0.0,0.0,0.0,0.0,0.0,0.0,0.0,0.0,0.0,0.0,0.0,0.0,0.0,0.0,0.0,0.0,0.0,0.0,0.0,0.0,0.0,0.0,0.0,0.0,0.0,0.0,0.0,0.0,0.0,0.0,0.0,0.0,0.0,0.0,-1.1458,-1.3396,-1.464,-1.4473,-1.4453,-1.4338,-1.4124,-1.4104,-1.3821,-1.3159,-1.2545,0.0,0.0,0.0,0.0,0.0,0.0,0.0,0.0,0.0,0.0,0.0,0.0,0.0,0.0,0.0,0.0,0.0,0.0,0.0,0.0,0.0,0.0,0.0,0.0,0.0,0.0,0.0,0.0,0.0,0.0,0.0,0.0,0.0,0.0,0.0,0.0,0.0,0.0,0.0,0.0,0.0,0.0,0.0,0.0,0.0,0.0,0.0,0.0,0.0,0.0,0.0,0.0,0.0,0.0,-1.2914,-1.2263,-1.2766,-1.2825,-1.2569,-1.2239,-1.2321,-1.2575,0.0,0.0,0.0,0.0,0.0,0.0,0.0,0.0,0.0,0.0,0.0,0.0,0.0,0.0,0.0,0.0,0.0,0.0,0.0,0.0,0.0,0.0,0.0,0.0,0.0,-1.0497,-1.0623,0.0,0.0,0.0,0.0,0.0,0.0,0.0,0.0,0.0,0.0,0.0,0.0,-1.2767,-1.4486,-1.5478,-1.5077,-1.5038,-1.4834,-1.4367,-1.4328,-1.4299,-1.4221,-1.3237,-1.2764,0.0,0.0,0.0,0.0,0.0,0.0,0.0,0.0,0.0,0.0,0.0,0.0,0.0,0.0,0.0,0.0,0.0,0.0,0.0,0.0,0.0,0.0,0.0,0.0,0.0,0.0,0.0,0.0,0.0,0.0,0.0,0.0,-1.08,-1.0505,0.0,0.0,0.0,0.0,0.0,0.0,0.0,0.0,0.0,0.0,0.0,0.0,0.0,0.0,-1.2701,-1.3525,-1.3585,-1.2906,-1.4933,-1.5254,-1.4093,-1.4892,-1.5417,-1.5664,-1.4887,0.0,-1.1755,-1.1691,0.0,0.0,0.0,0.0,0.0,0.0,0.0,0.0,0.0,0.0,0.0,0.0,0.0,0.0,0.0,0.0,0.0,0.0,0.0,0.0,0.0,0.0,-1.1717,-1.1632,-1.2095,-1.2377,0.0,-1.0617,-1.0023,-1.0734,0.0,0.0,0.0,0.0,0.0,0.0,0.0,0.0,-1.2816,-1.4955,-1.6356,-1.5977,-1.5928,-1.5743,-1.5283,-1.5244,-1.5088,-1.4727,-1.4541,-1.4141,-1.3447,-1.3695,0.0,0.0,0.0,0.0,0.0,0.0,0.0,0.0,0.0,0.0,0.0,0.0,0.0,0.0,0.0,0.0,0.0,0.0,0.0,0.0,0.0,0.0,0.0,0.0,0.0,0.0,0.0,0.0,0.0,-1.0938,-1.099,-1.0472,-1.0711,-1.0674,0.0,0.0,0.0,0.0,0.0,0.0,0.0,0.0,0.0,-1.2467,-1.2661,-1.3048,-1.3579,-1.4485,-1.4712,-1.4296,-1.5662,-1.6074,-1.5535,-1.5934,-1.6267,-1.649,-1.6013,-1.4965,-1.3551,-1.292,-1.1921,-1.0788,0.0,0.0,0.0,0.0,0.0,-1.055,-1.181,0.0,0.0,0.0,0.0,0.0,0.0,0.0,0.0,0.0,0.0,0.0,0.0,0.0,0.0,-1.3109,-1.3219,-1.3164,-1.2735,-1.206,-1.1542,0.0,-1.212,-1.2111,-1.0667,0.0,0.0,0.0,0.0,0.0,-1.423,-1.568,-1.6629,-1.6465,-1.6436,-1.626,-1.584,-1.5781,-1.5625,-1.5166,-1.4922,-1.4727,-1.458,-1.4531,-1.4209,0.0,0.0,0.0,0.0,0.0,0.0,0.0,0.0,0.0,0.0,0.0,0.0,0.0,0.0,0.0,0.0,0.0,0.0,0.0,0.0,0.0,0.0,0.0,0.0,0.0,0.0,0.0,0.0,-1.1049,-1.1196,-1.0635,-1.1229,-1.1278,0.0,0.0,0.0,0.0,0.0,0.0,-1.2364,-1.2545,-1.2932,-1.366,-1.3977,-1.433,-1.4706,-1.5479,-1.5765,-1.5578,-1.6293,-1.654,-1.642,-1.662,-1.6707,-1.67,-1.6553,-1.6159,-1.5471,-1.4067,-1.2947,-1.2064,-1.1643,-1.1121,-1.0575,-1.0588,-1.0916,-1.1551,-1.2875,-1.325,-1.3223,-1.36,0.0,-1.2529,-1.1928,0.0,0.0,0.0,0.0,-1.2438,-1.3003,0.0,-1.3985,-1.4067,-1.3975,-1.3726,-1.336,-1.3296,-1.3127,0.0,-1.3348,-1.3588,-1.1858,0.0,0.0,0.0,0.0,-1.5246,-1.5527,-1.6445,-1.6989,-1.6882,-1.6863,-1.6719,-1.63,-1.6261,-1.6045,-1.5605,-1.5391,-1.5322,-1.541,-1.5332,-1.5029,0.0,0.0,0.0,0.0,0.0,0.0,0.0,0.0,0.0,0.0,0.0,0.0,0.0,0.0,0.0,0.0,0.0,0.0,0.0,0.0,0.0,0.0,0.0,0.0,0.0,0.0,0.0,0.0,0.0,0.0,-1.1115,-1.2054,0.0,0.0,0.0,0.0,-1.1936,-1.2595,-1.296,-1.2883,-1.3775,-1.4573,-1.5248,-1.5826,-1.6288,-1.6576,-1.6931,-1.6971,-1.664,-1.7235,-1.7128,-1.644,-1.7181,-1.7221,-1.6707,-1.6693,-1.6667,-1.6493,-1.4767,-1.4023,-1.3881,-1.312,-1.2852,-1.2849,-1.2227,-1.2628,-1.3483,-1.3838,-1.3978,-1.4062,-1.4365,-1.4028,-1.3575,-1.3789,-1.307,0.0,0.0,-1.3174,-1.3302,-1.3963,-1.4282,-1.4419,-1.4142,-1.4282,-1.4272,-1.3706,-1.3985,-1.4196,0.0,-1.3058,-1.2933,-1.3933,0.0,-1.3851,-1.369,-1.5341,-1.6482,-1.6114,-1.7148,-1.7793,-1.7393,-1.7344,-1.7168,-1.6707,-1.6668,-1.6514,-1.6095,-1.6406,-1.6239,-1.542,-1.6171,-1.62,-1.5361,-1.4951,0.0,0.0,0.0,0.0,0.0,0.0,0.0,0.0,0.0,0.0,0.0,0.0,0.0,0.0,0.0,0.0,0.0,0.0,0.0,0.0,0.0,0.0,0.0,0.0,0.0,0.0,0.0,0.0,-1.2709,-1.355,0.0,0.0,-1.3196,-1.3442,-1.3172,-1.4029,-1.4746,-1.5052,-1.579,-1.6408,-1.6787,-1.7201,-1.7455,-1.7549,-1.7856,-1.8023,-1.8043,-1.813,-1.809,-1.7929,-1.7689,-1.7615,-1.7655,-1.7382,-1.7268,-1.7221,-1.6593,-1.5892,-1.5144,-1.4489,-1.4195,-1.4084,-1.3856,-1.4001,-1.4357,-1.4638,-1.497,-1.5224,-1.5331,-1.4883,-1.4258,-1.4118,-1.3777,-1.3527,-1.3961,-1.4047,-1.4184,-1.4813,-1.5021,-1.5104,-1.519,-1.5144,-1.4923,-1.4292,-1.4177,-1.4027,-1.3498,-1.3777,-1.387,-1.3088,-1.4453,-1.534,-1.4504,-1.6387,-1.7769,-1.7373,-1.7959,-1.8217,-1.7832,-1.7793,-1.7617,-1.7187,-1.7148,-1.6963,-1.6523,-1.6609,-1.656,-1.6239,-1.6531,-1.6551,-1.6239,-1.6113,-1.5381,0.0,0.0,0.0,0.0,0.0,0.0,0.0,0.0,0.0,0.0,0.0,0.0,0.0,0.0,0.0,0.0,0.0,0.0,0.0,0.0,0.0,0.0,0.0,0.0,0.0,0.0,-1.391,-1.4105,-1.5042,-1.5286,-1.4296,-1.4739,-1.5043,-1.4957,-1.571,-1.6353,-1.6847,-1.7241,-1.7589,-1.7883,-1.809,-1.819,-1.8176,-1.8484,-1.8657,-1.8684,-1.8751,-1.8751,-1.8671,-1.8337,-1.8116,-1.7976,-1.7702,-1.7582,-1.7582,-1.7582,-1.7121,-1.6346,-1.5558,-1.5177,-1.5064,-1.5064,-1.5064,-1.5097,-1.5351,-1.5565,-1.5784,-1.5784,-1.5484,-1.5017,-1.4756,-1.4676,-1.4716,-1.4903,-1.4963,-1.505,-1.5444,-1.5538,-1.5565,-1.5658,-1.5538,-1.5264,-1.4776,-1.4489,-1.42,-1.3728,-1.404,-1.4082,-1.3077,-1.454,-1.5627,-1.5038,-1.6424,-1.7408,-1.7168,-1.7603,-1.7818,-1.7471,-1.7783,-1.79,-1.7617,-1.723,-1.6943,-1.6953,-1.667,-1.6541,-1.6697,-1.656,-1.6367,-1.6044,-1.5654,-1.505,-1.4328,0.0,0.0,0.0,0.0,0.0,0.0,0.0,0.0,0.0,0.0,0.0,0.0,0.0,0.0,0.0,0.0,0.0,0.0,0.0,0.0,0.0,0.0,0.0,-1.3414,-1.4554,-1.529,-1.5211,-1.6388,-1.6854,-1.5992,-1.6687,-1.7246,-1.7246,-1.7514,-1.7756,-1.8002,-1.8056,-1.8238,-1.8539,-1.8532,-1.8532,-1.8546,-1.8784,-1.8798,-1.8524,-1.9098,-1.9065,-1.8537,-1.9105,-1.8731,-1.7682,-1.7673,-1.7666,-1.7582,-1.7582,-1.7582,-1.7468,-1.6326,-1.5838,-1.5831,-1.5865,-1.5811,-1.5811,-1.5791,-1.5784,-1.5784,-1.5784,-1.5784,-1.5784,-1.5784,-1.5784,-1.5784,-1.5784,-1.5784,-1.5784,-1.5784,-1.5784,-1.5711,-1.5478,-1.5411,-1.5331,-1.5082,-1.4965,-1.4832,-1.4588,-1.3841,-1.3456,-1.4218,-1.4332,-1.4605,-1.5316,-1.5488,0.0,-1.5469,-1.6258,-1.6677,-1.6396,-1.7324,-1.7969,-1.8008,-1.6858,-1.6486,-1.7344,-1.6633,-1.6318,-1.6726,-1.6357,-1.5762,-1.493,-1.3668,-1.3639,-1.4872,0.0,0.0,0.0,0.0,0.0,0.0,0.0,0.0,0.0,0.0,0.0,0.0,0.0,0.0,0.0,0.0,0.0,0.0,0.0,0.0,0.0,0.0,-1.4646,-1.4774,-1.5461,-1.6269,-1.7082,-1.7741,-1.8023,-1.7782,-1.7976,-1.8123,-1.8123,-1.839,-1.8591,-1.8621,-1.902,-1.9388,-1.9804,-1.9549,-1.9481,-1.9811,-1.9426,-1.9205,-1.9132,-1.935,-1.9285,-1.9132,-1.9292,-1.9249,-1.8955,-1.9512,-1.8962,-1.7582,-1.7582,-1.7582,-1.7549,-1.7228,-1.7101,-1.7048,-1.662,-1.6553,-1.6593,-1.5977,-1.5784,-1.5784,-1.5784,-1.5784,-1.5784,-1.5784,-1.5784,-1.5784,-1.5784,-1.5784,-1.5784,-1.5784,-1.5784,-1.5758,-1.5732,-1.5712,-1.5631,-1.5337,-1.5264,-1.5157,-1.4894,-1.4469,-1.431,-1.4923,-1.5401,-1.5748,-1.5951,-1.7524,0.0,-1.7199,-1.8119,-1.8721,-1.8223,-1.7324,-1.71,-1.7939,-1.7109,-1.6924,0.0,-1.7607,-1.7529,-1.7656,-1.7539,-1.7363,-1.7129,-1.6172,-1.582,0.0,0.0,0.0,0.0,0.0,0.0,0.0,0.0,0.0,0.0,0.0,0.0,0.0,0.0,0.0,0.0,0.0,0.0,0.0,0.0,0.0,0.0,-1.5692,-1.6359,-1.6946,-1.711,-1.7507,-1.8486,-1.8744,-1.8905,-1.9032,-1.9038,-1.9038,-1.9038,-1.9192,-1.9239,-1.9118,-1.9382,-1.9738,-2.0043,-1.9723,-1.973,-2.0043,-1.9616,-1.9424,-1.9424,-1.9424,-1.9424,-1.9424,-1.9424,-1.9424,0.0,-1.9346,-1.8678,-1.7582,-1.7582,-1.7582,0.0,0.0,0.0,0.0,0.0,-1.707,-1.696,-1.64,-1.6146,-1.5997,-1.5838,-1.6052,-1.6286,-1.6077,-1.6015,-1.5952,-1.5952,-1.5849,-1.5702,-1.5746,-1.5759,-1.5771,-1.5785,-1.5784,-1.5785,-1.5611,-1.5552,-1.5435,-1.5214,-1.4902,0.0,-1.552,-1.5779,-1.5848,-1.5753,-1.7363,-1.8241,-1.7399,-1.8282,-1.8887,-1.8555,-1.793,-1.7861,-1.8662,-1.7467,0.0,0.0,0.0,-1.7197,-1.7197,-1.7373,0.0,0.0,0.0,-1.6424,-1.7002,0.0,0.0,0.0,-1.5674,-1.5244,0.0,0.0,0.0,0.0,0.0,0.0,0.0,0.0,0.0,0.0,0.0,0.0,0.0,0.0,0.0,0.0,-1.7382,-1.7997,-1.9354,-1.9038,-1.8878,-1.9406,-1.9466,-1.9566,-1.9826,-1.9853,-1.9853,-1.9853,-1.9853,-1.9733,-1.9479,0.0,0.0,0.0,0.0,-1.9576,-1.9886,-1.9582,-1.9444,-1.9412,-1.9379,-1.9424,-1.9424,-1.9424,-1.9424,-1.937,-1.8243,-1.7709,-1.7582,-1.7582,-1.7582,-1.7582,-1.7582,-1.7582,-1.7582,-1.7582,-1.7428,-1.7149,-1.6927,0.0,0.0,-1.6139,-1.65,-1.6987,-1.6573,-1.6332,-1.6201,-1.6151,-1.5908,-1.564,-1.5704,-1.5713,-1.5715,-1.5779,-1.5784,-1.5784,-1.5784,-1.5742,-1.5673,-1.5475,-1.5137,-1.5124,-1.5846,-1.5682,-1.5369,-1.5197,-1.6206,-1.6898,-1.6791,-1.7654,-1.8301,-1.8301,0.0,0.0,-1.966,-1.7944,-1.7369,-1.8598,-1.7275,-1.6457,-1.6457,-1.6807,-1.6475,-1.5312,-1.5654,-1.6426,-1.7598,-1.7598,-1.8218,-1.9228,-1.6924,-1.6239,0.0,0.0,0.0,0.0,0.0,0.0,0.0,0.0,0.0,0.0,0.0,0.0,0.0,0.0,0.0,-1.7712,-1.8568,-1.9324,-2.0328,-2.012,-1.994,-2.0054,-2.0067,-2.0087,-2.014,-2.0147,-2.0147,-2.0147,-2.0147,-2.0127,-2.0067,-2.0226,0.0,-2.0916,-2.0274,-2.026,-2.0916,-1.9892,-1.9486,-1.9713,0.0,0.0,-1.9424,-1.9424,-1.9424,-1.941,-1.9125,-1.8477,-1.7582,-1.7582,-1.7582,-1.7582,-1.7582,-1.7582,-1.7582,-1.7582,-1.7538,-1.7526,-1.7706,-1.7561,-1.7348,-1.7268,-1.7348,-1.7368,-1.6814,-1.6505,0.0,-1.5974,-1.5809,-1.5757,-1.5803,-1.5798,-1.5798,-1.5785,-1.5784,-1.5784,-1.5784,-1.5785,-1.5785,-1.5718,-1.5313,-1.5045,-1.5198,-1.5445,-1.5627,-1.5588,-1.7291,-1.8233,-1.7299,-1.8906,-2.0106,-2.0106,-1.8984,-1.8652,-1.9611,-1.8481,-1.8164,-1.9102,-1.8848,-1.8662,-1.8662,-1.875,-1.8672,-1.8418,-1.8496,-1.8662,-1.8916,-1.8916,-1.9043,-1.9277,-1.8769,-1.8633,0.0,0.0,0.0,0.0,0.0,0.0,0.0,0.0,0.0,0.0,0.0,-1.5165,0.0,0.0,-1.8458,-1.9639,-2.0132,-2.0572,-2.1074,-2.0862,-2.0615,-2.0474,-2.0327,-2.0294,-2.0441,-2.0454,-2.0454,-2.0454,-2.0454,-2.0388,-2.0241,-2.0326,-2.0499,-2.0854,-2.0387,-2.0401,-2.0847,-1.9993,-1.9726,-2.0013,-1.9579,-1.9446,-1.9579,-1.9432,-1.9424,-1.9424,-1.9424,-1.9089,-1.843,-1.7829,-1.7582,-1.7582,-1.7582,-1.7582,-1.7582,-1.7582,-1.7582,-1.7633,-1.7766,-1.7691,-1.7582,-1.7582,-1.7181,-1.6653,-1.6353,-1.6339,-1.6373,-1.6179,-1.592,-1.5706,-1.5749,-1.5739,-1.5766,-1.5812,-1.5784,-1.5784,-1.5784,-1.5784,-1.5784,-1.5784,-1.5478,-1.5398,-1.601,-1.6177,-1.6331,-1.6492,-1.8381,-1.9599,-1.9027,-1.9913,-2.0605,-2.0605,-1.9832,-1.9521,-2.0098,-1.9424,-1.9053,-1.9277,-1.9287,-1.9287,-1.9287,-1.9482,-1.96,-1.96,-1.9814,-1.9959,-1.9959,-1.9959,-1.9959,-1.9959,-1.9959,-1.9734,0.0,0.0,0.0,0.0,0.0,0.0,0.0,0.0,-1.4393,-1.5353,-1.6149,-1.7086,-1.8539,-1.9556,-2.0393,-2.119,-2.1442,-2.1526,-2.1501,-2.1309,-2.1069,-2.0715,-2.0514,-2.0494,-2.0735,-2.0762,-2.0762,-2.0762,-2.0762,-2.0655,-2.0414,-2.034,-2.0421,-2.0587,-2.0378,-2.0405,-2.063,-2.0099,-2.0034,-2.0314,-1.9786,-1.9626,-1.9786,-1.9499,-1.9424,-1.9424,-1.9424,-1.9296,-1.8945,-1.7976,-1.7582,-1.7582,-1.7582,-1.7582,-1.7582,-1.7582,-1.7582,-1.7582,-1.7582,-1.7582,-1.7549,-1.7315,-1.6754,-1.6166,-1.6166,-1.6393,-1.6593,-1.6366,-1.5958,-1.5668,-1.572,-1.5704,-1.5725,-1.5792,-1.5784,-1.5784,-1.5784,-1.5784,-1.5872,-1.6103,-1.5958,-1.6151,-1.7342,-1.7505,-1.7474,-1.7549,-1.919,-2.04,-2.04,-2.0528,-2.0605,-2.0605,-2.0605,-2.0605,-2.0605,-2.0244,-1.9893,-1.9551,-1.9541,-1.9541,-1.9541,-1.9863,-2.0039,-2.0039,-2.0429,-2.0605,-2.0605,-2.0605,-2.0605,-2.0605,-2.0605,-2.0233,-1.287,-1.2851,-1.3206,-1.4594,-1.4393,-1.4642,0.0,0.0,-1.6841,-1.8578,-1.8779,-1.8874,-1.9859,-2.0359,-2.0747,-2.1063,-2.1555,-2.1757,-2.1209,-2.1356,-2.136,-2.0742,-2.0875,-2.1022,-2.1056,-2.1062,-2.1062,-2.1062,-2.1062,-2.1049,-2.1015,-2.1009,-2.1025,-2.1049,-2.077,-2.0764,-2.1043,-2.0469,-2.0334,-2.0621,-2.0294,-2.0013,-1.9786,-1.9499,-1.9424,-1.9424,-1.9424,-1.8764,-1.7769,-1.7635,-1.7582,-1.7582,-1.7582,-1.7582,-1.7582,-1.7582,-1.7582,-1.7582,-1.7582,-1.7582,-1.7408,-1.6366,-1.6647,-1.7388,-1.7388,-1.7415,-1.7235,-1.6186,-1.5812,-1.5777,-1.5792,-1.5772,-1.5799,-1.5805,-1.5784,-1.5784,-1.5784,-1.5784,-1.6109,-1.7271,-1.7217,-1.7387,-1.8685,-1.9428,-1.9526,-1.8607,-1.9149,-1.9724,-1.9724,-2.0229,-2.0605,-2.0605,-2.0605,-2.0605,-2.0605,-2.0556,-2.0507,-2.0468,-2.0458,-2.0458,-2.0458,-2.0507,-2.0537,-2.0537,-2.0576,-2.0605,-2.0605,-2.0605,-2.0605,-2.0605,-2.0605,-2.0556,-1.4474,-1.4463,0.0,0.0,-1.6121,-1.6472,-1.816,-1.842,-1.8467,-1.9284,-1.9832,-2.0254,-2.0454,-2.1251,-2.1797,0.0,-2.2086,-2.2251,-2.1706,-2.143,-2.1076,-2.0488,-2.0587,-2.0875,-2.111,-2.0972,-2.1011,-2.1367,-2.1238,-2.1109,-2.1109,-2.1109,-2.1109,-2.1109,-2.0989,-2.0989,-2.1109,-2.0702,-2.0635,-2.0922,-2.0454,-2.0167,-2.004,-1.9753,-1.9526,-1.9424,-1.9424,-1.9085,-1.868,-1.868,-1.868,-1.868,-1.868,-1.8196,-1.7582,-1.7582,-1.7582,-1.7582,-1.7582,-1.7582,-1.7502,-1.7007,-1.7181,-1.7582,-1.7582,-1.7582,-1.7482,-1.6987,-1.66,-1.6366,-1.648,-1.6506,-1.648,-1.6366,-1.6339,-1.6293,-1.6126,-1.6649,-1.7253,-1.7628,-1.8149,-1.8941,-2.0153,-2.0651,-2.0936,-2.1172,-2.1072,-2.0832,-2.0585,-2.0776,-2.0859,-2.0635,-2.0605,-2.0605,-2.0605,-2.0605,-2.0605,-2.0605,-2.0605,-2.0605,-2.0605,-2.0605,-2.0605,-2.0605,-2.0605,-2.0605,-2.0605,-2.0605,-2.0605,-2.0605,-2.0605,-2.0284,-1.5405,0.0,0.0,-1.6928,-1.7688,-1.8279,-1.8724,-1.9452,-2.0073,-2.018,-2.0755,-2.1216,-2.1169,-2.1818,0.0,-2.1952,-2.2214,-2.2314,-2.18,-2.1309,-2.0832,-2.0365,-2.0267,-2.0567,-2.1248,-2.0888,-2.0842,-2.1313,-2.1101,-2.1029,-2.1109,-2.1109,-2.1109,-2.1109,-2.1109,-2.1109,-2.1109,-2.0902,-2.0902,-2.1102,-2.0595,-2.0307,-2.016,-1.9853,-1.9566,-1.9424,-1.9424,-1.9424,-1.9424,-1.9424,-1.9424,-1.9424,-1.9424,-1.8894,-1.8036,-1.7702,-1.7582,-1.7582,-1.7582,-1.7582,-1.7582,-1.7582,-1.7582,-1.7582,-1.7582,-1.7582,-1.7582,-1.7582,-1.7275,-1.6981,-1.7121,-1.7161,-1.7121,-1.6981,-1.682,-1.681,-1.7183,-1.7821,-1.8489,-1.8965,-1.9756,-2.068,-2.1806,-2.1966,-2.2251,-2.2979,-2.2617,-2.208,-2.16,-2.1444,-2.1289,-2.1006,-2.086,-2.0752,-2.0752,-2.0674,-2.0605,-2.0605,-2.0605,-2.0664,-2.0742,-2.0674,-2.0664,-2.0752,-2.0664,-2.0664,-2.0752,-2.0752,-2.0752,-2.0752,-2.0752,-2.0115,0.0,0.0,-1.707,-1.7943,-1.8921,-1.9886,-2.08,-2.1263,-2.1708,-2.2211,-2.1904,-2.171,-2.2265,-2.197,-2.1601,-2.1628,-2.1842,-2.1822,-2.1209,-2.0882,-2.0671,-2.0521,-2.0026,-2.0225,0.0,-2.0953,-2.0557,-2.0746,-2.0737,-2.0815,-2.1096,-2.1109,-2.1109,-2.1109,-2.1109,-2.1109,-2.1109,-2.1102,-2.1102,-2.1109,-2.0808,-2.0508,-2.0153,-1.9639,-1.943,-1.9424,-1.9424,-1.9424,-1.9424,-1.9424,-1.9424,-1.9424,-1.9424,-1.9403,-1.9172,-1.8009,-1.7582,-1.7582,-1.7582,-1.7582,-1.7582,-1.7582,-1.7582,-1.7582,-1.7582,-1.7582,-1.7582,-1.7582,-1.7569,-1.7555,-1.7562,-1.7562,-1.7562,-1.7555,-1.7121,-1.7241,-1.9159,-1.9303,-1.9718,-2.1996,-2.2474,-2.2777,-2.3557,-2.3725,-2.3578,-2.3159,-2.3071,-2.2906,-2.2529,-2.2119,-2.1865,-2.1846,-2.1465,-2.1171,-2.1171,-2.081,-2.0605,-2.0605,-2.0605,-2.0762,-2.1161,-2.0791,-2.0771,-2.1161,-2.0791,-2.0781,-2.1171,-2.1171,-2.1171,-2.1171,-2.1171,-2.041,0.0,0.0,-1.8439,-1.9625,-2.0275,-2.0842,-2.1527,-2.1917,-2.2017,-2.163,-2.1347,-2.1025,-2.0478,-2.0463,-2.0528,-2.0585,-2.1613,-2.2176,-2.1517,-2.1785,-2.1526,-1.9965,-1.9925,0.0,0.0,0.0,0.0,-2.1307,-2.0935,-2.0722,-2.0815,-2.1002,-2.1109,-2.1109,-2.1109,-2.1109,-2.1109,-2.1109,-2.1109,-2.1102,-2.0615,-2.0227,-1.9933,-2.0554,-2.1038,-2.1266,-1.9982,-1.9424,-1.9424,-1.9424,-2.1714,-2.5333,-2.5333,-2.4603,-2.3548,-2.3118,-2.2985,-2.2475,-1.8857,-1.7582,-1.7716,-1.851,-1.8764,-1.8617,-1.7822,-1.7582,-1.7582,-1.7582,-1.7582,-1.7582,-1.7582,-1.7582,-1.7582,-1.7582,-1.8846,-2.021,-2.0893,-2.1379,-2.1835,-2.2377,-2.3194,-2.3808,-2.3812,-2.3789,-2.3643,-2.3159,-2.2857,-2.2676,-2.2529,-2.2148,-2.1885,-2.1885,-2.1758,-2.167,-2.167,-2.1523,-2.1445,-2.1445,-2.1445,-2.1514,-2.166,-2.1523,-2.1514,-2.166,-2.1514,-2.1514,-2.167,-2.167,-2.1514,-2.12,-2.1533,-2.0726,0.0,-1.8973,-1.9768,-2.1065,-2.1587,-2.1864,-2.2352,-2.2365,-2.2044,-2.1269,-2.074,-2.0207,-1.9513,-1.9287,-1.9409,-1.9816,-2.0666,-2.1223,-2.1133,-2.1276,-2.1074,-2.0113,-2.0014,0.0,0.0,0.0,0.0,-2.1262,-2.091,-2.0775,-2.0996,-2.1189,-2.1203,-2.1102,-2.1109,-2.1109,-2.1109,-2.1109,-2.1247,-2.1582,-2.1194,-2.1068,-2.1285,-2.2017,-2.2434,-2.2429,-2.1777,-2.1941,-2.2548,-2.2548,-2.4829,-2.8291,-2.8291,-2.7617,-2.665,-2.665,-2.665,-2.6116,-2.2636,-2.1425,-2.1575,-2.2315,-2.2173,-2.1496,-2.0708,-2.0487,-2.0487,-2.0487,-2.0943,-2.1425,-2.1425,-1.9854,-1.8217,-1.8217,-2.0742,-2.3126,-2.3126,-2.3583,-2.3889,-2.3648,-2.4146,-2.4512,-2.4092,-2.376,-2.3467,-2.314,-2.2867,-2.2691,-2.2691,-2.25,-2.2334,-2.2334,-2.2197,-2.2109,-2.2109,-2.1865,-2.1768,-2.1875,-2.1982,-2.2051,-2.2109,-2.1963,-2.1953,-2.2109,-2.1963,-2.1963,-2.2109,-2.2109,-2.1963,-2.1658,-2.1973,-2.0906,-1.911,-2.0023,-2.0974,-2.2161,-2.2665,-2.2939,-2.3213,-2.2572,-2.1737,-2.1145,-2.01,-1.9296,0.0,0.0,-1.8216,-1.9224,-1.9136,-1.928,-2.0133,-1.9576,-1.958,0.0,0.0,0.0,0.0,0.0,0.0,-2.071,0.0,-2.0942,-2.1518,-2.1562,-2.1406,-2.1082,-2.1109,-2.1109,-2.1109,-2.1172,-2.1679,-2.2505,-2.2602,-2.3061,-2.3847,-2.3886,-2.3547,-2.2991,-2.4605,-2.6426,-2.8291,-2.8291,-2.8291,-2.8291,-2.8291,-2.8291,-2.8291,-2.8291,-2.8291,-2.8291,-2.8291,-2.8291,-2.8291,-2.8291,-2.7197,-2.5801,-2.5713,-2.5752,-2.582,-2.582,-2.7041,-2.8237,-2.7897,-2.3886,-1.9873,-1.9873,-2.2897,-2.5791,-2.5703,-2.5693,-2.5693,-2.5693,-2.5371,-2.4922,-2.4492,-2.3686,-2.313,-2.3101,-2.3091,-2.3091,-2.3091,-2.3091,-2.3091,-2.3091,-2.2783,-2.2549,-2.2549,-2.1904,-2.1631,-2.1934,-2.2187,-2.2393,-2.2539,-2.2158,-2.2139,-2.2539,-2.2158,-2.2148,-2.2549,-2.2549,-2.2539,-2.251,-2.2539,-2.1111,-2.0658,-2.1523,-2.2126,-2.2853,-2.2979,-2.2826,-2.2679,-2.1797,-2.0773,-1.9904,-1.8781,-1.7652,0.0,0.0,0.0,-1.781,-1.9693,0.0,-2.138,-2.1628,0.0,0.0,0.0,-2.0388,-2.0258,-2.0037,0.0,0.0,-2.0608,-2.052,-2.0903,-2.1136,-2.1181,-2.1102,-2.1109,-2.1109,-2.1109,-2.2341,-2.2941,-2.2953,-2.3866,-2.4325,-2.4331,-2.5171,-2.5432,-2.5227,-2.5479,-2.6628,-2.8291,-2.8291,-2.8291,-2.8291,-2.8291,-2.8291,-2.8291,-2.8291,-2.8291,-2.8291,-2.8291,-2.8291,-2.8291,-2.8291,-2.7998,-2.7402,-2.6074,-2.6631,-2.7646,-2.7646,-2.7959,-2.7286,-2.283,-2.3838,-2.6,-2.6,-2.6858,-2.7295,-2.5966,-2.5693,-2.5693,-2.5693,-2.5303,-2.4824,-2.4473,-2.4072,-2.3643,-2.3159,-2.3091,-2.3091,-2.3091,-2.3091,-2.3091,-2.3091,-2.3003,-2.2935,-2.2935,-2.276,-2.2691,-2.2769,-2.2838,-2.2896,-2.2935,-2.2838,-2.2828,-2.2935,-2.2828,-2.2828,-2.2935,-2.2935,-2.2779,-2.2519,-2.2789,-2.2226,-2.1678,-2.2509,-2.3093,-2.3434,-2.3193,-2.2748,-2.211,-2.0985,-1.9716,-1.8482,-1.7462,0.0,0.0,0.0,0.0,0.0,0.0,0.0,-2.0898,-2.1467,-2.1717,0.0,-2.1296,0.0,-2.0422,-2.0261,-2.0455,0.0,-2.0813,-2.0781,-2.1094,-2.1268,-2.1245,-2.1096,-2.1109,-2.1475,-2.2223,-2.3146,-2.3994,-2.4862,-2.5527,-2.5957,-2.6213,-2.6773,-2.6761,-2.6227,0.0,-2.709,-2.75,-2.8066,-2.8291,-2.8291,-2.8291,-2.8291,-2.8291,-2.8291,-2.8291,-2.8291,-2.8291,-2.8291,-2.8291,-2.8291,-2.8291,-2.8115,-2.7148,-2.7529,-2.8291,-2.8291,-2.8291,-2.7511,-2.4172,-2.5781,-2.8291,-2.8291,-2.8291,-2.7822,-2.6064,-2.5693,-2.5693,-2.5693,-2.5478,-2.5127,-2.4697,-2.4072,-2.3471,-2.314,-2.3091,-2.3091,-2.3091,-2.3091,-2.3091,-2.3091,-2.3091,-2.3091,-2.3091,-2.3091,-2.3091,-2.3091,-2.3091,-2.3091,-2.3091,-2.3091,-2.3091,-2.3091,-2.3091,-2.3091,-2.3091,-2.3091,-2.2974,-2.275,-2.2984,-2.2297,-2.2325,-2.3211,-2.3814,-2.3781,-2.3323,-2.2485,-2.1523,-2.0068,-1.8535,-1.6944,0.0,0.0,-1.4832,0.0,-1.5903,-1.6461,0.0,-1.8441,-2.0065,-2.0511,-2.0918,-2.1682,-2.1831,-2.1635,-2.1148,-2.0995,-2.0935,-2.1082,-2.1156,-2.1285,-2.1501,-2.1516,-2.1484,-2.1454,-2.1418,-2.2215,-2.3876,-2.4116,-2.5266,-2.7283,-2.7459,-2.7884,-2.8545,-2.8428,-2.7773,-2.6787,0.0,0.0,-2.6728,-2.7832,-2.8291,-2.8291,-2.8291,-2.8291,-2.8291,-2.8291,-2.8291,-2.8291,-2.8291,-2.8291,-2.8291,-2.8291,-2.8291,-2.8291,-2.8291,-2.8291,-2.8291,-2.8291,-2.8291,-2.8291,-2.8291,-2.8291,-2.8291,-2.8291,-2.8291,-2.7822,-2.6064,-2.5693,-2.5693,-2.5693,-2.5693,-2.5528,-2.5088,-2.416,-2.3383,-2.3208,-2.3198,-2.3179,-2.311,-2.3091,-2.3091,-2.3091,-2.3091,-2.3091,-2.3091,-2.3091,-2.3091,-2.3091,-2.3091,-2.3091,-2.3091,-2.3091,-2.3091,-2.3091,-2.3091,-2.3091,-2.3091,-2.3091,-2.3091,-2.3091,-2.3091,-2.1996,-2.3261,-2.3811,-2.4068,-2.3834,-2.2946,-2.1802,-2.0396,-1.8654,0.0,0.0,0.0,-1.4365,-1.3758,-1.479,0.0,-1.6693,0.0,0.0,0.0,0.0,-2.1683,0.0,0.0,0.0,0.0,0.0,0.0,0.0,0.0,0.0,-2.1174,-2.1181,-2.1804,-2.3139,-2.3146,-2.3931,-2.5558,-2.6901,-2.775,-2.821,-2.9191,-2.9716,-2.9844,-2.9131,-2.8691,-2.8467,0.0,0.0,-2.7978,-2.8203,-2.8291,-2.8291,-2.8291,-2.8291,-2.8291,-2.8291,-2.8291,-2.8291,-2.8291,-2.8291,-2.8291,-2.8291,-2.8291,-2.8291,-2.8291,-2.8291,-2.8291,-2.8291,-2.8291,-2.8291,-2.8291,-2.8291,-2.8291,-2.8291,-2.8291,-2.7822,-2.6064,-2.5693,-2.5693,-2.5693,-2.5693,-2.5654,-2.5557,-2.5372,-2.4875,-2.3838,-2.3779,-2.3637,-2.3159,-2.3091,-2.3091,-2.3091,-2.3091,-2.3091,-2.3091,-2.3091,-2.3091,-2.3091,-2.3091,-2.3091,-2.3091,-2.3091,-2.3091,-2.3091,-2.3091,-2.3091,-2.3091,-2.3091,-2.3091,-2.3091,-2.3091,-2.2872,-2.3838,-2.4247,-2.4289,-2.3688,-2.2525,-2.1146,-1.9587,0.0,0.0,0.0,0.0,-1.3949,-1.3263,0.0,0.0,0.0,0.0,0.0,0.0,0.0,0.0,0.0,0.0,0.0,0.0,0.0,0.0,0.0,0.0,0.0,-2.1089,-2.1915,-2.3131,-2.4778,-2.484,-2.5627,-2.7263,-2.7991,-2.8742,-2.9359,-2.9939,-3.0078,-2.9853,-2.9443,-2.9258,-2.9238,-2.8896,0.0,-2.7988,-2.8203,-2.8027,-2.7676,-2.8115,-2.8291,-2.8291,-2.8291,-2.8291,-2.8291,-2.8291,-2.8291,-2.8291,-2.8291,-2.8291,-2.8291,-2.8291,-2.8291,-2.8291,-2.8291,-2.8291,-2.8291,-2.8291,-2.8291,-2.8291,-2.8291,-2.8291,-2.8066,-2.7246,-2.707,-2.707,-2.707,-2.6709,-2.6395,-2.6541,-2.6074,-2.5479,-2.4893,-2.4287,-2.3799,-2.3516,-2.3237,-2.3091,-2.3091,-2.3091,-2.3091,-2.3091,-2.3091,-2.3091,-2.3091,-2.3091,-2.3091,-2.3091,-2.3091,-2.3091,-2.3091,-2.3091,-2.3091,-2.3091,-2.3091,-2.3091,-2.3091,-2.3091,-2.2765,-2.3894,-2.4344,-2.4255,-2.3434,-2.2064,-2.0475,-1.8894,-1.7049,0.0,0.0,0.0,-1.3633,-1.2982,0.0,0.0,0.0,0.0,0.0,0.0,0.0,0.0,0.0,0.0,0.0,0.0,0.0,0.0,0.0,0.0,0.0,-2.1699,-2.3193,-2.484,-2.647,-2.6522,-2.7323,-2.8911,-2.8911,-2.9411,-3.0342,-3.0342,-3.0166,-2.9853,-2.9746,-2.9707,-2.9687,-2.9381,0.0,0.0,-2.7812,-2.7568,-2.7353,-2.8027,-2.8398,-2.8545,-2.8359,-2.8291,-2.8291,-2.8291,-2.8291,-2.8291,-2.8291,-2.8291,-2.8291,-2.8291,-2.8291,-2.8291,-2.8291,-2.8291,-2.8291,-2.8291,-2.8291,-2.8291,-2.8291,-2.8291,-2.8291,-2.8291,-2.8291,-2.8291,-2.8291,-2.7646,-2.7168,-2.7383,-2.6562,-2.5801,-2.5703,-2.4785,-2.4023,-2.3935,-2.3623,-2.3364,-2.3364,-2.3208,-2.3091,-2.3091,-2.3091,-2.3091,-2.3091,-2.3091,-2.3091,-2.3091,-2.3091,-2.3091,-2.3091,-2.3091,-2.3091,-2.3091,-2.3091,-2.3091,-2.3091,-2.3091,-2.2448,-2.3202,-2.3611,-2.3694,-2.3066,-2.1597,-1.9902,-1.8337,0.0,0.0,0.0,-1.3384,-1.2943,-1.2753,-1.3086,0.0,0.0,0.0,0.0,0.0,0.0,0.0,0.0,0.0,0.0,0.0,0.0,0.0,0.0,0.0,0.0,0.0,-2.4893,-2.653,-2.811,-2.817,-2.8979,-3.0645,-3.0645,-3.0743,-3.083,-3.083,-3.081,-3.0752,-3.0332,-3.0137,-3.0107,0.0,0.0,0.0,-2.6816,-2.6836,-2.8184,-2.8262,-2.8769,-2.9355,-2.8574,-2.8291,-2.8291,-2.8291,-2.8291,-2.8291,-2.8291,-2.8291,-2.8291,-2.8291,-2.8291,-2.8291,-2.8291,-2.8291,-2.8291,-2.8291,-2.8291,-2.8291,-2.8291,-2.8291,-2.8291,-2.8291,-2.8291,-2.8291,-2.8291,-2.7793,-2.7393,-2.7412,-2.6816,-2.6191,-2.5742,-2.5293,-2.4814,-2.4414,-2.4326,-2.4297,-2.4297,-2.3559,-2.3091,-2.3091,-2.3091,-2.3091,-2.3091,-2.3091,-2.3091,-2.3091,-2.3091,-2.3091,-2.3091,-2.3091,-2.3091,-2.3091,-2.3091,-2.3091,-2.3091,-2.3091,-2.2448,-2.3032,-2.3637,-2.3581,-2.2792,-2.1276,-1.9645,-1.8427,0.0,0.0,-1.4039,-1.3406,-1.2748,-1.2247,-1.2829,-1.3493,0.0,0.0,0.0,0.0,0.0,0.0,0.0,0.0,0.0,0.0,0.0,0.0,0.0,0.0,0.0,0.0,-2.7082,-2.8179,-2.9835,-2.9903,-3.0216,-3.0889,-3.0889,-3.0889,-3.0889,-3.0889,-3.0889,-3.0889,-3.0703,-3.0615,-3.0605,0.0,0.0,0.0,-2.8193,-2.7851,-2.7295,-2.876,-2.9268,-2.917,-2.9092,-2.873,-2.8291,-2.8291,-2.8291,-2.8291,-2.8291,-2.8291,-2.8291,-2.8291,-2.8291,-2.8291,-2.8291,-2.8291,-2.8291,-2.8291,-2.8291,-2.8291,-2.8291,-2.8291,-2.8291,-2.8291,-2.8291,-2.8291,-2.8291,-2.8105,-2.7939,-2.7939,-2.751,-2.7012,-2.6572,-2.5918,-2.5312,-2.4863,-2.458,-2.4414,-2.4414,-2.3887,-2.3525,-2.3525,-2.3247,-2.3091,-2.3091,-2.3091,-2.3091,-2.3091,-2.3091,-2.3091,-2.3091,-2.3091,-2.3091,-2.3091,-2.3091,-2.3091,-2.3091,-2.3091,-2.2448,-2.218,-2.2769,-2.2719,-2.2171,-2.0753,-1.925,0.0,0.0,-1.438,-1.3995,-1.3379,-1.2749,-1.2212,-1.2604,-1.2928,0.0,0.0,0.0,0.0,0.0,0.0,0.0,0.0,0.0,0.0,0.0,0.0,0.0,0.0,0.0,0.0,-2.9157,-2.9658,-3.083,-3.0889,-3.0889,-3.0889,-3.0889,-3.0889,-3.0889,-3.0889,-3.0684,-3.0322,-3.0713,-3.0674,-3.0332,0.0,0.0,0.0,-2.8867,-2.8574,-2.7891,-2.9609,-2.9961,-2.9502,-2.9551,-2.9131,-2.8525,-2.835,-2.8291,-2.8291,-2.8291,-2.8291,-2.8291,-2.8291,-2.8291,-2.8291,-2.8291,-2.8291,-2.8291,-2.8291,-2.8291,-2.8291,-2.8291,-2.8682,-2.8994,-2.873,-2.8603,-2.8535,-2.8486,-2.8379,-2.8291,-2.8291,-2.8047,-2.7705,-2.7275,-2.6592,-2.5957,-2.5566,-2.5195,-2.4951,-2.4824,-2.4394,-2.4082,-2.3984,-2.3584,-2.3286,-2.3286,-2.3169,-2.3091,-2.3091,-2.3091,-2.3091,-2.3091,-2.3091,-2.3091,-2.3091,-2.3091,-2.3091,-2.3091,-2.3091,-2.2262,-2.0243,-2.0658,-2.0775,-2.1049,-2.0033,-1.8607,0.0,0.0,-1.4617,-1.3707,-1.3174,-1.2905,-1.2881,-1.2295,-1.1983,-1.2538,-1.3056,0.0,0.0,0.0,0.0,0.0,0.0,0.0,0.0,0.0,0.0,0.0,0.0,0.0,0.0,-3.0889,-3.0889,-3.0889,-3.0889,-3.0889,-3.0889,-3.0889,-3.0889,-3.0889,-3.0889,-3.0205,-2.8984,-3.0293,-3.0176,0.0,0.0,0.0,0.0,-2.8096,-2.8545,-3.085,-3.0869,-3.0879,-3.0762,-2.9893,-2.945,-2.9127,-2.8496,-2.8291,-2.8291,-2.8291,-2.8291,-2.8291,-2.8291,-2.8291,-2.8291,-2.8291,-2.8291,-2.8291,-2.8291,-2.8291,-2.8291,-2.8291,-2.9609,-3.0625,-2.9746,-2.9401,-2.9111,-2.8945,-2.8574,-2.8291,-2.8291,-2.8291,-2.8144,-2.7777,-2.7285,-2.6846,-2.6426,-2.6367,-2.6201,-2.5723,-2.5215,-2.4746,-2.4434,-2.4023,-2.3779,-2.3779,-2.3379,-2.3091,-2.3091,-2.3091,-2.3091,-2.3091,-2.3091,-2.3091,-2.3091,-2.3091,-2.3091,-2.3091,-2.3091,-2.1819,-1.8069,-1.8738,-1.9072,-1.8687,-1.8045,-1.7228,-1.6213,-1.5162,-1.4249,-1.364,-1.3398,-1.3175,-1.2709,-1.2445,-1.2536,-1.3345,-1.3348,0.0,0.0,0.0,0.0,0.0,0.0,0.0,0.0,0.0,0.0,0.0,0.0,0.0,0.0,0.0,-3.0889,-3.0889,-3.0889,-3.0889,-3.0889,-3.0889,-3.0889,-3.0889,-3.0889,-3.0205,-2.8965,-3.0293,0.0,0.0,0.0,0.0,0.0,-2.9629,-2.9619,-2.9629,-3.0537,-3.0693,-3.0381,-3.0098,-2.9648,-2.9082,-2.8496,-2.8291,-2.8291,-2.8291,-2.8291,-2.8291,-2.8291,-2.8291,-2.8291,-2.8291,-2.8291,-2.8291,-2.8291,-2.8291,-2.8437,-2.9023,-2.9141,-2.9258,-2.9766,-2.9805,-2.9619,-2.917,-2.8975,-2.876,-2.8359,-2.8291,-2.8144,-2.7777,-2.7549,-2.7305,-2.6875,-2.6816,-2.668,-2.6338,-2.6074,-2.5752,-2.5304,-2.4844,-2.4199,-2.3354,-2.3169,-2.3091,-2.3091,-2.3091,-2.3091,-2.3091,-2.3091,-2.3091,-2.3091,-2.3091,-2.3091,-2.3047,-2.1987,-2.0764,0.0,-1.6919,-1.7383,-1.6997,-1.668,0.0,0.0,-1.4465,-1.4002,-1.3401,-1.316,-1.3056,-1.3101,-1.2662,-1.2505,-1.3211,-1.3305,0.0,0.0,0.0,0.0,0.0,0.0,0.0,0.0,0.0,0.0,0.0,0.0,0.0,0.0,0.0,-3.0889,-3.0889,-3.0889,-3.0889,-3.0889,-3.0889,-3.0889,-3.0889,-3.0889,-3.0205,-2.8965,-3.0293,0.0,0.0,0.0,0.0,0.0,-3.0547,-3.04,-2.9746,-3.0566,-3.0713,-3.0459,-3.0459,-2.9971,-2.9323,-2.8906,-2.8779,-2.8721,-2.8398,-2.8291,-2.8291,-2.8291,-2.8291,-2.8291,-2.8291,-2.8291,-2.8291,-2.8291,-2.8291,-2.8428,-2.8965,-2.918,-2.9473,-3.0195,-3.0351,-3.0176,-2.96,-2.9492,-2.9238,-2.8428,-2.8476,-2.8457,-2.7978,-2.791,-2.7725,-2.7226,-2.7363,-2.7178,-2.6348,-2.6191,-2.6035,-2.5713,-2.5254,-2.4639,-2.3906,-2.3569,-2.3471,-2.3569,-2.3266,-2.3198,-2.3422,-2.3208,-2.3091,-2.3091,-2.3091,-2.3091,-2.3047,-2.0161,-1.8572,0.0,0.0,0.0,0.0,0.0,0.0,0.0,-1.3635,0.0,-1.2978,-1.254,-1.2669,-1.389,-1.292,-1.2065,-1.2508,-1.3143,0.0,0.0,0.0,0.0,0.0,0.0,0.0,0.0,0.0,0.0,0.0,0.0,0.0,0.0,0.0,-3.0889,-3.0889,-3.0859,-3.0859,-3.0889,-3.0889,-3.084,-3.0752,-3.084,-3.0146,-2.8828,-3.0244,0.0,0.0,0.0,0.0,0.0,-3.0889,-3.0889,-3.0889,-3.0889,-3.0869,-3.084,-3.084,-3.0283,-2.9521,-2.9597,-2.9567,-2.9346,-2.8555,-2.8291,-2.8291,-2.8291,-2.8291,-2.8291,-2.8291,-2.8291,-2.8291,-2.8291,-2.8291,-2.8291,-2.8291,-2.9619,-3.0889,-3.0889,-3.0889,-3.0723,-3.0185,-3.0078,-2.9736,-2.8662,-2.8828,-2.8926,-2.8369,-2.8291,-2.8096,-2.7549,-2.7949,-2.7685,-2.6044,-2.5869,-2.582,-2.5703,-2.5361,-2.5145,-2.5116,-2.4453,-2.4189,-2.4404,-2.3588,-2.3413,-2.4004,-2.3393,-2.3091,-2.3091,-2.3091,-2.3091,-2.3003,-1.8249,-1.5967,-1.1696,0.0,-1.2959,-1.2732,0.0,0.0,0.0,-1.2354,-1.2513,0.0,0.0,-1.2672,-1.3955,-1.3042,-1.2623,-1.4143,0.0,0.0,0.0,0.0,0.0,0.0,0.0,0.0,0.0,0.0,0.0,0.0,0.0,0.0,0.0,0.0,-3.0889,-3.0889,-3.0547,-3.0537,-3.0889,-3.0889,-3.0381,-2.9394,-3.041,-2.9687,-2.7539,-2.9844,0.0,0.0,0.0,0.0,-3.0889,-3.0889,-3.0889,-3.0889,-3.0889,-3.0674,-3.0361,-3.0361,-2.9814,-2.9092,-2.9219,-2.8965,-2.8555,-2.8359,-2.8291,-2.8291,-2.8291,-2.8291,-2.8291,-2.8291,-2.8291,-2.8291,-2.8291,-2.8291,-2.8291,-2.8291,-2.9619,-3.0889,-3.0889,-3.0889,-3.085,-3.0713,-3.0684,-3.0596,-3.0322,-2.9287,-2.8447,-2.831,-2.8291,-2.8242,-2.8105,-2.8203,-2.8135,-2.7734,-2.7695,-2.7158,-2.5801,-2.5596,-2.5439,-2.5135,-2.4959,-2.4697,-2.4424,-2.4023,-2.3877,-2.4014,-2.3393,-2.3091,-2.3091,-2.3091,-2.3091,-2.3047,-2.0034,-1.7615,-1.0566,-1.1699,-1.2682,-1.2128,-1.241,-1.2599,-1.1901,0.0,0.0,0.0,0.0,0.0,-1.3922,0.0,0.0,0.0,0.0,0.0,0.0,0.0,0.0,0.0,0.0,0.0,0.0,0.0,0.0,0.0,0.0,0.0,0.0,0.0,-3.0791,-3.0576,-3.0332,-3.0322,-3.0576,-3.0381,-2.9726,-2.8643,-2.9951,-2.9629,-2.7949,-2.9746,0.0,0.0,0.0,0.0,-3.084,-3.0234,-3.0215,-3.0576,-3.0576,-3.0303,-2.9932,-3.0127,-2.9697,-2.9062,-2.9277,-2.8887,-2.8291,-2.8291,-2.8291,-2.8291,-2.8291,-2.8291,-2.8291,-2.8291,-2.8291,-2.8291,-2.8291,-2.8291,-2.8291,-2.8291,-2.9619,-3.0889,-3.0889,-3.0889,-3.0889,-3.0889,-3.0889,-3.0635,-2.9834,-2.9238,-2.875,-2.835,-2.8291,-2.8291,-2.8291,-2.8291,-2.8291,-2.8291,-2.7939,-2.749,-2.6953,-2.6619,-2.6289,-2.584,-2.5703,-2.5596,-2.541,-2.4766,-2.416,-2.3578,-2.3257,-2.3091,-2.3091,-2.3091,-2.3091,-2.3047,-2.0629,-1.8164,-1.0244,-1.1914,-1.3298,-1.244,-1.2779,-1.3033,-1.2052,0.0,0.0,0.0,0.0,0.0,0.0,0.0,0.0,0.0,0.0,0.0,0.0,0.0,0.0,0.0,0.0,0.0,0.0,0.0,0.0,0.0,0.0,0.0,0.0,0.0,0.0,-3.0117,-3.0039,-3.0,-3.0,-2.9717,-2.9101,-2.8213,-2.9492,-2.9619,-2.876,-2.9678,-3.0312,0.0,0.0,0.0,-3.0703,-2.958,-2.9541,-3.0185,-3.0127,-2.9844,-2.9512,-2.9873,-2.959,-2.9127,-2.9297,-2.8906,-2.8291,-2.8291,-2.8291,-2.8291,-2.8291,-2.8291,-2.8291,-2.8291,-2.8291,-2.8291,-2.8291,-2.8291,-2.8291,-2.8291,-2.9619,-3.0889,-3.0889,-3.0889,-3.0889,-3.0889,-3.0889,-3.042,-2.8945,-2.9072,-2.9131,-2.8398,-2.8291,-2.8291,-2.8291,-2.8291,-2.8291,-2.8291,-2.7646,-2.75,-2.8232,-2.7842,-2.7344,-2.6916,-2.6572,-2.6426,-2.6445,-2.5527,-2.4492,-2.3305,-2.3159,-2.3091,-2.3091,-2.3091,-2.296,-2.2677,-2.0629,-1.8303,-1.0596,-1.2139,-1.3112,-1.1474,-1.1754,-1.2249,-1.1617,0.0,0.0,0.0,0.0,0.0,0.0,0.0,0.0,0.0,0.0,0.0,0.0,0.0,0.0,0.0,0.0,0.0,0.0,0.0,0.0,0.0,0.0,0.0,0.0,0.0,0.0,-2.9734,-2.9307,-2.9111,-2.9111,-2.9414,-2.8965,-2.7836,-2.9053,-2.9088,-2.7953,-2.9111,-2.9707,0.0,0.0,-3.0059,-3.0293,-3.0088,-3.0078,-3.0166,-2.9805,-2.9404,-2.9023,-2.9092,-2.8828,-2.8428,-2.8476,-2.8398,-2.8291,-2.8291,-2.8291,-2.8291,-2.8291,-2.8291,-2.8291,-2.8291,-2.8291,-2.8291,-2.8291,-2.8291,-2.8291,-2.8291,-2.9619,-3.0889,-3.0889,-3.0889,-3.0889,-3.0889,-3.0889,-3.081,-3.0537,-2.9375,-2.8447,-2.831,-2.8291,-2.8291,-2.8291,-2.8291,-2.8291,-2.8291,-2.8174,-2.8144,-2.8281,-2.8213,-2.8125,-2.8037,-2.709,-2.6338,-2.584,-2.5654,-2.5118,-2.4238,-2.3471,-2.3091,-2.3091,-2.3091,-2.2403,-2.1078,-2.0711,-1.8802,-0.9971,-1.1318,-1.2258,-1.1302,-1.2338,-1.3293,-1.2099,0.0,0.0,0.0,0.0,0.0,0.0,0.0,0.0,0.0,0.0,0.0,0.0,0.0,0.0,0.0,0.0,0.0,0.0,0.0,0.0,0.0,0.0,0.0,0.0,0.0,0.0,0.0,-2.9023,-2.8809,-2.8584,-2.8779,-2.835,-2.7334,-2.8603,-2.8672,-2.7748,-2.875,-2.9346,-2.9587,0.0,-2.9004,-2.9805,-2.9111,-2.9101,-2.9492,-2.9297,-2.8955,-2.8584,-2.8584,-2.875,-2.8916,-2.8457,-2.8291,-2.8291,-2.8291,-2.8291,-2.8291,-2.8291,-2.8291,-2.8291,-2.8291,-2.8291,-2.8291,-2.8291,-2.8291,-2.8291,-2.8291,-2.9619,-3.0889,-3.0889,-3.0889,-3.0889,-3.0889,-3.0889,-3.0889,-3.0889,-3.0225,-2.9697,-2.9697,-2.9697,-2.9697,-2.9697,-2.9697,-2.9336,-2.8389,-2.8291,-2.8291,-2.8291,-2.8291,-2.8193,-2.7969,-2.7236,-2.6484,-2.5713,-2.5693,-2.5499,-2.5089,-2.4699,-2.4495,-2.4495,-2.4192,-2.3611,-2.2638,-2.0403,-1.876,-0.963,-1.0654,-1.142,-1.1379,0.0,-1.4126,-1.2776,0.0,0.0,0.0,0.0,0.0,0.0,0.0,0.0,0.0,0.0,0.0,0.0,0.0,0.0,0.0,0.0,0.0,0.0,0.0,0.0,0.0,0.0,0.0,0.0,0.0,0.0,0.0,-2.8769,-2.8613,-2.8301,-2.8291,-2.7959,-2.7324,-2.8301,-2.8437,-2.7832,-2.8476,-2.8955,-2.9209,-2.7988,-2.8203,-2.9346,-2.8359,-2.834,-2.8906,-2.8809,-2.8574,-2.8291,-2.8291,-2.8701,-2.918,-2.8516,-2.8291,-2.8359,-2.8769,-2.8623,-2.8291,-2.8291,-2.8574,-2.8896,-2.8896,-2.8896,-2.8896,-2.8896,-2.8603,-2.8398,-2.8809,-2.9922,-3.0889,-3.0889,-3.0889,-3.0889,-3.0889,-3.0889,-3.0889,-3.0889,-3.0889,-3.0889,-3.0889,-3.0889,-3.0889,-3.0889,-3.0889,-3.0381,-2.9043,-2.8896,-2.8848,-2.8711,-2.8535,-2.8301,-2.7978,-2.7295,-2.6621,-2.5957,-2.5762,-2.5693,-2.5693,-2.5557,-2.5489,-2.5489,-2.5029,-2.4359,-2.3439,-2.0623,-1.9169,-1.0371,-1.0889,-1.1046,-1.1476,-1.2586,0.0,-1.3274,-1.398,0.0,0.0,0.0,0.0,0.0,0.0,0.0,0.0,0.0,0.0,0.0,0.0,0.0,0.0,0.0,0.0,0.0,0.0,0.0,0.0,0.0,0.0,0.0,0.0,0.0,0.0,0.0,-2.832,-2.8291,-2.8291,-2.8262,-2.8203,-2.8291,-2.8301,-2.8252,-2.831,-2.8359,-2.8398,-2.8672,-2.8848,-2.8955,-2.8867,-2.8867,-2.8877,-2.8496,-2.832,-2.8291,-2.8291,-2.833,-2.8369,-2.831,-2.8291,-2.8555,-3.0185,-2.9609,-2.8291,-2.8291,-2.9424,-3.0703,-3.0703,-3.0703,-3.0703,-3.0703,-2.9502,-2.8701,-3.0322,-3.0801,-3.0889,-3.0889,-3.0889,-3.0889,-3.0889,-3.0889,-3.0889,-3.0889,-3.0889,-3.0889,-3.0889,-3.0889,-3.0889,-3.0889,-3.0889,-3.084,-3.0723,-3.0703,-3.0488,-2.9941,-2.9268,-2.8857,-2.8838,-2.7432,-2.6622,-2.6564,-2.6016,-2.5693,-2.5693,-2.5215,-2.4951,-2.4951,-2.4619,-2.3233,-2.0906,-2.1872,-2.0821,-0.9482,-1.0303,-1.0993,-1.1335,0.0,0.0,0.0,0.0,0.0,0.0,0.0,0.0,0.0,0.0,0.0,0.0,0.0,0.0,0.0,0.0,0.0,0.0,0.0,0.0,0.0,0.0,0.0,0.0,0.0,0.0,0.0,0.0,0.0,0.0,0.0,-2.8291,-2.8291,-2.8291,-2.8291,-2.8291,-2.8291,-2.8291,-2.8291,-2.8291,-2.8291,-2.8301,-2.8457,-2.8535,-2.8535,-2.8535,-2.8535,-2.8516,-2.8359,-2.8291,-2.8291,-2.8291,-2.8291,-2.8291,-2.8291,-2.9004,-3.0019,-3.0674,-3.0449,-2.9707,-2.8623,-2.875,-2.9502,-3.0586,-3.0889,-3.0889,-3.0889,-3.04,-3.0078,-3.0732,-3.0889,-3.0889,-3.0889,-3.0889,-3.0889,-3.0889,-3.0889,-3.0889,-3.0889,-3.0889,-3.0889,-3.0889,-3.0889,-3.0889,-3.0889,-3.0889,-3.0889,-3.0889,-3.0566,-3.0254,-3.0039,-2.9336,-2.8916,-2.8916,-2.8115,-2.7519,-2.7307,-2.6279,-2.5693,-2.5693,-2.5479,-2.542,-2.542,-2.5245,-2.4285,-2.2539,-2.2892,-2.1965,-0.9053,-0.9941,-1.0885,0.0,0.0,0.0,0.0,0.0,0.0,0.0,0.0,0.0,0.0,0.0,0.0,0.0,0.0,0.0,0.0,0.0,0.0,0.0,0.0,0.0,0.0,0.0,0.0,0.0,0.0,0.0,0.0,0.0,0.0,0.0,0.0,0.0,-2.8096,-2.7959,-2.7891,-2.7891,-2.7891,-2.8027,-2.8291,-2.8154,-2.8164,-2.8291,-2.8291,-2.8291,-2.8291,-2.8291,-2.8291,-2.8291,-2.8291,-2.8291,-2.8291,-2.8291,-2.8291,-2.8291,-2.8291,-2.9434,-3.0889,-3.0889,-3.0889,-3.0566,-2.8818,-2.8291,-2.8652,-3.04,-3.0889,-3.0889,-3.0889,-3.0889,-3.0889,-3.0889,-3.0889,-3.0889,-3.0889,-3.0889,-3.0889,-3.0889,-3.0889,-3.0889,-3.0889,-3.0889,-3.0889,-3.0889,-3.0889,-3.0889,-3.0889,-3.0889,-3.0889,-3.0889,-3.0527,-3.0234,-3.0088,-2.9492,-2.9062,-2.8926,-2.8525,-2.8105,-2.7738,-2.668,-2.6093,-2.6093,-2.6093,-2.6093,-2.6093,-2.5957,-2.522,-2.3913,-2.4033,-2.3214,-0.9378,-0.9932,0.0,0.0,0.0,0.0,0.0,0.0,0.0,0.0,0.0,0.0,0.0,0.0,0.0,0.0,0.0,0.0,0.0,0.0,0.0,0.0,0.0,0.0,0.0,0.0,0.0,0.0,0.0,0.0,0.0,0.0,0.0,0.0,0.0,0.0,-2.7708,-2.7226,-2.7012,-2.7012,-2.7012,-2.7461,-2.8262,-2.7851,-2.7891,-2.8281,-2.8281,-2.8281,-2.8281,-2.8291,-2.8291,-2.8291,-2.8291,-2.8291,-2.8291,-2.8291,-2.8291,-2.8291,-2.8291,-2.9434,-3.0889,-3.0889,-3.0889,-3.0566,-2.8838,-2.831,-2.8682,-3.04,-3.0889,-3.0889,-3.0889,-3.0889,-3.0889,-3.0889,-3.0889,-3.0889,-3.0889,-3.0889,-3.0889,-3.0889,-3.0889,-3.0889,-3.0889,-3.0889,-3.0889,-3.0889,-3.0889,-3.0889,-3.0889,-3.0889,-3.0889,-3.0889,-3.0889,-3.0703,-3.0244,-2.9814,-2.9385,-2.8955,-2.8525,-2.8105,-2.7738,-2.7256,-2.7021,-2.7021,-2.7012,-2.7012,-2.7012,-2.6602,-2.5698,-2.4311,-2.5269,-2.4753,-0.9354,-1.0035,0.0,0.0,0.0,0.0,0.0,0.0,0.0,0.0,0.0,0.0,0.0,0.0,0.0,0.0,0.0,0.0,0.0,0.0,0.0,0.0,0.0,0.0,0.0,0.0,0.0,0.0,0.0,0.0,0.0,0.0,0.0,0.0,0.0,0.0,-2.7207,-2.708,-2.7012,-2.7012,-2.6709,-2.6865,-2.7393,-2.7266,-2.7275,-2.7412,-2.7715,-2.7851,-2.7881,-2.8174,-2.8291,-2.8291,-2.8291,-2.8291,-2.8291,-2.8291,-2.8291,-2.8291,-2.8291,-2.9434,-3.0889,-3.0889,-3.0889,-3.0791,-3.0283,-3.0127,-3.0225,-3.0742,-3.0889,-3.0889,-3.0889,-3.0889,-3.0889,-3.0889,-3.0889,-3.0889,-3.0889,-3.0889,-3.0889,-3.0889,-3.0889,-3.0889,-3.0889,-3.0889,-3.0889,-3.0889,-3.0889,-3.0889,-3.0889,-3.0889,-3.0889,-3.0889,-3.0889,-3.083,-3.0693,-3.0,-2.9512,-2.9385,-2.8691,-2.8232,-2.8115,-2.7705,-2.7471,-2.7471,-2.7168,-2.7012,-2.7012,-2.6894,-2.5923,-2.432,-2.5624,-2.5239,-0.9925,0.0,0.0,0.0,0.0,0.0,0.0,0.0,0.0,0.0,0.0,0.0,0.0,0.0,0.0,0.0,0.0,0.0,0.0,0.0,0.0,0.0,0.0,0.0,0.0,0.0,0.0,0.0,0.0,0.0,0.0,0.0,0.0,0.0,0.0,0.0,-2.6758,-2.6416,-2.6328,-2.6504,-2.625,-2.626,-2.6464,-2.6689,-2.6855,-2.7041,-2.748,-2.7718,-2.7748,-2.8125,-2.8291,-2.8291,-2.8291,-2.8291,-2.8291,-2.8291,-2.8291,-2.8291,-2.8291,-2.8984,-2.9863,-2.9863,-3.0322,-3.0889,-3.0889,-3.0889,-3.0889,-3.0889,-3.0889,-3.0889,-3.0889,-3.0889,-3.0889,-3.0889,-3.0889,-3.0889,-3.0889,-3.0889,-3.0889,-3.0889,-3.0889,-3.0889,-3.0889,-3.0889,-3.0889,-3.0889,-3.0889,-3.0889,-3.0889,-3.0889,-3.0889,-3.0889,-3.0889,-3.081,-3.0635,-3.0127,-2.9746,-2.9636,-2.9092,-2.8721,-2.8555,-2.8135,-2.792,-2.792,-2.7656,-2.7519,-2.7519,-2.7353,-2.6708,-2.5643,-2.6336,-2.5987,0.0,0.0,0.0,0.0,0.0,0.0,0.0,0.0,0.0,0.0,0.0,0.0,0.0,0.0,0.0,0.0,0.0,0.0,0.0,0.0,0.0,0.0,0.0,0.0,0.0,0.0,0.0,0.0,0.0,0.0,0.0,0.0,0.0,0.0,0.0,0.0,-2.6201,-2.5449,-2.5273,0.0,-2.5625,-2.5645,-2.5703,-2.6143,-2.6562,-2.6982,-2.7383,-2.762,-2.7689,-2.8066,-2.8232,-2.8242,-2.8281,-2.8291,-2.8291,-2.8291,-2.8291,-2.8291,-2.8291,-2.8291,-2.8291,-2.8291,-2.9365,-3.0684,-3.084,-3.0889,-3.0889,-3.0889,-3.0889,-3.0889,-3.0889,-3.0889,-3.0889,-3.0889,-3.0889,-3.0889,-3.0889,-3.0889,-3.0889,-3.0889,-3.0889,-3.0889,-3.0889,-3.0889,-3.0889,-3.0889,-3.0889,-3.0889,-3.0889,-3.0889,-3.0889,-3.0889,-3.0889,-3.0723,-3.0293,-3.0215,-3.0029,-2.9704,-2.959,-2.9394,-2.8994,-2.8574,-2.833,-2.8291,-2.8291,-2.8291,-2.8291,-2.791,-2.7757,-2.7708,-2.7256,-2.6846,0.0,0.0,0.0,0.0,0.0,0.0,0.0,0.0,0.0,0.0,0.0,0.0,0.0,0.0,0.0,0.0,0.0,0.0,0.0,0.0,0.0,0.0,0.0,0.0,0.0,0.0,0.0,0.0,0.0,0.0,0.0,0.0,0.0,0.0,0.0,-2.4902,-2.4844,-2.499,-2.5117,0.0,-2.5215,-2.54,-2.5693,-2.5781,-2.6113,-2.6533,-2.6621,-2.6846,-2.7187,-2.7617,-2.7855,-2.7885,-2.8164,-2.8291,-2.8291,-2.8291,-2.8291,-2.8291,-2.8291,-2.8291,-2.8291,-2.8291,-2.8545,-2.9101,-3.0478,-3.0889,-3.0889,-3.0889,-3.0889,-3.0889,-3.0889,-3.0889,-3.0889,-3.0889,-3.0889,-3.0889,-3.0889,-3.0889,-3.0889,-3.0889,-3.0889,-3.0889,-3.0889,-3.0889,-3.0889,-3.0889,-3.0889,-3.0889,-3.0889,-3.0889,-3.0889,-3.0889,-3.0889,-3.085,-3.0752,-3.04,-3.0156,-3.0068,-2.9756,-2.9531,-2.9434,-2.9014,-2.8633,-2.8301,-2.8291,-2.8291,-2.8291,-2.8203,-2.7988,-2.7718,-2.762,-2.7295,0.0,0.0,0.0,0.0,0.0,0.0,0.0,0.0,0.0,0.0,0.0,0.0,0.0,0.0,0.0,0.0,0.0,0.0,0.0,0.0,0.0,0.0,0.0,0.0,0.0,0.0,0.0,0.0,0.0,0.0,0.0,0.0,0.0,0.0,-2.4238,-2.4228,-2.4414,-2.4443,-2.4551,-2.4756,-2.4756,-2.4873,-2.507,-2.5499,-2.581,-2.6084,-2.6299,-2.6514,-2.6748,-2.7178,-2.7353,-2.7402,-2.7822,-2.8115,-2.8291,-2.8291,-2.8291,-2.8291,-2.8291,-2.8291,-2.8291,-2.8291,-2.8291,-2.8457,-2.9375,-3.0225,-3.0889,-3.0889,-3.0889,-3.0889,-3.0889,-3.0889,-3.0889,-3.0889,-3.0889,-3.0889,-3.0889,-3.0889,-3.0889,-3.0889,-3.0889,-3.0889,-3.0889,-3.0889,-3.0889,-3.0889,-3.0889,-3.0889,-3.0889,-3.0889,-3.0889,-3.0889,-3.0889,-3.0889,-3.0889,-3.0674,-3.0527,-3.0527,-3.0322,-3.0107,-2.9883,-2.9648,-2.9238,-2.8603,-2.8398,-2.8291,-2.8291,-2.8291,-2.8174,-2.7969,-2.7969,-2.7734,0.0,0.0,0.0,0.0,0.0,0.0,0.0,0.0,0.0,0.0,0.0,0.0,0.0,0.0,0.0,0.0,0.0,0.0,0.0,0.0,0.0,0.0,0.0,0.0,0.0,0.0,0.0,0.0,0.0,0.0,0.0,0.0,-2.3916,-2.4189,-2.3539,-2.351,-2.4189,-2.3926,-2.3965,-2.4307,-2.4385,-2.4375,-2.4336,-2.5146,-2.546,-2.5479,-2.5967,-2.6162,-2.6201,-2.6699,-2.6904,-2.6943,-2.7383,-2.7851,-2.8291,-2.8291,-2.8291,-2.8291,-2.8291,-2.8291,-2.8291,-2.8291,-2.8291,-2.8291,-2.8291,-2.9512,-3.0889,-3.0889,-3.0889,-3.0889,-3.0889,-3.0889,-3.0889,-3.0889,-3.0889,-3.0889,-3.0889,-3.0889,-3.0889,-3.0889,-3.0889,-3.0889,-3.0889,-3.0889,-3.0889,-3.0889,-3.0889,-3.0889,-3.0889,-3.0889,-3.0889,-3.0889,-3.0889,-3.0889,-3.0889,-3.0889,-3.0889,-3.0889,-3.0889,-3.0723,-3.0332,-3.0234,-2.9834,-2.9053,-2.8613,-2.8369,-2.8291,-2.8291,-2.8291,-2.8291,-2.8291,-2.8105,0.0,0.0,0.0,0.0,0.0,0.0,0.0,0.0,0.0,0.0,0.0,0.0,0.0,0.0,0.0,0.0,0.0,0.0,0.0,0.0,0.0,0.0,0.0,0.0,0.0,0.0,0.0,0.0,0.0,0.0,0.0,-2.3584,-2.3643,-2.3276,-2.3564,-2.3574,-2.3266,-2.3633,-2.3818,-2.3877,-2.4238,-2.4228,-2.3896,-2.4375,-2.459,-2.4619,-2.5059,-2.5292,-2.536,-2.6133,-2.6475,-2.6514,-2.6934,-2.7588,-2.8291,-2.8291,-2.8291,-2.8291,-2.8291,-2.8291,-2.8291,-2.8291,-2.8291,-2.8291,-2.8291,-2.9512,-3.0889,-3.0889,-3.0889,-3.0889,-3.0889,-3.0889,-3.0889,-3.0889,-3.0889,-3.0889,-3.0889,-3.0889,-3.0889,-3.0889,-3.0889,-3.0889,-3.0889,-3.0889,-3.0889,-3.0889,-3.0889,-3.0889,-3.0889,-3.0889,-3.0889,-3.0889,-3.0889,-3.0889,-3.0889,-3.0889,-3.0889,-3.0889,-3.0889,-3.0859,-3.0801,-3.041,-2.9971,-2.9492,-2.9053,-2.8662,-2.8291,-2.8291,-2.8291,-2.8291,-2.8291,-2.8262,0.0,0.0,0.0,0.0,0.0,0.0,0.0,0.0,0.0,0.0,0.0,0.0,0.0,0.0,0.0,0.0,0.0,0.0,0.0,0.0,0.0,0.0,0.0,0.0,0.0,0.0,0.0,0.0,0.0,0.0,-2.3091,-2.3276,-2.3296,-2.3101,-2.3276,-2.3286,-2.3091,-2.3286,-2.3428,-2.3428,-2.3613,-2.3559,-2.3428,-2.3569,-2.4092,-2.4785,-2.5028,-2.5215,-2.5469,-2.5859,-2.6025,-2.6064,-2.6494,-2.6894,-2.7285,-2.7764,-2.8096,-2.8291,-2.8291,-2.8291,-2.8291,-2.8291,-2.8291,-2.8291,-2.8291,-2.9512,-3.0693,-2.9707,-3.0137,-3.0889,-3.0889,-3.0889,-3.0889,-3.0889,-3.0889,-3.0889,-3.0889,-3.0889,-3.0889,-3.0889,-3.0889,-3.0889,-3.0889,-3.0889,-3.0889,-3.0889,-3.0889,-3.0889,-3.0889,-3.0889,-3.0889,-3.0889,-3.0889,-3.0889,-3.0889,-3.0889,-3.0889,-3.0889,-3.0889,-3.0889,-3.0889,-3.0693,-3.0381,-2.9932,-2.9258,-2.8711,-2.8291,-2.8291,-2.8291,-2.8291,-2.8291,-2.8291,0.0,0.0,0.0,0.0,0.0,0.0,0.0,0.0,0.0,0.0,0.0,0.0,0.0,0.0,0.0,0.0,0.0,0.0,0.0,0.0,0.0,0.0,0.0,0.0,0.0,0.0,0.0,0.0,0.0,0.0,-2.3091,-2.3091,-2.3091,-2.3091,-2.3091,-2.3091,-2.3091,-2.3091,-2.3091,-2.3091,-2.3091,-2.3256,-2.3507,-2.3222,-2.3855,-2.5146,-2.4876,-2.5,-2.5362,-2.5527,-2.5586,-2.5713,-2.6103,-2.6289,-2.6465,-2.7109,-2.7676,-2.8144,-2.8252,-2.8291,-2.8291,-2.8291,-2.8291,-2.8291,-2.8291,-2.9199,-3.0049,-2.9189,-2.9893,-3.0889,-3.0889,-3.0889,-3.0889,-3.0889,-3.0889,-3.0889,-3.0889,-3.0889,-3.0889,-3.0889,-3.0889,-3.0889,-3.0889,-3.0889,-3.0889,-3.0889,-3.0889,-3.0889,-3.0889,-3.0889,-3.0889,-3.0889,-3.0889,-3.0889,-3.0889,-3.0889,-3.0889,-3.0889,-3.0889,-3.0889,-3.0889,-3.0889,-3.0674,-3.0205,-2.957,-2.9033,-2.8613,-2.8506,-2.8447,-2.8447,-2.834,-2.8291,0.0,0.0,0.0,0.0,0.0,0.0,0.0,0.0,0.0,0.0,0.0,0.0,0.0,0.0,0.0,0.0,0.0,0.0,0.0,0.0,0.0,0.0,0.0,0.0,0.0,0.0,0.0,0.0,0.0,0.0,-2.3091,-2.3091,-2.3091,-2.3091,-2.3091,-2.3091,-2.3091,-2.3091,-2.3091,-2.3091,-2.3091,-2.3681,-2.466,-2.3594,-2.3951,-2.5321,-2.4332,-2.4092,-2.4512,-2.4932,-2.5352,-2.5693,-2.5713,-2.6025,-2.6396,-2.6435,-2.6982,-2.7806,-2.8154,-2.8291,-2.8291,-2.8291,-2.8291,-2.8291,-2.8291,-2.8359,-2.875,-3.0322,-3.082,-3.0889,-3.0889,-3.0889,-3.0889,-3.0889,-3.0889,-3.0889,-3.0889,-3.0889,-3.0889,-3.0889,-3.0889,-3.0889,-3.0889,-3.0889,-3.0889,-3.0889,-3.0889,-3.0889,-3.0889,-3.0889,-3.0889,-3.0889,-3.0889,-3.0889,-3.0889,-3.0889,-3.0889,-3.0889,-3.0889,-3.0889,-3.0889,-3.0889,-3.0674,-3.0205,-3.0156,-2.9922,-2.9558,-2.9092,-2.8887,-2.8877,-2.8476,-2.8291,0.0,0.0,0.0,0.0,0.0,0.0,0.0,0.0,0.0,0.0,0.0,0.0,0.0,0.0,0.0,0.0,0.0,0.0,0.0,0.0,0.0,0.0,0.0,0.0,0.0,0.0,0.0,0.0,0.0,0.0,-2.3062,-2.2627,-2.2578,-2.3081,-2.3091,-2.3091,-2.3091,-2.3091,-2.3091,-2.3091,-2.3844,-2.4414,-2.483,-2.5136,-2.519,-2.4996,-2.4629,-2.4615,-2.4844,-2.5047,-2.5332,-2.5693,-2.5693,-2.5781,-2.6006,-2.6289,-2.6748,-2.7353,-2.8047,-2.8291,-2.8291,-2.8291,-2.8291,-2.8291,-2.8291,-2.8672,-2.9238,-2.9863,-3.0459,-3.0889,-3.0889,-3.0889,-3.0889,-3.0889,-3.0889,-3.0889,-3.0889,-3.0889,-3.0889,-3.0889,-3.0889,-3.0889,-3.0889,-3.0889,-3.0889,-3.0889,-3.0889,-3.0889,-3.0889,-3.0889,-3.0889,-3.0889,-3.0889,-3.0889,-3.0889,-3.0889,-3.0889,-3.0889,-3.0889,-3.0889,-3.0889,-3.0889,-3.081,-3.0644,-3.0644,-3.0283,-2.9626,-2.9414,-2.9189,-2.8916,-2.876,-2.8555,0.0,0.0,0.0,0.0,0.0,0.0,0.0,0.0,0.0,0.0,0.0,0.0,0.0,0.0,0.0,0.0,0.0,0.0,0.0,0.0,0.0,0.0,0.0,0.0,0.0,0.0,0.0,0.0,0.0,0.0,-2.2867,-2.2402,-2.2353,-2.2867,-2.2886,-2.2955,-2.3091,-2.3091,-2.3299,-2.3671,-2.4414,-2.5199,-2.59,-2.5922,-2.5714,-2.5336,-2.4957,-2.4936,-2.5175,-2.4815,-2.5206,-2.6016,-2.5652,-2.5605,-2.5723,-2.6064,-2.6523,-2.71,-2.7666,-2.8057,-2.8291,-2.8291,-2.8291,-2.8291,-2.8291,-2.8691,-2.9219,-2.9609,-3.0146,-3.0644,-3.084,-3.0889,-3.0889,-3.0889,-3.0889,-3.0889,-3.0889,-3.0889,-3.0889,-3.0889,-3.0889,-3.0889,-3.0889,-3.0889,-3.0889,-3.0889,-3.0889,-3.0889,-3.0889,-3.0889,-3.0889,-3.0889,-3.0889,-3.0889,-3.0889,-3.0889,-3.0889,-3.0889,-3.0889,-3.0889,-3.0889,-3.0889,-3.0889,-3.0889,-3.0889,-3.0605,-3.001,-2.9853,-2.956,-2.9131,-2.8984,-2.8691,0.0,0.0,0.0,0.0,0.0,0.0,0.0,0.0,0.0,0.0,0.0,0.0,0.0,0.0,0.0,0.0,0.0,0.0,0.0,0.0,0.0,0.0,0.0,0.0,0.0,0.0,0.0,0.0,0.0,-2.2847,-2.251,-2.249,-2.249,-2.249,-2.251,-2.2705,-2.3071,-2.3091,-2.3681,-2.4787,-2.483,-2.5983,-2.8044,-2.59,-2.5546,-2.6472,-2.5378,-2.5135,-2.5392,-2.4296,-2.4952,-2.6599,-2.5521,-2.5342,-2.5693,-2.5693,-2.623,-2.7012,-2.7012,-2.7578,-2.8291,-2.8291,-2.8291,-2.8291,-2.8291,-2.8301,-2.8545,-2.9668,-3.001,-3.0146,-3.0742,-3.0889,-3.0889,-3.0889,-3.0889,-3.0889,-3.0889,-3.0889,-3.0889,-3.0889,-3.0889,-3.0889,-3.0889,-3.0889,-3.0889,-3.0889,-3.0889,-3.0889,-3.0889,-3.0889,-3.0889,-3.0889,-3.0889,-3.0889,-3.0889,-3.0889,-3.0889,-3.0889,-3.0889,-3.0889,-3.0889,-3.0889,-3.0889,-3.0889,-3.0889,-3.0889,-3.0889,-3.0439,-2.999,-2.9616,-2.9111,-2.8682,-1.1924,0.0,0.0,0.0,0.0,0.0,0.0,0.0,0.0,0.0,0.0,0.0,0.0,0.0,0.0,0.0,0.0,0.0,0.0,0.0,0.0,0.0,0.0,0.0,0.0,0.0,0.0,0.0,-2.1641,-2.1504,-2.2031,-2.206,-2.206,-2.206,-2.2353,-2.2568,-2.2643,-2.2945,-2.3681,-2.483,-2.563,-2.6748,-2.8096,-2.8319,-2.8159,-2.7643,-2.7308,-2.7267,-2.7222,-2.5614,-2.5654,-2.6599,-2.5521,-2.5342,-2.5693,-2.5693,-2.623,-2.7012,-2.7012,-2.7578,-2.8291,-2.8291,-2.8291,-2.8291,-2.8291,-2.8506,-2.8838,-2.9277,-2.9697,-3.0146,-3.0742,-3.0889,-3.0889,-3.0889,-3.0889,-3.0889,-3.0889,-3.0889,-3.0889,-3.0889,-3.0889,-3.0889,-3.0889,-3.0889,-3.0889,-3.0889,-3.0889,-3.0889,-3.0889,-3.0889,-3.0889,-3.0889,-3.0889,-3.0889,-3.0889,-3.0889,-3.0889,-3.0889,-3.0889,-3.0889,-3.0889,-3.0889,-3.0889,-3.0889,-3.0889,-3.0889,-3.0889,-3.0762,-3.0312,-2.9551,-2.8809,-2.8408,0.0,0.0,0.0,0.0,0.0,0.0,0.0,-1.2729,0.0,0.0,0.0,0.0,0.0,0.0,0.0,0.0,0.0,0.0,0.0,0.0,0.0,0.0,0.0,0.0,0.0,0.0,0.0,0.0,-2.1447,-2.126,-2.1592,-2.1435,-2.1416,-2.1611,-2.1855,-2.2259,-2.2823,-2.3307,-2.4346,-2.585,-2.6728,-2.7735,-2.8819,-2.9015,-2.8727,-2.8096,-2.8096,-2.8096,-2.8039,-2.6971,-2.666,-2.6802,-2.589,-2.5483,-2.5478,-2.5625,-2.623,-2.7012,-2.7012,-2.7578,-2.8291,-2.8291,-2.8291,-2.8291,-2.8291,-2.8467,-2.873,-2.9072,-2.9756,-3.0459,-3.0801,-3.0889,-3.0889,-3.0889,-3.0889,-3.0889,-3.0889,-3.0889,-3.0889,-3.0889,-3.0889,-3.0889,-3.0889,-3.0889,-3.0889,-3.0889,-3.0889,-3.0889,-3.0889,-3.0889,-3.0889,-3.0889,-3.0889,-3.0889,-3.0889,-3.0889,-3.0889,-3.0889,-3.0889,-3.0889,-3.0889,-3.0889,-3.0889,-3.0889,-3.0889,-3.0889,-3.0889,-3.0889,-3.0439,-2.9551,-2.8867,-2.8555,0.0,0.0,0.0,0.0,0.0,0.0,-1.1976,-1.2959,-1.3929,0.0,0.0,0.0,0.0,0.0,0.0,0.0,0.0,0.0,0.0,0.0,0.0,0.0,0.0,0.0,0.0,0.0,-2.1201,-2.1631,-2.1709,-2.1572,-2.1142,-2.0781,-2.0752,-2.1103,-2.1281,-2.198,-2.3208,-2.3923,-2.5304,-2.7323,-2.7775,-2.8627,-2.9753,-2.8767,-2.8307,-2.8307,-2.8307,-2.8307,-2.8307,-2.8307,-2.7825,-2.7032,-2.636,-2.5676,-2.5174,-2.5566,-2.62,-2.6953,-2.6992,-2.7549,-2.8232,-2.8281,-2.8291,-2.8291,-2.8291,-2.8291,-2.8398,-2.8926,-2.9951,-3.0889,-3.0889,-3.0889,-3.0889,-3.0889,-3.0889,-3.0889,-3.0889,-3.0889,-3.0889,-3.0889,-3.0889,-3.0889,-3.0889,-3.0889,-3.0889,-3.0889,-3.0889,-3.0889,-3.0889,-3.0889,-3.0889,-3.0889,-3.0889,-3.0889,-3.0889,-3.0889,-3.0889,-3.0889,-3.0889,-3.0889,-3.0889,-3.0889,-3.0889,-3.0889,-3.0889,-3.0889,-3.0889,-3.084,-3.041,-2.9629,-2.9141,-2.8916,0.0,0.0,0.0,0.0,0.0,0.0,-1.3174,-1.3389,-1.3578,0.0,0.0,0.0,0.0,0.0,0.0,0.0,0.0,0.0,0.0,0.0,0.0,0.0,0.0,0.0,0.0,0.0,-1.9844,-2.0264,-2.0625,-2.083,-2.0742,-2.0654,-2.0644,-2.0693,-2.1834,-2.2548,-2.2817,-2.4061,-2.5554,-2.7311,-2.7418,-2.8264,-2.9792,-2.9573,-2.9495,-2.9495,-2.9495,-2.9495,-2.9495,-2.9495,-2.855,-2.7032,-2.636,-2.5676,-2.5174,-2.5566,-2.6064,-2.6562,-2.6894,-2.7353,-2.7894,-2.8184,-2.8291,-2.8291,-2.8291,-2.8291,-2.831,-2.8428,-2.9639,-3.0889,-3.0889,-3.0889,-3.0889,-3.0889,-3.0889,-3.0889,-3.0889,-3.0889,-3.0889,-3.0889,-3.0889,-3.0889,-3.0889,-3.0889,-3.0889,-3.0889,-3.0889,-3.0889,-3.0889,-3.0889,-3.0889,-3.0889,-3.0889,-3.0889,-3.0889,-3.0889,-3.0889,-3.0889,-3.0889,-3.0889,-3.0889,-3.0889,-3.0889,-3.0889,-3.0889,-3.0889,-3.0889,-3.0518,-3.0244,-3.0049,-2.9277,-2.8916,0.0,0.0,0.0,-1.483,0.0,0.0,0.0,-1.3672,-1.3734,0.0,0.0,0.0,0.0,0.0,0.0,0.0,0.0,0.0,0.0,0.0,0.0,0.0,0.0,0.0,0.0,0.0,-1.8916,-1.9551,-1.9805,-1.9959,-1.9959,-2.0637,-2.1011,-2.1011,-2.237,-2.3323,-2.3858,-2.4819,-2.6094,-2.7689,-2.7957,-2.8705,-2.9792,-2.9792,-2.9792,-2.9792,-2.9792,-2.9792,-2.9792,-2.9792,-2.8937,-2.7564,-2.7074,-2.6013,-2.4824,-2.5498,-2.6016,-2.6455,-2.6865,-2.7305,-2.7787,-2.8154,-2.8291,-2.8291,-2.8291,-2.8291,-2.835,-2.8643,-3.1123,-3.3191,-3.1374,-3.1337,-3.168,-3.1043,-3.0889,-3.0889,-3.0889,-3.0889,-3.0889,-3.0889,-3.0889,-3.0889,-3.0889,-3.0889,-3.0889,-3.0889,-3.0889,-3.0889,-3.0889,-3.0889,-3.0889,-3.0889,-3.0889,-3.0889,-3.0889,-3.0889,-3.0889,-3.0889,-3.0889,-3.0889,-3.0889,-3.0889,-3.0889,-3.0889,-3.0889,-3.0889,-3.0889,-3.0654,-3.042,-3.0185,-2.9756,-2.956,0.0,0.0,0.0,0.0,0.0,-1.4153,0.0,0.0,0.0,-1.3639,0.0,0.0,0.0,0.0,0.0,0.0,0.0,0.0,0.0,0.0,0.0,0.0,0.0,0.0,0.0,0.0,-1.8086,-1.8857,-1.9072,-1.916,-1.916,-2.0483,-2.1266,-2.1266,-2.2709,-2.3903,-2.4826,-2.5469,-2.6516,-2.7959,-2.8511,-2.9076,-2.9628,-2.9741,-2.9792,-2.9792,-2.9792,-2.9792,-2.9792,-2.9792,-2.9145,-2.8111,-2.808,-2.6819,-2.5183,-2.6097,-2.6659,-2.6991,-2.7271,-2.7586,-2.7972,-2.8231,-2.8291,-2.8291,-2.8291,-2.8548,-2.885,-2.8966,-3.2424,-3.5315,-3.211,-3.1958,-3.2409,-3.1522,-3.1112,-3.0889,-3.0889,-3.0889,-3.0889,-3.0889,-3.0889,-3.0889,-3.0889,-3.0889,-3.0889,-3.0889,-3.0889,-3.0889,-3.0889,-3.0889,-3.0889,-3.0889,-3.0889,-3.0889,-3.0889,-3.0889,-3.0889,-3.0889,-3.0889,-3.0889,-3.0889,-3.0889,-3.0889,-3.0889,-3.0889,-3.0889,-3.0889,-3.0889,-3.0703,-3.0332,-3.0234,-3.0195,0.0,0.0,0.0,0.0,-1.7006,0.0,0.0,0.0,-1.5281,-1.3791,0.0,0.0,0.0,0.0,0.0,0.0,0.0,0.0,0.0,0.0,0.0,0.0,0.0,0.0,0.0,0.0,0.0,-1.7592,-1.8291,-1.8676,-1.8676,-1.9951,-2.0676,-2.0676,-2.2388,-2.3612,-2.428,-2.5163,-2.6211,-2.7381,-2.7934,-2.8486,-2.9001,-2.9566,-2.9792,-2.9792,-2.9792,-2.9792,-2.9792,-2.9792,-2.9145,-2.8191,-2.9041,-2.862,-2.7613,-2.8629,-2.9026,-2.9017,-2.8677,-2.8626,-2.8622,-2.8377,-2.8291,-2.8291,-2.8291,-2.9408,-3.038,-2.883,-3.147,-3.4404,-3.3009,-3.2456,-3.2347,-3.2746,-3.1883,-3.0889,-3.0889,-3.0889,-3.0889,-3.0889,-3.0889,-3.0889,-3.0889,-3.0889,-3.0889,-3.0889,-3.0889,-3.0889,-3.0889,-3.0889,-3.0889,-3.0889,-3.0889,-3.0889,-3.0889,-3.0889,-3.0889,-3.0889,-3.0889,-3.0889,-3.0889,-3.0889,-3.0889,-3.0889,-3.0889,-3.0889,-3.0889,-3.0889,-3.0859,-3.0801,-3.0391,-3.0195,0.0,0.0,0.0,0.0,0.0,0.0,0.0,0.0,-1.5523,0.0,0.0,0.0,0.0,0.0,0.0,0.0,0.0,0.0,0.0,0.0,0.0,0.0,0.0,0.0,0.0,0.0,0.0,0.0,0.0,-1.7333,-1.7772,-1.9671,-2.0908,-2.1339,-2.3191,-2.4296,-2.4541,-2.5249,-2.6,-2.6851,-2.7682,-2.8398,-2.8913,-2.9528,-2.9792,-2.9792,-2.9792,-2.9792,-2.9792,-2.9792,-2.9534,-2.914,-2.9873,-2.9236,-2.7963,-2.8668,-2.9115,-2.9357,-2.8949,-2.8783,-2.874,-2.841,-2.8291,-2.8291,-2.8291,-2.9555,-3.0826,-3.0084,-3.2643,-3.53,-3.407,-3.4055,-3.4088,-3.3282,-3.2644,-3.193,-3.1054,-3.0889,-3.0889,-3.0889,-3.0889,-3.0889,-3.0889,-3.0889,-3.0889,-3.0889,-3.0889,-3.0889,-3.0889,-3.0889,-3.0889,-3.0889,-3.0889,-3.0889,-3.0889,-3.0889,-3.0889,-3.0889,-3.0889,-3.0889,-3.0889,-3.0889,-3.0889,-3.0889,-3.0889,-3.0889,-3.0889,-3.0889,-3.0889,-3.0889,-3.0693,-3.0605,-2.1267,0.0,0.0,0.0,0.0,0.0,0.0,0.0,0.0,0.0,0.0,0.0,0.0,0.0,0.0,0.0,0.0,0.0,0.0,0.0,0.0,0.0,0.0,0.0,0.0,0.0,0.0,0.0,-1.5782,-1.6238,-1.6965,-1.9135,-2.0725,-2.1621,-2.3392,-2.4474,-2.4788,-2.5335,-2.5887,-2.6512,-2.7582,-2.831,-2.8725,-2.9465,-2.9792,-2.9792,-2.9792,-2.9792,-2.9792,-2.9792,-2.9792,-2.9842,-3.0407,-2.991,-2.8935,-2.9413,-2.9699,-2.9817,-2.9472,-2.905,-2.8686,-2.8795,-2.8601,-2.8398,-2.8751,-3.0016,-3.13,-3.0937,-3.3519,-3.5987,-3.4147,-3.4438,-3.4847,-3.3452,-3.2804,-3.2197,-3.1112,-3.0889,-3.0889,-3.0889,-3.0889,-3.0889,-3.0889,-3.0889,-3.0889,-3.0889,-3.0889,-3.0889,-3.0889,-3.0889,-3.0889,-3.0889,-3.0889,-3.0889,-3.0889,-3.0889,-3.0889,-3.0889,-3.0889,-3.0889,-3.0889,-3.0889,-3.0889,-3.0889,-3.0889,-3.0889,-3.0889,-3.0889,-3.0889,-3.0889,-3.0889,-3.0889,0.0,0.0,0.0,-2.0815,0.0,0.0,0.0,0.0,-1.8283,0.0,0.0,0.0,0.0,0.0,-1.2641,-1.1802,0.0,0.0,0.0,0.0,0.0,0.0,0.0,0.0,0.0,0.0,0.0,-1.4163,-1.4933,-1.5739,-1.6485,-1.8211,-1.9741,-2.0979,-2.2413,-2.3684,-2.4775,-2.5335,-2.5887,-2.6512,-2.7582,-2.8109,-2.8172,-2.9289,-2.9792,-2.9792,-2.9792,-2.9792,-2.9792,-2.9792,-2.9792,-2.9842,-3.0407,-3.0894,-3.1367,-3.1876,-3.1663,-3.1097,-3.0765,-2.9621,-2.8509,-2.9807,-2.9355,-2.8548,-2.9859,-3.1173,-3.1988,-3.0691,-3.3243,-3.5708,-3.2679,-3.2759,-3.3566,-3.3183,-3.1988,-3.0947,-3.0889,-3.0889,-3.0889,-3.0889,-3.0889,-3.0889,-3.0889,-3.0889,-3.0889,-3.0889,-3.0889,-3.0889,-3.0889,-3.0889,-3.0889,-3.0889,-3.0889,-3.0889,-3.0889,-3.0889,-3.0889,-3.0889,-3.0889,-3.0889,-3.0889,-3.0889,-3.0889,-3.0889,-3.0889,-3.0889,-3.0889,-3.0889,-3.0889,-3.0889,-3.0889,-3.0889,0.0,0.0,-2.2506,-2.2347,0.0,0.0,0.0,0.0,0.0,0.0,0.0,0.0,0.0,0.0,-1.3203,-1.2925,-1.2627,-1.2441,0.0,0.0,0.0,0.0,0.0,0.0,0.0,0.0,0.0,-1.4241,-1.4202,-1.4809,0.0,-1.7931,-1.9378,-2.0776,-2.2675,-2.3891,-2.4268,-2.5159,-2.5686,-2.5933,-2.703,-2.7758,-2.8134,-2.8888,-2.9428,-2.9792,-2.9792,-2.9792,-2.9792,-2.9792,-2.9792,-2.9842,-3.0407,-3.0934,-3.1449,-3.2001,-3.2299,-3.2299,-3.1095,-2.9642,-2.8398,-2.8857,-2.8644,-2.8398,-2.8847,-2.9911,-3.0865,-3.0421,-3.1927,-3.3623,-3.3238,-3.344,-3.363,-3.3183,-3.269,-3.2092,-3.1112,-3.0889,-3.0889,-3.0889,-3.0889,-3.0889,-3.0889,-3.0889,-3.0889,-3.0889,-3.0889,-3.0889,-3.0889,-3.0889,-3.0889,-3.0889,-3.0889,-3.0889,-3.0889,-3.0889,-3.0889,-3.0889,-3.0889,-3.0889,-3.0889,-3.0889,-3.0889,-3.0889,-3.0889,-3.0889,-3.0889,-3.0889,-3.0889,-3.0889,-3.0889,-3.0889,-2.3007,-2.3108,0.0,-2.2857,-2.2309,0.0,-2.0941,0.0,0.0,0.0,0.0,0.0,0.0,0.0,-1.4378,-1.3912,-1.323,-1.2799,0.0,-1.2905,0.0,0.0,0.0,0.0,0.0,0.0,-1.3446,-1.4139,-1.3975,-1.4698,0.0,0.0,-1.9353,-2.0941,-2.2736,-2.3879,-2.4293,-2.5159,-2.5699,-2.5912,-2.6876,-2.757,-2.8122,-2.8674,-2.9252,-2.9792,-2.9792,-2.9792,-2.9792,-2.9792,-2.9792,-2.9867,-3.0595,-3.1097,-3.1449,-3.2001,-3.2111,-3.1863,-3.1069,-2.9598,-2.8202,-2.8807,-2.8698,-2.8398,-2.8847,-2.9608,-3.0317,-3.0317,-3.1276,-3.2301,-3.2297,-3.2641,-3.289,-3.2426,-3.2311,-3.2045,-3.1112,-3.0889,-3.0889,-3.0889,-3.0889,-3.0889,-3.0889,-3.0889,-3.0889,-3.0889,-3.0889,-3.0889,-3.0889,-3.0889,-3.0889,-3.0889,-3.0889,-3.0889,-3.0889,-3.0889,-3.0889,-3.0889,-3.0889,-3.0889,-3.0889,-3.0889,-3.0957,-3.1113,-3.0967,-3.0967,-3.1113,-3.0967,-3.0889,-3.0889,-3.0889,-3.0889]},{"header":{"parameterUnit":"m.s-1","parameterCategory":1,"la1":30.6,"la2":29.2853,"lo1":-89.7004,"lo2":-87.6739,"dy":0.0162,"dx":0.0183,"nx":112,"ny":82,"refTime":"2023-07-14T12:00:00:Z","depth":0,"parameterNumber":3,"parameterNumberName":"V-component_of_WINDS"},"data":[0.0,0.0,0.0,0.0,0.0,0.0,0.0,0.0,0.0,0.0,0.0,0.0,0.0,0.0,0.0,0.0,0.0,0.0,0.0,0.0,0.0,0.0,0.0,0.0,0.0,0.0,0.0,0.0,0.0,0.0,0.0,0.0,0.0,0.0,0.0,0.0,0.0,0.0,0.0,0.0,0.0,0.0,0.0,0.0,0.0,0.0,0.0,0.0,0.0,0.0,0.0,0.0,0.0,0.0,0.0,0.0,0.0,0.0,0.0,0.0,0.0,0.0,0.0,0.0,0.0,0.0,0.0,0.0,0.0,0.0,0.0,0.0,0.0,0.0,0.0,0.0,0.0,0.0,0.0,0.0,0.0,0.0,0.0,0.0,0.0,0.0,0.0,0.0,0.0,0.0,0.0,-2.0538,-2.5085,-2.7858,-2.7976,-2.7097,-2.4391,-1.9384,0.0,0.0,0.0,0.0,0.0,0.0,0.0,0.0,0.0,0.0,0.0,0.0,0.0,0.0,0.0,0.0,0.0,0.0,0.0,0.0,0.0,0.0,0.0,0.0,0.0,0.0,0.0,0.0,0.0,0.0,0.0,0.0,0.0,0.0,0.0,0.0,0.0,0.0,0.0,0.0,0.0,0.0,0.0,0.0,0.0,0.0,0.0,0.0,0.0,0.0,0.0,0.0,0.0,0.0,0.0,0.0,0.0,0.0,0.0,0.0,0.0,0.0,0.0,0.0,0.0,0.0,0.0,0.0,0.0,0.0,0.0,0.0,0.0,0.0,0.0,0.0,0.0,0.0,0.0,0.0,0.0,0.0,0.0,0.0,0.0,0.0,0.0,0.0,0.0,0.0,0.0,0.0,0.0,0.0,0.0,0.0,0.0,0.0,0.0,0.0,0.0,0.0,0.0,0.0,-1.9333,-2.5067,-2.6945,-2.8077,-2.8773,-2.6945,-2.4071,-2.0069,0.0,0.0,0.0,0.0,0.0,0.0,0.0,0.0,0.0,0.0,0.0,0.0,0.0,0.0,0.0,0.0,0.0,0.0,0.0,0.0,0.0,0.0,0.0,0.0,0.0,0.0,0.0,0.0,0.0,0.0,0.0,0.0,0.0,0.0,0.0,0.0,0.0,0.0,0.0,0.0,0.0,0.0,0.0,0.0,0.0,0.0,0.0,0.0,0.0,0.0,0.0,0.0,0.0,0.0,0.0,0.0,0.0,0.0,0.0,0.0,0.0,0.0,0.0,0.0,0.0,0.0,0.0,0.0,0.0,0.0,0.0,0.0,0.0,0.0,0.0,0.0,0.0,0.0,0.0,0.0,0.0,0.0,0.0,0.0,0.0,0.0,0.0,0.0,0.0,0.0,0.0,0.0,0.0,0.0,0.0,0.0,0.0,0.0,0.0,0.0,0.0,0.0,0.0,-1.9052,-2.3147,-2.6911,-2.7994,-2.8602,-2.8976,-2.6911,-2.4003,-2.0238,-1.8932,0.0,0.0,0.0,0.0,0.0,0.0,0.0,0.0,0.0,0.0,0.0,0.0,0.0,0.0,0.0,0.0,0.0,0.0,0.0,0.0,0.0,0.0,0.0,0.0,0.0,0.0,0.0,0.0,0.0,0.0,0.0,0.0,0.0,0.0,0.0,0.0,0.0,0.0,0.0,0.0,0.0,0.0,0.0,0.0,0.0,0.0,0.0,0.0,0.0,0.0,0.0,0.0,0.0,0.0,0.0,0.0,0.0,0.0,0.0,0.0,0.0,0.0,0.0,0.0,0.0,0.0,0.0,0.0,0.0,0.0,0.0,0.0,0.0,0.0,0.0,0.0,0.0,0.0,0.0,0.0,0.0,0.0,0.0,0.0,0.0,0.0,0.0,0.0,0.0,0.0,0.0,0.0,0.0,0.0,0.0,0.0,0.0,0.0,0.0,0.0,0.0,0.0,-2.1991,-2.5103,-2.708,-2.7994,-2.8468,-2.8468,-2.6539,-2.3748,-1.998,-1.8527,0.0,0.0,0.0,0.0,0.0,0.0,0.0,0.0,0.0,0.0,0.0,0.0,0.0,0.0,0.0,0.0,0.0,0.0,0.0,0.0,0.0,0.0,0.0,0.0,0.0,0.0,0.0,0.0,0.0,0.0,0.0,0.0,0.0,0.0,0.0,0.0,0.0,0.0,0.0,0.0,0.0,0.0,0.0,0.0,0.0,0.0,0.0,0.0,0.0,0.0,0.0,0.0,0.0,0.0,0.0,0.0,0.0,0.0,0.0,0.0,0.0,0.0,0.0,0.0,0.0,0.0,0.0,0.0,0.0,0.0,0.0,0.0,0.0,0.0,0.0,0.0,0.0,0.0,0.0,0.0,0.0,0.0,0.0,0.0,0.0,0.0,0.0,0.0,0.0,0.0,0.0,0.0,0.0,0.0,0.0,0.0,0.0,0.0,0.0,0.0,0.0,0.0,-2.0581,-2.3323,-2.5524,-2.642,-2.686,-2.686,-2.5455,-2.2984,-1.9198,-1.8251,0.0,0.0,0.0,0.0,0.0,0.0,0.0,0.0,0.0,0.0,0.0,0.0,0.0,0.0,0.0,0.0,0.0,0.0,0.0,0.0,0.0,0.0,0.0,0.0,0.0,0.0,0.0,0.0,0.0,0.0,0.0,0.0,0.0,0.0,0.0,0.0,0.0,0.0,0.0,0.0,0.0,0.0,0.0,0.0,0.0,0.0,0.0,0.0,0.0,0.0,0.0,0.0,0.0,0.0,0.0,0.0,0.0,0.0,0.0,0.0,0.0,0.0,0.0,0.0,0.0,0.0,0.0,0.0,0.0,0.0,0.0,0.0,0.0,0.0,0.0,0.0,0.0,0.0,0.0,0.0,0.0,0.0,0.0,0.0,0.0,0.0,0.0,0.0,0.0,0.0,0.0,0.0,0.0,0.0,0.0,0.0,0.0,0.0,0.0,0.0,0.0,0.0,-2.1773,-2.4391,0.0,-2.5862,-2.6015,-2.6015,-2.4661,-2.2409,-1.9096,0.0,0.0,0.0,0.0,0.0,0.0,0.0,0.0,0.0,0.0,0.0,0.0,0.0,0.0,0.0,0.0,0.0,0.0,0.0,0.0,0.0,0.0,0.0,0.0,0.0,0.0,0.0,0.0,0.0,0.0,0.0,0.0,0.0,0.0,0.0,0.0,0.0,0.0,0.0,0.0,0.0,0.0,0.0,0.0,0.0,0.0,0.0,0.0,0.0,0.0,0.0,0.0,0.0,0.0,0.0,0.0,0.0,0.0,0.0,0.0,0.0,0.0,0.0,0.0,0.0,0.0,0.0,0.0,0.0,0.0,0.0,0.0,0.0,0.0,0.0,0.0,0.0,0.0,0.0,0.0,0.0,0.0,0.0,0.0,0.0,0.0,0.0,0.0,0.0,0.0,0.0,0.0,0.0,0.0,0.0,0.0,0.0,0.0,0.0,0.0,0.0,0.0,-1.8743,-2.2108,-2.4592,0.0,-2.5118,-2.5169,-2.4932,-2.3985,-2.2006,-1.8758,0.0,0.0,0.0,0.0,0.0,0.0,0.0,0.0,0.0,0.0,0.0,0.0,0.0,0.0,0.0,0.0,0.0,0.0,0.0,0.0,0.0,0.0,0.0,0.0,0.0,0.0,0.0,0.0,0.0,0.0,0.0,0.0,0.0,0.0,0.0,0.0,0.0,0.0,0.0,0.0,0.0,0.0,0.0,0.0,0.0,0.0,0.0,0.0,0.0,0.0,0.0,0.0,0.0,0.0,0.0,0.0,0.0,0.0,0.0,0.0,0.0,0.0,0.0,0.0,0.0,0.0,0.0,0.0,0.0,0.0,0.0,0.0,0.0,0.0,0.0,0.0,0.0,0.0,0.0,0.0,0.0,0.0,0.0,0.0,0.0,0.0,0.0,0.0,0.0,0.0,0.0,0.0,0.0,0.0,0.0,0.0,0.0,0.0,0.0,0.0,0.0,0.0,-1.7867,-2.1075,-2.3376,-2.3376,-2.4051,-2.4186,-2.3444,-2.3376,-2.1786,0.0,0.0,0.0,0.0,0.0,0.0,0.0,0.0,0.0,0.0,0.0,0.0,0.0,0.0,0.0,0.0,0.0,0.0,0.0,0.0,0.0,0.0,0.0,0.0,0.0,0.0,0.0,0.0,0.0,0.0,0.0,0.0,0.0,0.0,0.0,0.0,0.0,0.0,0.0,0.0,0.0,0.0,0.0,0.0,0.0,0.0,0.0,0.0,0.0,0.0,0.0,0.0,0.0,0.0,0.0,0.0,0.0,0.0,0.0,0.0,0.0,0.0,0.0,0.0,0.0,0.0,0.0,0.0,0.0,0.0,0.0,0.0,0.0,0.0,0.0,0.0,0.0,0.0,0.0,0.0,0.0,0.0,0.0,0.0,0.0,0.0,0.0,0.0,0.0,0.0,0.0,0.0,0.0,0.0,0.0,0.0,0.0,0.0,0.0,0.0,0.0,0.0,0.0,0.0,-2.0811,-2.2617,-2.2617,-2.2818,-2.2868,-2.2634,-2.2617,-2.1231,-1.8003,0.0,0.0,0.0,0.0,0.0,0.0,0.0,0.0,0.0,0.0,0.0,0.0,0.0,0.0,0.0,0.0,0.0,0.0,0.0,0.0,0.0,0.0,0.0,0.0,0.0,0.0,0.0,0.0,0.0,0.0,0.0,0.0,0.0,0.0,0.0,0.0,0.0,0.0,0.0,0.0,0.0,0.0,0.0,0.0,0.0,0.0,0.0,0.0,0.0,0.0,0.0,0.0,0.0,0.0,0.0,0.0,0.0,0.0,0.0,0.0,0.0,0.0,0.0,0.0,0.0,0.0,0.0,0.0,0.0,0.0,0.0,0.0,0.0,0.0,0.0,0.0,0.0,0.0,0.0,0.0,0.0,0.0,0.0,0.0,0.0,0.0,0.0,0.0,0.0,0.0,0.0,0.0,0.0,0.0,0.0,0.0,0.0,0.0,0.0,0.0,0.0,0.0,-1.9054,-2.1454,-2.3054,-2.2784,-2.275,-2.2632,-2.233,-2.2296,-2.1265,-1.8831,0.0,0.0,0.0,0.0,0.0,0.0,0.0,0.0,0.0,0.0,0.0,0.0,0.0,0.0,0.0,0.0,0.0,0.0,0.0,0.0,0.0,0.0,0.0,0.0,0.0,0.0,0.0,0.0,0.0,0.0,0.0,0.0,0.0,0.0,0.0,0.0,0.0,0.0,0.0,0.0,0.0,0.0,0.0,0.0,0.0,0.0,0.0,0.0,0.0,0.0,0.0,0.0,0.0,0.0,0.0,0.0,0.0,0.0,0.0,0.0,0.0,0.0,0.0,0.0,0.0,0.0,0.0,0.0,0.0,0.0,0.0,0.0,0.0,0.0,0.0,0.0,0.0,0.0,0.0,0.0,0.0,0.0,0.0,0.0,0.0,0.0,0.0,0.0,0.0,0.0,0.0,0.0,0.0,0.0,0.0,0.0,0.0,0.0,0.0,0.0,0.0,0.0,-2.011,-2.266,-2.4237,-2.3577,-2.3494,-2.3224,-2.2564,-2.2499,-2.1823,-2.0217,0.0,0.0,0.0,0.0,0.0,0.0,0.0,0.0,0.0,0.0,0.0,0.0,0.0,0.0,0.0,0.0,0.0,0.0,0.0,0.0,0.0,0.0,0.0,0.0,0.0,0.0,0.0,0.0,0.0,0.0,0.0,0.0,0.0,0.0,0.0,0.0,0.0,0.0,0.0,0.0,0.0,0.0,0.0,0.0,0.0,0.0,0.0,0.0,0.0,0.0,0.0,0.0,0.0,0.0,0.0,0.0,0.0,0.0,0.0,0.0,-2.0342,0.0,0.0,0.0,0.0,0.0,0.0,0.0,0.0,0.0,0.0,0.0,0.0,0.0,0.0,0.0,0.0,0.0,0.0,0.0,0.0,0.0,0.0,0.0,0.0,0.0,0.0,0.0,0.0,0.0,0.0,0.0,0.0,0.0,0.0,0.0,0.0,0.0,0.0,0.0,0.0,0.0,-2.0547,-2.2867,-2.444,-2.4271,-2.4271,-2.4203,-2.4051,-2.4034,-2.3154,-2.1059,0.0,0.0,0.0,0.0,0.0,0.0,0.0,0.0,0.0,0.0,0.0,0.0,0.0,0.0,0.0,0.0,0.0,0.0,0.0,0.0,0.0,0.0,0.0,0.0,0.0,0.0,0.0,0.0,0.0,0.0,0.0,0.0,0.0,0.0,0.0,0.0,0.0,0.0,0.0,0.0,0.0,0.0,0.0,0.0,0.0,0.0,0.0,0.0,0.0,0.0,0.0,0.0,0.0,0.0,0.0,0.0,0.0,0.0,0.0,0.0,0.0,-2.1757,0.0,0.0,0.0,0.0,0.0,0.0,0.0,0.0,0.0,0.0,0.0,0.0,0.0,0.0,0.0,0.0,0.0,0.0,0.0,0.0,0.0,0.0,0.0,0.0,0.0,0.0,0.0,0.0,0.0,0.0,0.0,0.0,0.0,0.0,0.0,0.0,0.0,0.0,0.0,0.0,-2.1492,-2.386,-2.5422,-2.5067,-2.5033,-2.4897,-2.4525,-2.4491,-2.4,-2.2849,-2.1783,0.0,0.0,0.0,0.0,0.0,0.0,0.0,0.0,0.0,0.0,0.0,0.0,0.0,0.0,0.0,0.0,0.0,0.0,0.0,0.0,0.0,0.0,0.0,0.0,0.0,0.0,0.0,0.0,0.0,0.0,0.0,0.0,0.0,0.0,0.0,0.0,0.0,0.0,0.0,0.0,0.0,0.0,0.0,0.0,0.0,0.0,0.0,0.0,0.0,0.0,0.0,0.0,0.0,0.0,-3.0058,-2.9697,-3.063,-3.0584,-2.9611,-2.709,-2.5976,-2.5854,0.0,0.0,0.0,0.0,0.0,0.0,0.0,0.0,0.0,0.0,0.0,0.0,0.0,0.0,0.0,0.0,0.0,0.0,0.0,0.0,0.0,0.0,0.0,0.0,0.0,-2.7435,-2.6968,0.0,0.0,0.0,0.0,0.0,0.0,0.0,0.0,0.0,0.0,0.0,0.0,-2.2623,-2.5217,-2.681,-2.6049,-2.5981,-2.5693,-2.4948,-2.488,-2.4829,-2.4694,-2.2984,-2.2107,0.0,0.0,0.0,0.0,0.0,0.0,0.0,0.0,0.0,0.0,0.0,0.0,0.0,0.0,0.0,0.0,0.0,0.0,0.0,0.0,0.0,0.0,0.0,0.0,0.0,0.0,0.0,0.0,0.0,0.0,0.0,0.0,-2.1961,-2.3051,0.0,0.0,0.0,0.0,0.0,0.0,0.0,0.0,0.0,0.0,0.0,0.0,0.0,0.0,-2.9384,-3.1198,-3.2298,-3.266,-3.3053,-3.3765,-3.4772,-3.6176,-3.621,-3.5079,-3.3437,0.0,-2.9186,-2.8137,0.0,0.0,0.0,0.0,0.0,0.0,0.0,0.0,0.0,0.0,0.0,0.0,0.0,0.0,0.0,0.0,0.0,0.0,0.0,0.0,0.0,0.0,-3.1442,-3.1744,-3.1613,-3.142,0.0,-2.7389,-2.405,-2.5212,0.0,0.0,0.0,0.0,0.0,0.0,0.0,0.0,-2.3666,-2.6568,-2.84,-2.7604,-2.7519,-2.7198,-2.6471,-2.6404,-2.6133,-2.5507,-2.5186,-2.4492,-2.3291,-2.378,0.0,0.0,0.0,0.0,0.0,0.0,0.0,0.0,0.0,0.0,0.0,0.0,0.0,0.0,0.0,0.0,0.0,0.0,0.0,0.0,0.0,0.0,0.0,0.0,0.0,0.0,0.0,0.0,0.0,-2.2241,-2.3839,-2.3452,-2.42,-2.3489,0.0,0.0,0.0,0.0,0.0,0.0,0.0,0.0,0.0,-2.9017,-3.0948,-3.2498,-3.361,-3.6656,-3.8202,-3.8235,-3.9383,-4.0291,-4.1003,-4.1646,-4.1831,-4.1597,-4.0651,-3.8858,-3.6366,-3.2696,-3.0654,-2.9641,0.0,0.0,0.0,0.0,0.0,-2.7394,-2.8425,0.0,0.0,0.0,0.0,0.0,0.0,0.0,0.0,0.0,0.0,0.0,0.0,0.0,0.0,-3.5655,-3.5593,-3.5092,-3.4752,-3.1417,-2.8388,0.0,-2.7143,-2.5751,-2.3749,0.0,0.0,0.0,0.0,0.0,-2.5475,-2.7504,-2.8874,-2.8518,-2.8467,-2.8163,-2.7367,-2.7334,-2.6995,-2.6268,-2.5845,-2.5507,-2.5253,-2.5169,-2.4611,0.0,0.0,0.0,0.0,0.0,0.0,0.0,0.0,0.0,0.0,0.0,0.0,0.0,0.0,0.0,0.0,0.0,0.0,0.0,0.0,0.0,0.0,0.0,0.0,0.0,0.0,0.0,0.0,-2.3898,-2.5673,-2.4532,-2.6615,-2.6488,0.0,0.0,0.0,0.0,0.0,0.0,-2.9485,-3.0193,-3.1512,-3.3599,-3.6058,-3.77,-3.8435,-4.1817,-4.3314,-4.2945,-4.4764,-4.5443,-4.5112,-4.5663,-4.5902,-4.5883,-4.548,-4.4397,-4.2506,-3.7006,-3.4173,-3.3146,-3.199,-3.0247,-2.8283,-2.7672,-2.8718,-3.0691,-3.2272,-3.4182,-3.5842,-3.5198,0.0,-3.4307,-3.201,0.0,0.0,0.0,0.0,-3.1983,-3.4548,0.0,-3.6431,-3.8258,-3.8395,-3.7841,-3.6831,-3.475,-3.2592,0.0,-2.9804,-2.825,-2.5503,0.0,0.0,0.0,0.0,-2.7435,-2.703,-2.8484,-2.9501,-2.9314,-2.9281,-2.8958,-2.8162,-2.8094,-2.7791,-2.7029,-2.6657,-2.6539,-2.6691,-2.6556,-2.6031,0.0,0.0,0.0,0.0,0.0,0.0,0.0,0.0,0.0,0.0,0.0,0.0,0.0,0.0,0.0,0.0,0.0,0.0,0.0,0.0,0.0,0.0,0.0,0.0,0.0,0.0,0.0,0.0,0.0,0.0,-2.7085,-3.1503,0.0,0.0,0.0,0.0,-2.8118,-2.9493,-3.1289,-3.3235,-3.5423,-3.8214,-4.1611,-4.3333,-4.4599,-4.5388,-4.636,-4.647,-4.5718,-4.7352,-4.7058,-4.5168,-4.7205,-4.7315,-4.5902,-4.5865,-4.5792,-4.5314,-4.0435,-3.8398,-3.8138,-3.6046,-3.4375,-3.2619,-2.8121,-2.984,-3.4448,-3.4685,-3.6413,-3.8634,-3.9334,-3.8542,-3.6919,-3.4894,-3.3937,0.0,0.0,-3.4546,-3.5937,-3.5791,-3.7698,-3.9481,-3.8854,-3.9239,-3.9347,-3.7786,-3.6431,-3.5025,0.0,-3.1819,-3.056,-2.988,0.0,-2.912,-2.6298,-2.7605,-2.862,-2.7841,-2.9702,-3.0818,-3.0125,-3.004,-2.9736,-2.901,-2.8942,-2.8602,-2.7807,-2.8416,-2.8197,-2.6776,-2.8079,-2.813,-2.6607,-2.5896,0.0,0.0,0.0,0.0,0.0,0.0,0.0,0.0,0.0,0.0,0.0,0.0,0.0,0.0,0.0,0.0,0.0,0.0,0.0,0.0,0.0,0.0,0.0,0.0,0.0,0.0,0.0,0.0,-3.1855,-3.5071,0.0,0.0,-3.3825,-3.4233,-3.3332,-3.631,-3.8921,-4.0663,-4.2514,-4.4326,-4.6122,-4.726,-4.7957,-4.8214,-4.9058,-4.9517,-4.9572,-4.9811,-4.9701,-4.926,-4.86,-4.8398,-4.8508,-4.7755,-4.7443,-4.7315,-4.559,-4.3663,-4.1607,-3.9808,-3.8606,-3.7668,-3.5979,-3.6593,-3.84,-3.915,-4.0443,-4.1827,-4.2121,-4.0891,-3.904,-3.7634,-3.7094,-3.7041,-3.7464,-3.8077,-3.8839,-3.9751,-4.0716,-4.1497,-4.1735,-4.1607,-4.1001,-3.9402,-3.83,-3.7147,-3.5509,-3.3467,-3.1709,-3.0833,-3.0995,-3.0434,-2.8011,-2.9639,-3.0855,-3.0091,-3.1106,-3.1633,-3.0886,-3.0818,-3.0514,-2.977,-2.9702,-2.9381,-2.8619,-2.884,-2.8756,-2.8197,-2.8705,-2.8739,-2.8197,-2.7909,-2.6708,0.0,0.0,0.0,0.0,0.0,0.0,0.0,0.0,0.0,0.0,0.0,0.0,0.0,0.0,0.0,0.0,0.0,0.0,0.0,0.0,0.0,0.0,0.0,0.0,0.0,0.0,-3.4214,-3.5693,-3.9059,-4.0346,-3.7985,-3.8903,-3.9707,-3.9739,-4.2585,-4.4929,-4.6287,-4.737,-4.8324,-4.9132,-4.9701,-4.9976,-4.9939,-5.0784,-5.1261,-5.1334,-5.1518,-5.1518,-5.1298,-5.038,-4.9774,-4.9389,-4.8636,-4.8306,-4.8306,-4.8306,-4.704,-4.4911,-4.2745,-4.1699,-4.1387,-4.1387,-4.1387,-4.1479,-4.2176,-4.2909,-4.3515,-4.3515,-4.2543,-4.1258,-4.0543,-4.0322,-4.0432,-4.0946,-4.1111,-4.135,-4.2433,-4.269,-4.2763,-4.302,-4.269,-4.1937,-4.0598,-3.9143,-3.7979,-3.7591,-3.5529,-3.3276,-3.1473,-3.145,-3.0836,-2.8282,-2.9327,-3.0228,-2.9736,-3.0567,-3.0939,-3.026,-3.0801,-3.1004,-3.0514,-2.9768,-2.9347,-2.9364,-2.8873,-2.8722,-2.8993,-2.8756,-2.8349,-2.7859,-2.7114,-2.6132,-2.488,0.0,0.0,0.0,0.0,0.0,0.0,0.0,0.0,0.0,0.0,0.0,0.0,0.0,0.0,0.0,0.0,0.0,0.0,0.0,0.0,0.0,0.0,0.0,-2.7965,-3.4709,-3.9319,-3.8616,-4.3687,-4.6305,-4.3938,-4.5847,-4.7223,-4.7223,-4.7957,-4.8783,-4.9629,-4.9609,-4.9938,-5.0763,-5.0745,-5.0745,-5.0782,-5.161,-5.1646,-5.0894,-5.2472,-5.238,-5.093,-5.2491,-5.1463,-4.8415,-4.8065,-4.8047,-4.8306,-4.8306,-4.8306,-4.7994,-4.4856,-4.3662,-4.3643,-4.3589,-4.3588,-4.3588,-4.3533,-4.3515,-4.3515,-4.3515,-4.3515,-4.3515,-4.3515,-4.3515,-4.3515,-4.3515,-4.3515,-4.3515,-4.3515,-4.3515,-4.3313,-4.2525,-4.2341,-4.2121,-4.1297,-3.8984,-3.7653,-3.9543,-3.8028,-3.54,-3.2217,-3.1631,-3.0534,-2.7418,-2.6962,0.0,-2.6928,-2.8231,-2.8959,-2.8399,-3.0006,-3.1123,-3.119,-2.9125,-2.8483,-3.004,-2.8737,-2.8264,-2.9044,-2.8332,-2.7232,-2.5795,-2.3615,-2.3564,-2.5694,0.0,0.0,0.0,0.0,0.0,0.0,0.0,0.0,0.0,0.0,0.0,0.0,0.0,0.0,0.0,0.0,0.0,0.0,0.0,0.0,0.0,0.0,-3.6023,-3.6224,-3.9126,-4.2521,-4.5993,-4.8414,-4.9517,-4.8857,-4.9389,-4.9793,-4.9793,-5.0527,-5.1077,-5.1336,-4.9875,-4.9377,-5.0115,-4.9628,-4.9613,-5.0134,-5.1956,-5.2766,-5.2564,-5.2983,-5.2986,-5.2564,-5.3004,-5.2708,-5.1381,-4.2814,-4.259,-4.8306,-4.8306,-4.8306,-4.8214,-4.7333,-4.6985,-4.6838,-4.5663,-4.548,-4.559,-4.4047,-4.3515,-4.3515,-4.3515,-4.3515,-4.3515,-4.3515,-4.3515,-4.3515,-4.3515,-4.3515,-4.3515,-4.3515,-4.3515,-4.3441,-4.3222,-4.3167,-4.2947,-4.2139,-4.1376,-4.0811,-4.0783,-3.9753,-3.8146,-3.5697,-3.4491,-3.358,-3.2704,-3.2445,0.0,-3.2176,-3.252,-3.2425,-3.1562,-3.0006,-2.9617,-3.1072,-2.9634,-2.9313,0.0,-3.0497,-3.0362,-3.0581,-3.0378,-3.0074,-2.9668,-2.801,-2.747,0.0,0.0,0.0,0.0,0.0,0.0,0.0,0.0,0.0,0.0,0.0,0.0,0.0,0.0,0.0,0.0,0.0,0.0,0.0,0.0,0.0,0.0,-3.7768,-4.234,-4.4876,-4.5461,-4.6981,-5.0617,-5.1499,-5.194,-5.2289,-5.2307,-5.2307,-5.2307,-5.2729,-5.2858,-5.2527,-5.1326,-5.0268,-4.9452,-5.0231,-5.0249,-4.9452,-5.1947,-5.3185,-5.3185,-5.3185,-5.3185,-5.3185,-5.3185,-5.3185,0.0,-4.4492,-4.3737,-4.8306,-4.8306,-4.8306,0.0,0.0,0.0,0.0,0.0,-4.5809,-4.4327,-4.4454,-4.436,-4.4102,-4.3662,-4.4103,-4.4745,-4.4322,-4.3264,-4.2245,-4.2245,-4.1155,-4.0248,-4.1425,-4.1733,-4.2041,-4.3223,-4.3515,-4.3369,-4.2892,-4.1873,-4.1145,-4.1519,-3.9989,0.0,-3.7818,-3.5862,-3.3986,-3.2843,-3.2399,-3.2159,-3.2046,-3.2562,-3.2713,-3.2138,-3.1055,-3.0937,-3.2324,-3.033,0.0,0.0,0.0,-2.9786,-2.9786,-3.0091,0.0,0.0,0.0,-2.8519,-2.9448,0.0,0.0,0.0,-2.7148,-2.6404,0.0,0.0,0.0,0.0,0.0,0.0,0.0,0.0,0.0,0.0,0.0,0.0,0.0,0.0,0.0,0.0,-4.2754,-4.7192,-5.2815,-5.2307,-5.1867,-5.3316,-5.3482,-5.3757,-5.4473,-5.4546,-5.4546,-5.4546,-5.4546,-5.4216,-5.3518,0.0,0.0,0.0,0.0,-5.167,-4.922,-5.1856,-5.324,-5.3335,-5.3243,-5.3185,-5.3185,-5.3185,-5.3185,-5.3038,-5.0123,-4.8655,-4.8306,-4.8306,-4.8306,-4.8306,-4.8306,-4.8306,-4.8306,-4.8306,-4.5549,-4.2048,-4.367,0.0,0.0,-4.4342,-4.5333,-4.6673,-4.5535,-4.3249,-4.0997,-4.087,-3.8524,-3.6624,-3.9114,-3.9762,-4.0411,-4.2914,-4.3515,-4.3515,-4.3515,-4.1551,-4.0302,-4.2089,-3.9692,-3.7789,-3.9098,-3.65,-3.3434,-3.0986,-3.016,-2.9867,-2.9906,-3.0966,-3.1698,-3.1698,0.0,0.0,-3.4138,-3.1159,-3.0161,-3.2293,-2.9922,-2.8432,-2.8432,-2.911,-2.8535,-2.6522,-2.7114,-2.845,-3.048,-3.048,-3.1475,-3.3305,-2.9313,-2.8197,0.0,0.0,0.0,0.0,0.0,0.0,0.0,0.0,0.0,0.0,0.0,0.0,0.0,0.0,0.0,-4.4537,-4.8689,-5.2556,-5.5662,-5.528,-5.4785,-5.5097,-5.5133,-5.5188,-5.5335,-5.5354,-5.5354,-5.5354,-5.5354,-5.5299,-5.5133,-5.2864,0.0,-5.1606,-5.098,-5.0943,-5.1606,-5.2678,-5.3537,-5.4161,0.0,0.0,-5.3185,-5.3185,-5.3185,-5.3148,-5.2546,-5.0765,-4.8306,-4.8306,-4.8306,-4.8306,-4.8306,-4.8306,-4.8306,-4.8306,-4.7698,-4.5658,-3.7018,-4.0028,-4.7664,-4.7443,-4.7664,-4.7719,-4.6195,-4.504,0.0,-4.3154,-4.2424,-4.2005,-4.2551,-4.2678,-4.2823,-4.3369,-4.3515,-4.3515,-4.3515,-4.3078,-4.2787,-4.3185,-4.1649,-4.0374,-4.065,-3.8712,-3.6927,-3.6392,-3.5549,-3.5119,-3.5567,-3.5095,-3.4737,-3.4737,-3.2882,-3.2307,-3.4053,-3.209,-3.1461,-3.3085,-3.2645,-3.2324,-3.2324,-3.2476,-3.2341,-3.1901,-3.2036,-3.2324,-3.2763,-3.2763,-3.2983,-3.3389,-3.251,-3.2273,0.0,0.0,0.0,0.0,0.0,0.0,0.0,0.0,0.0,0.0,0.0,-3.5511,0.0,0.0,-4.4698,-4.9382,-5.1602,-5.3945,-5.751,-5.7317,-5.6638,-5.6253,-5.5849,-5.5757,-5.6161,-5.6198,-5.6198,-5.6198,-5.6198,-5.6014,-5.5611,-5.4184,-5.2885,-5.1778,-5.2425,-5.2462,-5.176,-5.312,-5.4197,-5.4987,-5.3794,-5.3427,-5.3794,-5.339,-5.3185,-5.3185,-5.3185,-5.2268,-5.0637,-4.8985,-4.8306,-4.8306,-4.8306,-4.8306,-4.8306,-4.8306,-4.8306,-4.7476,-4.1727,-4.3514,-4.8306,-4.8306,-4.7205,-4.5755,-4.4929,-4.4892,-4.4984,-4.4452,-4.1881,-3.9618,-4.1026,-4.1406,-4.1751,-4.3151,-4.3515,-4.3515,-4.3515,-4.3515,-4.3515,-4.3515,-4.2525,-4.1597,-4.1302,-4.0039,-3.8708,-3.7703,-3.6666,-3.6097,-3.6357,-3.5924,-3.56,-3.56,-3.4264,-3.3812,-3.481,-3.3643,-3.3,-3.3389,-3.3406,-3.3406,-3.3406,-3.3744,-3.3947,-3.3947,-3.432,-3.4484,-3.4484,-3.4484,-3.4484,-3.4484,-3.4484,-3.4095,0.0,0.0,0.0,0.0,0.0,0.0,0.0,0.0,-3.5072,-3.6725,-3.8868,-4.1377,-4.4347,-4.5932,-4.8483,-5.3621,-5.4088,-5.5,-5.8477,-5.8547,-5.7886,-5.6914,-5.6363,-5.6308,-5.6969,-5.7042,-5.7042,-5.7042,-5.7042,-5.6748,-5.6088,-5.6073,-5.4983,-5.2599,-5.4686,-5.4759,-5.254,-5.3935,-5.5042,-5.5812,-5.4363,-5.3922,-5.4363,-5.3573,-5.3185,-5.3185,-5.3185,-5.2837,-5.205,-4.9389,-4.8306,-4.8306,-4.8306,-4.8306,-4.8306,-4.8306,-4.8306,-4.8306,-4.8306,-4.8306,-4.8214,-4.7572,-4.603,-4.4415,-4.4415,-4.5039,-4.559,-4.4966,-4.0903,-3.7249,-3.9528,-4.0122,-4.07,-4.295,-4.3515,-4.3515,-4.3515,-4.3515,-4.3462,-4.3356,-4.2681,-4.1939,-4.1355,-4.05,-3.9362,-3.7848,-3.6669,-3.5965,-3.5965,-3.5735,-3.56,-3.56,-3.56,-3.56,-3.56,-3.5064,-3.4455,-3.3863,-3.3846,-3.3846,-3.3846,-3.4404,-3.4709,-3.4709,-3.5295,-3.56,-3.56,-3.56,-3.56,-3.56,-3.56,-3.4957,-2.7444,-2.4621,-2.4322,-2.9432,-3.1131,-3.3375,0.0,0.0,-4.4894,-4.6862,-4.8922,-5.1161,-5.3649,-5.4818,-5.5861,-5.7286,-5.8624,-5.9174,-5.8272,-5.8676,-5.8487,-5.6987,-5.7354,-5.7758,-5.785,-5.7868,-5.7868,-5.7868,-5.7868,-5.7831,-5.774,-5.7721,-5.757,-5.7249,-5.6873,-5.6854,-5.7231,-5.6047,-5.5868,-5.6657,-5.5757,-5.4987,-5.4363,-5.3573,-5.3185,-5.3185,-5.3185,-5.1555,-4.882,-4.8453,-4.8306,-4.8306,-4.8306,-4.8306,-4.8306,-4.8306,-4.8306,-4.8306,-4.8306,-4.8306,-4.7829,-4.4966,-4.5736,-4.7774,-4.7774,-4.7847,-4.7352,-4.447,-4.3151,-4.2623,-4.295,-4.3041,-4.3114,-4.3424,-4.3515,-4.3515,-4.3515,-4.3515,-4.3375,-4.2883,-4.2083,-4.1336,-4.0765,-3.9613,-3.8845,-3.9121,-3.8095,-3.7292,-3.7292,-3.6307,-3.56,-3.56,-3.56,-3.56,-3.56,-3.5515,-3.543,-3.5363,-3.5346,-3.5346,-3.5346,-3.543,-3.5481,-3.5481,-3.5549,-3.56,-3.56,-3.56,-3.56,-3.56,-3.56,-3.5515,-3.176,-3.1464,0.0,0.0,-3.9282,-4.2359,-4.6103,-4.862,-5.0395,-5.1237,-5.3576,-5.5647,-5.6198,-5.6277,-5.6968,0.0,-5.8488,-5.8154,-5.9234,-5.8877,-5.7905,-5.629,-5.4879,-5.4205,-5.4638,-5.6278,-5.6763,-5.5481,-5.6992,-5.7997,-5.7997,-5.7997,-5.7997,-5.7997,-5.7666,-5.7666,-5.7997,-5.6877,-5.6693,-5.7483,-5.6198,-5.5409,-5.506,-5.4271,-5.3647,-5.3185,-5.3185,-5.2435,-5.1149,-5.1149,-5.1149,-5.1149,-5.1149,-4.9994,-4.8306,-4.8306,-4.8306,-4.8306,-4.8306,-4.8306,-4.8086,-4.6728,-4.7205,-4.8306,-4.8306,-4.8306,-4.8031,-4.6673,-4.5608,-4.4966,-4.5278,-4.5351,-4.5278,-4.4966,-4.4892,-4.4764,-4.4305,-4.3944,-4.3521,-4.2822,-4.2115,-4.1443,-4.0867,-4.0311,-3.9899,-3.9819,-3.8608,-3.7581,-3.7137,-3.6627,-3.6129,-3.565,-3.56,-3.56,-3.56,-3.56,-3.56,-3.56,-3.56,-3.56,-3.56,-3.56,-3.56,-3.56,-3.56,-3.56,-3.56,-3.56,-3.56,-3.56,-3.56,-3.5761,-3.4297,0.0,0.0,-4.2031,-4.593,-4.9382,-5.1444,-5.3445,-5.4965,-5.5445,-5.7024,-5.829,-5.8162,-5.7399,0.0,-5.9705,-5.844,-5.7753,-5.9491,-5.8547,-5.685,-5.4649,-5.2116,-5.0272,-4.9606,-5.3026,-5.5012,-5.4454,-5.6438,-5.7776,-5.7997,-5.7997,-5.7997,-5.7997,-5.7997,-5.7997,-5.7997,-5.7428,-5.7428,-5.7978,-5.6583,-5.5794,-5.5578,-5.4546,-5.3757,-5.3185,-5.3185,-5.3185,-5.3185,-5.3185,-5.3185,-5.3185,-5.3185,-5.1736,-4.9554,-4.8636,-4.8306,-4.8306,-4.8306,-4.8306,-4.8306,-4.8306,-4.8306,-4.8306,-4.8306,-4.8306,-4.8306,-4.8306,-4.7462,-4.6654,-4.704,-4.715,-4.704,-4.6654,-4.6214,-4.5718,-4.5057,-4.4388,-4.369,-4.2974,-4.2487,-4.1936,-4.1119,-4.0989,-4.0768,-4.0205,-3.9174,-3.8244,-3.7506,-3.7235,-3.6874,-3.6293,-3.6039,-3.5943,-3.5943,-3.5718,-3.56,-3.56,-3.56,-3.5701,-3.5926,-3.5718,-3.5701,-3.5943,-3.5701,-3.5701,-3.5943,-3.5943,-3.5943,-3.5943,-3.5943,-3.6103,0.0,0.0,-3.6606,-4.455,-4.8343,-5.1468,-5.6571,-5.8419,-5.9441,-6.1025,-6.0181,-5.9648,-6.1172,-6.0157,-5.9148,-5.9221,-5.9808,-5.9753,-5.8272,-5.7373,-5.5473,-5.1764,-4.988,-4.7218,0.0,-4.7903,-5.2862,-5.6424,-5.6781,-5.7189,-5.796,-5.7997,-5.7997,-5.7997,-5.7997,-5.7997,-5.7997,-5.7978,-5.7978,-5.7997,-5.7171,-5.6345,-5.5559,-5.3959,-5.3203,-5.3185,-5.3185,-5.3185,-5.3185,-5.3185,-5.3185,-5.3185,-5.3185,-5.313,-5.2674,-4.9481,-4.8306,-4.8306,-4.8306,-4.8306,-4.8306,-4.8306,-4.8306,-4.8306,-4.8306,-4.8306,-4.8306,-4.8306,-4.8269,-4.8233,-4.8251,-4.8251,-4.8251,-4.8233,-4.704,-4.5808,-4.5549,-4.4659,-4.3772,-4.3286,-4.3172,-4.2726,-4.1426,-4.1196,-4.0942,-4.0214,-4.0062,-3.9774,-3.9022,-3.8311,-3.7872,-3.7838,-3.7178,-3.6761,-3.6761,-3.6045,-3.56,-3.56,-3.56,-3.596,-3.6745,-3.6011,-3.5977,-3.6745,-3.6011,-3.5994,-3.6761,-3.6761,-3.6761,-3.6761,-3.6761,-3.6631,0.0,0.0,-4.4516,-4.9346,-5.2992,-5.6118,-5.8946,-6.0217,-6.0493,-5.9428,-5.7285,-5.5131,-5.3521,-5.1619,-5.113,-5.3626,-5.3831,-5.4888,-5.8325,-5.5129,-5.2454,-5.2525,-4.8551,0.0,0.0,0.0,0.0,-5.0811,-5.4538,-5.6932,-5.7189,-5.7703,-5.7997,-5.7997,-5.7997,-5.7997,-5.7997,-5.7997,-5.7997,-5.7978,-5.6638,-5.5574,-5.4766,-5.3198,-5.2399,-5.2307,-5.2915,-5.3185,-5.3185,-5.3185,-5.2101,-5.0397,-5.0397,-4.9212,-4.7359,-4.6242,-4.585,-4.6081,-4.7718,-4.8306,-4.8673,-5.0857,-5.1555,-5.1151,-4.8967,-4.8306,-4.8306,-4.8306,-4.8306,-4.8306,-4.8306,-4.8306,-4.8306,-4.8306,-4.7239,-4.6203,-4.6112,-4.5587,-4.4893,-4.4035,-4.3167,-4.2295,-4.1348,-4.1204,-4.095,-4.0214,-3.969,-3.9276,-3.9022,-3.8362,-3.7905,-3.7905,-3.7686,-3.7533,-3.7533,-3.728,-3.7144,-3.7144,-3.7144,-3.7263,-3.7516,-3.728,-3.7263,-3.7516,-3.7263,-3.7263,-3.7533,-3.7533,-3.7263,-3.6812,-3.7297,-3.7104,0.0,-4.5245,-5.0507,-5.4697,-5.7737,-6.007,-6.141,-6.1447,-6.0566,-5.8437,-5.5656,-5.2641,-4.9537,-4.7145,-4.6714,-4.9985,-4.9893,-5.1396,-5.7093,-5.3839,-5.1352,-5.274,-4.8768,0.0,0.0,0.0,0.0,-4.9046,-5.2577,-5.5017,-5.5601,-5.6113,-5.69,-5.7978,-5.7997,-5.7997,-5.7997,-5.7997,-5.7592,-5.6779,-5.5756,-5.4528,-5.3184,-5.2186,-5.0986,-4.9791,-5.146,-5.2006,-5.1703,-5.1703,-5.0626,-4.9001,-4.9001,-4.7834,-4.616,-4.616,-4.616,-4.6397,-4.7996,-4.8549,-4.8888,-5.1017,-5.0993,-4.9733,-4.7626,-4.6977,-4.6977,-4.6977,-4.7737,-4.8549,-4.8549,-4.9296,-5.005,-5.005,-4.7846,-4.5757,-4.5757,-4.5545,-4.5165,-4.4475,-4.3448,-4.2455,-4.1728,-4.1153,-4.0646,-4.018,-3.9706,-3.9402,-3.9402,-3.8971,-3.8684,-3.8684,-3.8447,-3.8294,-3.8294,-3.7872,-3.7702,-3.7889,-3.8075,-3.8193,-3.8294,-3.8041,-3.8024,-3.8294,-3.8041,-3.8041,-3.8294,-3.8294,-3.8041,-3.7608,-3.8058,-3.8009,-4.6711,-5.0995,-5.446,-6.0274,-6.2273,-6.3025,-6.3778,-6.2016,-5.9722,-5.79,-5.4851,-5.1608,0.0,0.0,-4.5513,-4.8034,-4.7964,-4.9419,-5.4756,-5.3421,-5.2023,0.0,0.0,0.0,0.0,0.0,0.0,-5.1099,0.0,-5.1996,-5.3595,-5.3704,-5.5047,-5.7923,-5.7997,-5.7997,-5.7997,-5.7973,-5.6846,-5.467,-5.4567,-5.3354,-5.1139,-5.1078,-4.9229,-4.624,-4.8949,-4.97,-4.9001,-4.9001,-4.9001,-4.9001,-4.9001,-4.9001,-4.9001,-4.9001,-4.9001,-4.9001,-4.9001,-4.9001,-4.9001,-4.9001,-4.7107,-4.4801,-4.4649,-4.4716,-4.4835,-4.4835,-4.6836,-4.9032,-4.9182,-5.1078,-5.2977,-5.2977,-4.8823,-4.4784,-4.4632,-4.4615,-4.4615,-4.4615,-4.3944,-4.3166,-4.2422,-4.1128,-4.0163,-4.0113,-4.0096,-4.0096,-4.0096,-4.0096,-4.0096,-4.0096,-3.9462,-3.9056,-3.9056,-3.7939,-3.7466,-3.799,-3.843,-3.8785,-3.9039,-3.8379,-3.8345,-3.9039,-3.8379,-3.8362,-3.9056,-3.9056,-3.9039,-3.8988,-3.9039,-3.9187,-4.852,-5.4119,-5.9974,-6.2787,-6.3135,-6.2713,-6.231,-5.9887,-5.6497,-5.2193,-4.7075,-4.1966,0.0,0.0,0.0,-4.1453,-4.359,0.0,-5.3083,-5.2053,0.0,0.0,0.0,-5.1103,-5.2601,-5.3061,0.0,0.0,-5.3512,-5.4883,-5.5907,-5.653,-5.7221,-5.7978,-5.7997,-5.7997,-5.7997,-5.7449,-5.6602,-5.5415,-5.4239,-5.3069,-5.1883,-5.0762,-4.9778,-4.8851,-4.6927,-4.7185,-4.9001,-4.9001,-4.9001,-4.9001,-4.9001,-4.9001,-4.9001,-4.9001,-4.9001,-4.9001,-4.9001,-4.9001,-4.9001,-4.9001,-4.8494,-4.7462,-4.5275,-4.6126,-4.7885,-4.7885,-4.8426,-4.9479,-5.1579,-5.1121,-5.0079,-5.0079,-4.8956,-4.7276,-4.5089,-4.4615,-4.4615,-4.4615,-4.3826,-4.2997,-4.2388,-4.1694,-4.095,-4.0214,-4.0096,-4.0096,-4.0096,-4.0096,-4.0096,-4.0096,-3.9943,-3.9825,-3.9825,-3.952,-3.9402,-3.9537,-3.9656,-3.9757,-3.9825,-3.9656,-3.9639,-3.9825,-3.9639,-3.9639,-3.9825,-3.9825,-3.9554,-3.9005,-3.9571,-3.9285,-5.3994,-5.8829,-6.3447,-6.4383,-6.3723,-6.2077,-5.9334,-5.594,-5.17,-4.5743,-4.1262,0.0,0.0,0.0,0.0,0.0,0.0,0.0,-5.0452,-5.0574,-5.0701,0.0,-5.2379,0.0,-5.5731,-5.5666,-5.5261,0.0,-5.4396,-5.4492,-5.5313,-5.5769,-5.6634,-5.796,-5.7997,-5.7821,-5.7516,-5.7109,-5.6015,-5.4241,-5.3369,-5.2204,-5.076,-4.9958,-4.9032,-4.8055,0.0,-4.6921,-4.7631,-4.8612,-4.9001,-4.9001,-4.9001,-4.9001,-4.9001,-4.9001,-4.9001,-4.9001,-4.9001,-4.9001,-4.9001,-4.9001,-4.9001,-4.8697,-4.7022,-4.7682,-4.9001,-4.9001,-4.9001,-4.9376,-5.0964,-5.0192,-4.9001,-4.9001,-4.9001,-4.8189,-4.5258,-4.4615,-4.4615,-4.4615,-4.413,-4.3521,-4.2777,-4.1694,-4.0756,-4.018,-4.0096,-4.0096,-4.0096,-4.0096,-4.0096,-4.0096,-4.0096,-4.0096,-4.0096,-4.0096,-4.0096,-4.0096,-4.0096,-4.0096,-4.0096,-4.0096,-4.0096,-4.0096,-4.0096,-4.0096,-4.0096,-4.0096,-3.9893,-3.9503,-3.991,-3.9917,-6.0109,-6.3342,-6.543,-6.5338,-6.3863,-6.1153,-5.6069,-5.1439,-4.6311,-3.9678,0.0,0.0,-3.0077,0.0,-3.2249,-3.6756,0.0,-4.2159,-4.7413,-4.9365,-5.0972,-5.2833,-5.3363,-5.4747,-5.7712,-5.7102,-5.6937,-5.7923,-5.4934,-5.3352,-5.4065,-5.4101,-5.5247,-5.7766,-5.7862,-5.7498,-5.6765,-5.6642,-5.5281,-5.2691,-5.2468,-5.1356,-4.9441,-4.9238,-4.8105,-4.6397,0.0,0.0,-4.6295,-4.8206,-4.9001,-4.9001,-4.9001,-4.9001,-4.9001,-4.9001,-4.9001,-4.9001,-4.9001,-4.9001,-4.9001,-4.9001,-4.9001,-4.9001,-4.9001,-4.9001,-4.9001,-4.9001,-4.9001,-4.9001,-4.9001,-4.9001,-4.9001,-4.9001,-4.9001,-4.8189,-4.5258,-4.4615,-4.4615,-4.4615,-4.4615,-4.4327,-4.3453,-4.1847,-4.0603,-4.0299,-4.0282,-4.0248,-4.013,-4.0096,-4.0096,-4.0096,-4.0096,-4.0096,-4.0096,-4.0096,-4.0096,-4.0096,-4.0096,-4.0096,-4.0096,-4.0096,-4.0096,-4.0096,-4.0096,-4.0096,-4.0096,-4.0096,-4.0096,-4.0096,-4.0096,-4.0618,-5.9816,-6.3056,-6.6127,-6.5485,-6.3044,-5.9698,-5.5471,-4.9074,0.0,0.0,0.0,-2.9371,-2.7295,-2.9027,0.0,-3.6629,0.0,0.0,0.0,0.0,-5.2347,0.0,0.0,0.0,0.0,0.0,0.0,0.0,0.0,0.0,-5.7203,-5.7221,-5.7175,-5.7091,-5.7109,-5.6721,-5.592,-5.5309,-5.4757,-5.4191,-5.2934,-5.2124,-5.1691,-5.0456,-4.9695,-4.9306,0.0,0.0,-4.846,-4.8849,-4.9001,-4.9001,-4.9001,-4.9001,-4.9001,-4.9001,-4.9001,-4.9001,-4.9001,-4.9001,-4.9001,-4.9001,-4.9001,-4.9001,-4.9001,-4.9001,-4.9001,-4.9001,-4.9001,-4.9001,-4.9001,-4.9001,-4.9001,-4.9001,-4.9001,-4.8189,-4.5258,-4.4615,-4.4615,-4.4615,-4.4615,-4.4547,-4.4378,-4.4056,-4.3193,-4.1288,-4.1187,-4.1044,-4.0214,-4.0096,-4.0096,-4.0096,-4.0096,-4.0096,-4.0096,-4.0096,-4.0096,-4.0096,-4.0096,-4.0096,-4.0096,-4.0096,-4.0096,-4.0096,-4.0096,-4.0096,-4.0096,-4.0096,-4.0096,-4.0096,-4.0096,-4.0221,-6.0324,-6.358,-6.6733,-6.5081,-6.1887,-5.7317,-5.0368,0.0,0.0,0.0,0.0,-2.6029,-2.4491,0.0,0.0,0.0,0.0,0.0,0.0,0.0,0.0,0.0,0.0,0.0,0.0,0.0,0.0,0.0,0.0,0.0,-5.7941,-5.7655,-5.7073,-5.6313,-5.6286,-5.591,-5.5131,-5.4787,-5.4198,-5.3376,-5.2649,-5.2097,-5.1708,-5.0997,-5.0676,-5.0642,-5.005,0.0,-4.8477,-4.8849,-4.8545,-4.7936,-4.8697,-4.9001,-4.9001,-4.9001,-4.9001,-4.9001,-4.9001,-4.9001,-4.9001,-4.9001,-4.9001,-4.9001,-4.9001,-4.9001,-4.9001,-4.9001,-4.9001,-4.9001,-4.9001,-4.9001,-4.9001,-4.9001,-4.9001,-4.8612,-4.7192,-4.6887,-4.6887,-4.6887,-4.6261,-4.5833,-4.6087,-4.5275,-4.4242,-4.3115,-4.2066,-4.1221,-4.073,-4.035,-4.0096,-4.0096,-4.0096,-4.0096,-4.0096,-4.0096,-4.0096,-4.0096,-4.0096,-4.0096,-4.0096,-4.0096,-4.0096,-4.0096,-4.0096,-4.0096,-4.0096,-4.0096,-4.0096,-4.0096,-4.0096,-4.0237,-6.1246,-6.4254,-6.6641,-6.4383,-6.0621,-5.5129,-4.6039,-3.9803,0.0,0.0,0.0,-2.3793,-2.3062,0.0,0.0,0.0,0.0,0.0,0.0,0.0,0.0,0.0,0.0,0.0,0.0,0.0,0.0,0.0,0.0,0.0,-5.7653,-5.7047,-5.6286,-5.5495,-5.5448,-5.5102,-5.4374,-5.4374,-5.3749,-5.2553,-5.2553,-5.2249,-5.1708,-5.1522,-5.1454,-5.142,-5.0762,0.0,0.0,-4.8173,-4.775,-4.7378,-4.8545,-4.9187,-4.9441,-4.912,-4.9001,-4.9001,-4.9001,-4.9001,-4.9001,-4.9001,-4.9001,-4.9001,-4.9001,-4.9001,-4.9001,-4.9001,-4.9001,-4.9001,-4.9001,-4.9001,-4.9001,-4.9001,-4.9001,-4.9001,-4.9001,-4.9001,-4.9001,-4.9001,-4.7885,-4.7056,-4.7428,-4.6007,-4.4801,-4.4632,-4.2929,-4.161,-4.1457,-4.0916,-4.057,-4.057,-4.0299,-4.0096,-4.0096,-4.0096,-4.0096,-4.0096,-4.0096,-4.0096,-4.0096,-4.0096,-4.0096,-4.0096,-4.0096,-4.0096,-4.0096,-4.0096,-4.0096,-4.0096,-4.0096,-4.0392,-6.2471,-6.4651,-6.5099,-6.3374,-5.9336,-5.3946,-4.6852,0.0,0.0,0.0,-2.4714,-2.2994,-2.4629,-2.5752,0.0,0.0,0.0,0.0,0.0,0.0,0.0,0.0,0.0,0.0,0.0,0.0,0.0,0.0,0.0,0.0,0.0,-5.6241,-5.5466,-5.4726,-5.4695,-5.4359,-5.3618,-5.3618,-5.3517,-5.3399,-5.3399,-5.3365,-5.3264,-5.2536,-5.2198,-5.2147,0.0,0.0,0.0,-4.6447,-4.6481,-4.8815,-4.8951,-4.983,-5.0845,-4.9492,-4.9001,-4.9001,-4.9001,-4.9001,-4.9001,-4.9001,-4.9001,-4.9001,-4.9001,-4.9001,-4.9001,-4.9001,-4.9001,-4.9001,-4.9001,-4.9001,-4.9001,-4.9001,-4.9001,-4.9001,-4.9001,-4.9001,-4.9001,-4.9001,-4.8139,-4.7445,-4.7479,-4.6447,-4.5365,-4.4699,-4.3809,-4.298,-4.2286,-4.2134,-4.2083,-4.2083,-4.0908,-4.0096,-4.0096,-4.0096,-4.0096,-4.0096,-4.0096,-4.0096,-4.0096,-4.0096,-4.0096,-4.0096,-4.0096,-4.0096,-4.0096,-4.0096,-4.0096,-4.0096,-4.0096,-4.0392,-5.6649,-6.1178,-6.4787,-6.2622,-5.8455,-5.2895,-4.5323,0.0,0.0,-2.6755,-2.3877,-2.2589,-2.3527,-2.4192,-2.5851,0.0,0.0,0.0,0.0,0.0,0.0,0.0,0.0,0.0,0.0,0.0,0.0,0.0,0.0,0.0,0.0,-5.522,-5.4713,-5.3962,-5.3946,-5.3816,-5.3501,-5.3501,-5.3501,-5.3501,-5.3501,-5.3501,-5.3501,-5.3179,-5.3027,-5.301,0.0,0.0,0.0,-4.8832,-4.824,-4.7276,-4.9813,-5.0693,-5.0524,-5.0388,-4.9763,-4.9001,-4.9001,-4.9001,-4.9001,-4.9001,-4.9001,-4.9001,-4.9001,-4.9001,-4.9001,-4.9001,-4.9001,-4.9001,-4.9001,-4.9001,-4.9001,-4.9001,-4.9001,-4.9001,-4.9001,-4.9001,-4.9001,-4.9001,-4.868,-4.8392,-4.8392,-4.7648,-4.6786,-4.6024,-4.4891,-4.3842,-4.3064,-4.2574,-4.2286,-4.2286,-4.1373,-4.0747,-4.0747,-4.0367,-4.0096,-4.0096,-4.0096,-4.0096,-4.0096,-4.0096,-4.0096,-4.0096,-4.0096,-4.0096,-4.0096,-4.0096,-4.0096,-4.0096,-4.0096,-4.0392,-5.2096,-5.7617,-6.242,-6.0915,-5.6442,-5.0477,0.0,0.0,-3.049,-2.5248,-2.3173,-2.2363,-2.255,-2.2915,-2.425,0.0,0.0,0.0,0.0,0.0,0.0,0.0,0.0,0.0,0.0,0.0,0.0,0.0,0.0,0.0,0.0,-5.4264,-5.4059,-5.3534,-5.3501,-5.3501,-5.3501,-5.3501,-5.3501,-5.3501,-5.3501,-5.3145,-5.252,-5.3196,-5.3129,-5.2536,0.0,0.0,0.0,-4.9999,-4.9492,-4.8308,-5.1285,-5.1894,-5.1099,-5.1183,-5.0456,-4.9407,-4.9103,-4.9001,-4.9001,-4.9001,-4.9001,-4.9001,-4.9001,-4.9001,-4.9001,-4.9001,-4.9001,-4.9001,-4.9001,-4.9001,-4.9001,-4.9001,-4.9678,-5.0219,-4.9763,-4.9543,-4.9424,-4.934,-4.9154,-4.9001,-4.9001,-4.8578,-4.7986,-4.7242,-4.6058,-4.4959,-4.417,-4.3639,-4.3217,-4.2997,-4.2252,-4.1711,-4.1542,-4.0849,-4.0434,-4.0434,-4.0231,-4.0096,-4.0096,-4.0096,-4.0096,-4.0096,-4.0096,-4.0096,-4.0096,-4.0096,-4.0096,-4.0096,-4.0096,-4.0473,-5.074,-5.4706,-5.7079,-5.7831,-5.2875,-4.6198,0.0,0.0,-2.8611,-2.429,-2.2818,-2.2296,-2.231,-2.2527,-2.3903,-2.7512,-2.8649,0.0,0.0,0.0,0.0,0.0,0.0,0.0,0.0,0.0,0.0,0.0,0.0,0.0,0.0,-5.3501,-5.3501,-5.3501,-5.3501,-5.3501,-5.3501,-5.3501,-5.3501,-5.3501,-5.3501,-5.2317,-5.0202,-5.2469,-5.2266,0.0,0.0,0.0,0.0,-4.8663,-4.9441,-5.3433,-5.3467,-5.3484,-5.3281,-5.1775,-5.0881,-5.0323,-4.9357,-4.9001,-4.9001,-4.9001,-4.9001,-4.9001,-4.9001,-4.9001,-4.9001,-4.9001,-4.9001,-4.9001,-4.9001,-4.9001,-4.9001,-4.9001,-5.1285,-5.3044,-5.1522,-5.0796,-5.0422,-5.0135,-4.9492,-4.9001,-4.9001,-4.9001,-4.8748,-4.799,-4.7259,-4.6498,-4.5771,-4.5669,-4.5382,-4.4666,-4.3673,-4.2861,-4.232,-4.161,-4.1187,-4.1187,-4.0493,-4.0096,-4.0096,-4.0096,-4.0096,-4.0096,-4.0096,-4.0096,-4.0096,-4.0096,-4.0096,-4.0096,-4.0096,-4.0713,-4.023,-4.4412,-4.7653,-4.6839,-4.4108,-4.0342,-3.5474,-3.161,-2.7966,-2.4171,-2.3207,-2.311,-2.3347,-2.3467,-2.4871,-2.8947,-2.9375,0.0,0.0,0.0,0.0,0.0,0.0,0.0,0.0,0.0,0.0,0.0,0.0,0.0,0.0,0.0,-5.3501,-5.3501,-5.3501,-5.3501,-5.3501,-5.3501,-5.3501,-5.3501,-5.3501,-5.2317,-5.0168,-5.2469,0.0,0.0,0.0,0.0,0.0,-5.1319,-5.1302,-5.1319,-5.2892,-5.3162,-5.2621,-5.2131,-5.1352,-5.0371,-4.9357,-4.9001,-4.9001,-4.9001,-4.9001,-4.9001,-4.9001,-4.9001,-4.9001,-4.9001,-4.9001,-4.9001,-4.9001,-4.9001,-4.9255,-5.027,-5.0473,-5.0676,-5.1555,-5.1623,-5.1302,-5.0524,-5.0185,-4.9813,-4.912,-4.9001,-4.8748,-4.799,-4.7716,-4.7293,-4.6549,-4.6447,-4.621,-4.5618,-4.5162,-4.4604,-4.3938,-4.3031,-4.1914,-4.0553,-4.0231,-4.0096,-4.0096,-4.0096,-4.0096,-4.0096,-4.0096,-4.0096,-4.0096,-4.0096,-4.0096,-4.0121,-4.0601,-4.1196,0.0,-3.7449,-4.0828,-4.0165,-3.8133,0.0,0.0,-2.8776,-2.6333,-2.3566,-2.332,-2.3736,-2.4067,-2.4323,-2.5497,-2.8493,-2.9972,0.0,0.0,0.0,0.0,0.0,0.0,0.0,0.0,0.0,0.0,0.0,0.0,0.0,0.0,0.0,-5.3501,-5.3501,-5.3501,-5.3501,-5.3501,-5.3501,-5.3501,-5.3501,-5.3501,-5.2317,-5.0168,-5.2469,0.0,0.0,0.0,0.0,0.0,-5.2909,-5.2655,-5.1522,-5.2942,-5.3196,-5.2756,-5.2756,-5.1911,-5.0661,-5.0067,-4.9847,-4.9746,-4.9187,-4.9001,-4.9001,-4.9001,-4.9001,-4.9001,-4.9001,-4.9001,-4.9001,-4.9001,-4.9001,-4.9238,-5.0168,-5.0541,-5.1048,-5.23,-5.257,-5.2266,-5.1268,-5.1082,-5.0642,-4.9238,-4.9323,-4.9289,-4.846,-4.8342,-4.802,-4.7158,-4.7394,-4.7073,-4.5635,-4.5365,-4.5094,-4.4649,-4.3741,-4.2675,-4.1407,-4.0925,-4.0756,-4.0925,-4.04,-4.0282,-4.0671,-4.0299,-4.0096,-4.0096,-4.0096,-4.0096,-4.0121,-4.1451,-4.2208,0.0,0.0,0.0,0.0,0.0,0.0,0.0,-2.5643,0.0,-2.2592,-2.3216,-2.4144,-2.4613,-2.5289,-2.6096,-2.7053,-3.0683,0.0,0.0,0.0,0.0,0.0,0.0,0.0,0.0,0.0,0.0,0.0,0.0,0.0,0.0,0.0,-5.3501,-5.3501,-5.345,-5.345,-5.3501,-5.3501,-5.3416,-5.3264,-5.3416,-5.2215,-4.9932,-5.2384,0.0,0.0,0.0,0.0,0.0,-5.3501,-5.3501,-5.3501,-5.3501,-5.3467,-5.3416,-5.3416,-5.2452,-5.1133,-5.1134,-5.1083,-5.0828,-4.9458,-4.9001,-4.9001,-4.9001,-4.9001,-4.9001,-4.9001,-4.9001,-4.9001,-4.9001,-4.9001,-4.9001,-4.9001,-5.1302,-5.3501,-5.3501,-5.3501,-5.3213,-5.2283,-5.2097,-5.1505,-4.9644,-4.9932,-5.0101,-4.9137,-4.9001,-4.8663,-4.7716,-4.8409,-4.7953,-4.5224,-4.4919,-4.4835,-4.4632,-4.3927,-4.3443,-4.3392,-4.2354,-4.1897,-4.2269,-4.0959,-4.0654,-4.1576,-4.062,-4.0096,-4.0096,-4.0096,-4.0096,-4.0146,-4.2348,-4.3427,-2.1319,0.0,-2.4697,-2.4265,0.0,0.0,0.0,-2.1891,-2.2116,0.0,0.0,-2.4538,-2.6314,-2.7731,-2.9205,-3.0945,0.0,0.0,0.0,0.0,0.0,0.0,0.0,0.0,0.0,0.0,0.0,0.0,0.0,0.0,0.0,0.0,-5.3501,-5.3501,-5.2909,-5.2892,-5.3501,-5.3501,-5.2621,-5.0913,-5.2672,-5.142,-4.7699,-5.1691,0.0,0.0,0.0,0.0,-5.3501,-5.3501,-5.3501,-5.3501,-5.3501,-5.3129,-5.2587,-5.2587,-5.164,-5.0388,-5.0608,-5.0168,-4.9458,-4.912,-4.9001,-4.9001,-4.9001,-4.9001,-4.9001,-4.9001,-4.9001,-4.9001,-4.9001,-4.9001,-4.9001,-4.9001,-5.1302,-5.3501,-5.3501,-5.3501,-5.3433,-5.3196,-5.3145,-5.2993,-5.252,-5.0727,-4.9272,-4.9035,-4.9001,-4.8917,-4.868,-4.8849,-4.8731,-4.8037,-4.797,-4.7039,-4.4801,-4.4445,-4.4062,-4.3426,-4.3122,-4.2777,-4.2303,-4.161,-4.1356,-4.1593,-4.062,-4.0096,-4.0096,-4.0096,-4.0096,-4.0121,-4.1534,-4.2658,-1.8302,-2.0264,-2.2244,-2.2396,-2.233,-2.2156,-2.1919,0.0,0.0,0.0,0.0,0.0,-2.6816,0.0,0.0,0.0,0.0,0.0,0.0,0.0,0.0,0.0,0.0,0.0,0.0,0.0,0.0,0.0,0.0,0.0,0.0,0.0,-5.3331,-5.2959,-5.2536,-5.252,-5.2959,-5.2621,-5.1488,-4.961,-5.1877,-5.1319,-4.8409,-5.1522,0.0,0.0,0.0,0.0,-5.3416,-5.2367,-5.2334,-5.2959,-5.2959,-5.2486,-5.1843,-5.2181,-5.1437,-5.0338,-5.071,-5.0033,-4.9001,-4.9001,-4.9001,-4.9001,-4.9001,-4.9001,-4.9001,-4.9001,-4.9001,-4.9001,-4.9001,-4.9001,-4.9001,-4.9001,-5.1302,-5.3501,-5.3501,-5.3501,-5.3501,-5.3501,-5.3501,-5.3061,-5.1674,-5.0642,-4.9796,-4.9103,-4.9001,-4.9001,-4.9001,-4.9001,-4.9001,-4.9001,-4.8392,-4.7614,-4.6684,-4.6223,-4.5534,-4.4643,-4.4519,-4.4333,-4.4012,-4.2895,-4.1847,-4.0942,-4.0383,-4.0096,-4.0096,-4.0096,-4.0096,-4.0121,-4.1263,-4.2406,-1.7743,-2.0636,-2.3624,-2.4547,-2.3908,-2.3213,-2.3781,0.0,0.0,0.0,0.0,0.0,0.0,0.0,0.0,0.0,0.0,0.0,0.0,0.0,0.0,0.0,0.0,0.0,0.0,0.0,0.0,0.0,0.0,0.0,0.0,0.0,0.0,-5.2164,-5.2029,-5.1961,-5.1961,-5.1471,-5.0405,-4.8866,-5.1082,-5.1302,-4.9813,-5.1403,-5.2503,0.0,0.0,0.0,-5.3179,-5.1234,-5.1166,-5.2283,-5.2181,-5.1691,-5.1116,-5.1742,-5.1251,-5.0323,-5.0744,-5.0067,-4.9001,-4.9001,-4.9001,-4.9001,-4.9001,-4.9001,-4.9001,-4.9001,-4.9001,-4.9001,-4.9001,-4.9001,-4.9001,-4.9001,-5.1302,-5.3501,-5.3501,-5.3501,-5.3501,-5.3501,-5.3501,-5.2689,-5.0135,-5.0355,-5.0456,-4.9187,-4.9001,-4.9001,-4.9001,-4.9001,-4.9001,-4.9001,-4.7885,-4.7631,-4.89,-4.8223,-4.7361,-4.6503,-4.6024,-4.5771,-4.5805,-4.4215,-4.2422,-4.0468,-4.0214,-4.0096,-4.0096,-4.0096,-4.0171,-4.0286,-4.1263,-4.2346,-1.8352,-2.1025,-2.3235,-2.2519,-2.1932,-2.1816,-2.2862,0.0,0.0,0.0,0.0,0.0,0.0,0.0,0.0,0.0,0.0,0.0,0.0,0.0,0.0,0.0,0.0,0.0,0.0,0.0,0.0,0.0,0.0,0.0,0.0,0.0,0.0,-5.1371,-5.076,-5.0422,-5.0422,-5.0947,-5.0168,-4.8091,-5.0321,-5.0255,-4.8294,-5.0422,-5.1454,0.0,0.0,-5.2063,-5.2469,-5.2114,-5.2097,-5.2249,-5.1623,-5.093,-5.027,-5.0388,-4.9932,-4.9238,-4.9323,-4.9187,-4.9001,-4.9001,-4.9001,-4.9001,-4.9001,-4.9001,-4.9001,-4.9001,-4.9001,-4.9001,-4.9001,-4.9001,-4.9001,-4.9001,-5.1302,-5.3501,-5.3501,-5.3501,-5.3501,-5.3501,-5.3501,-5.3365,-5.2892,-5.0879,-4.9272,-4.9035,-4.9001,-4.9001,-4.9001,-4.9001,-4.9001,-4.9001,-4.8798,-4.8748,-4.8984,-4.8866,-4.8714,-4.8562,-4.6921,-4.5618,-4.4869,-4.4547,-4.3616,-4.1982,-4.0756,-4.0096,-4.0096,-4.0096,-4.0417,-4.1036,-4.1201,-4.2106,-1.7314,-1.9604,-2.1945,-2.3562,-2.3765,-2.423,-2.6703,0.0,0.0,0.0,0.0,0.0,0.0,0.0,0.0,0.0,0.0,0.0,0.0,0.0,0.0,0.0,0.0,0.0,0.0,0.0,0.0,0.0,0.0,0.0,0.0,0.0,0.0,0.0,-5.027,-4.9898,-4.9509,-4.9847,-4.9103,-4.7344,-4.9543,-4.9661,-4.7939,-4.9796,-5.0828,-5.1117,0.0,-5.0236,-5.1623,-5.0422,-5.0405,-5.1082,-5.0744,-5.0152,-4.9509,-4.9509,-4.9796,-5.0084,-4.9289,-4.9001,-4.9001,-4.9001,-4.9001,-4.9001,-4.9001,-4.9001,-4.9001,-4.9001,-4.9001,-4.9001,-4.9001,-4.9001,-4.9001,-4.9001,-5.1302,-5.3501,-5.3501,-5.3501,-5.3501,-5.3501,-5.3501,-5.3501,-5.3501,-5.235,-5.1437,-5.1437,-5.1437,-5.1437,-5.1437,-5.1437,-5.0811,-4.9171,-4.9001,-4.9001,-4.9001,-4.9001,-4.8832,-4.8443,-4.7175,-4.5872,-4.4649,-4.4615,-4.4276,-4.3565,-4.2888,-4.2533,-4.2533,-4.2008,-4.1733,-4.1803,-4.1832,-4.2509,-1.6722,-1.8454,-2.0601,-2.4196,0.0,-2.6222,-3.0562,0.0,0.0,0.0,0.0,0.0,0.0,0.0,0.0,0.0,0.0,0.0,0.0,0.0,0.0,0.0,0.0,0.0,0.0,0.0,0.0,0.0,0.0,0.0,0.0,0.0,0.0,0.0,-4.983,-4.956,-4.9018,-4.9001,-4.8426,-4.7327,-4.9018,-4.9255,-4.8206,-4.9323,-5.0152,-5.0591,-4.8477,-4.8849,-5.0828,-4.912,-4.9086,-5.0067,-4.9898,-4.9492,-4.9001,-4.9001,-4.9712,-5.0541,-4.939,-4.9001,-4.912,-4.983,-4.9576,-4.9001,-4.9001,-4.9492,-5.005,-5.005,-5.005,-5.005,-5.005,-4.9543,-4.9187,-4.9898,-5.1826,-5.3501,-5.3501,-5.3501,-5.3501,-5.3501,-5.3501,-5.3501,-5.3501,-5.3501,-5.3501,-5.3501,-5.3501,-5.3501,-5.3501,-5.3501,-5.2621,-5.0304,-5.005,-4.9965,-4.9729,-4.9424,-4.9018,-4.846,-4.7276,-4.6109,-4.4959,-4.4733,-4.4615,-4.4615,-4.4378,-4.4259,-4.4259,-4.3352,-4.2836,-4.2723,-4.2637,-4.3054,-1.7963,-1.886,-1.9624,-2.2342,-2.3302,0.0,-3.1751,-2.9145,0.0,0.0,0.0,0.0,0.0,0.0,0.0,0.0,0.0,0.0,0.0,0.0,0.0,0.0,0.0,0.0,0.0,0.0,0.0,0.0,0.0,0.0,0.0,0.0,0.0,0.0,0.0,-4.9052,-4.9001,-4.9001,-4.8951,-4.8849,-4.9001,-4.9018,-4.8934,-4.9035,-4.912,-4.9187,-4.9661,-4.9965,-5.0152,-4.9999,-4.9999,-5.0016,-4.9357,-4.9052,-4.9001,-4.9001,-4.9069,-4.9137,-4.9035,-4.9001,-4.9458,-5.2283,-5.1285,-4.9001,-4.9001,-5.0963,-5.3179,-5.3179,-5.3179,-5.3179,-5.3179,-5.1099,-4.9712,-5.252,-5.3348,-5.3501,-5.3501,-5.3501,-5.3501,-5.3501,-5.3501,-5.3501,-5.3501,-5.3501,-5.3501,-5.3501,-5.3501,-5.3501,-5.3501,-5.3501,-5.3416,-5.3213,-5.3179,-5.2807,-5.186,-5.0693,-4.9982,-4.9949,-4.7513,-4.5995,-4.5894,-4.506,-4.4615,-4.4615,-4.3673,-4.3217,-4.3217,-4.2642,-4.2902,-4.3953,-4.3393,-4.3409,-1.6424,-1.7845,-1.9833,-2.3698,0.0,0.0,0.0,0.0,0.0,0.0,0.0,0.0,0.0,0.0,0.0,0.0,0.0,0.0,0.0,0.0,0.0,0.0,0.0,0.0,0.0,0.0,0.0,0.0,0.0,0.0,0.0,0.0,0.0,0.0,0.0,-4.9001,-4.9001,-4.9001,-4.9001,-4.9001,-4.9001,-4.9001,-4.9001,-4.9001,-4.9001,-4.9018,-4.9289,-4.9424,-4.9424,-4.9424,-4.9424,-4.939,-4.912,-4.9001,-4.9001,-4.9001,-4.9001,-4.9001,-4.9001,-5.0236,-5.1995,-5.3129,-5.2739,-5.1454,-4.9576,-4.9796,-5.1099,-5.2976,-5.3501,-5.3501,-5.3501,-5.2655,-5.2097,-5.323,-5.3501,-5.3501,-5.3501,-5.3501,-5.3501,-5.3501,-5.3501,-5.3501,-5.3501,-5.3501,-5.3501,-5.3501,-5.3501,-5.3501,-5.3501,-5.3501,-5.3501,-5.3501,-5.2942,-5.2401,-5.2029,-5.0811,-5.0084,-5.0084,-4.8697,-4.7665,-4.7179,-4.5517,-4.4615,-4.4615,-4.4242,-4.4028,-4.4028,-4.3836,-4.4152,-4.496,-4.421,-4.4176,-1.568,-1.7219,-1.9536,0.0,0.0,0.0,0.0,0.0,0.0,0.0,0.0,0.0,0.0,0.0,0.0,0.0,0.0,0.0,0.0,0.0,0.0,0.0,0.0,0.0,0.0,0.0,0.0,0.0,0.0,0.0,0.0,0.0,0.0,0.0,0.0,0.0,-4.8663,-4.8426,-4.8308,-4.8308,-4.8308,-4.8545,-4.9001,-4.8765,-4.8781,-4.9001,-4.9001,-4.9001,-4.9001,-4.9001,-4.9001,-4.9001,-4.9001,-4.9001,-4.9001,-4.9001,-4.9001,-4.9001,-4.9001,-5.098,-5.3501,-5.3501,-5.3501,-5.2942,-4.9915,-4.9001,-4.9627,-5.2655,-5.3501,-5.3501,-5.3501,-5.3501,-5.3501,-5.3501,-5.3501,-5.3501,-5.3501,-5.3501,-5.3501,-5.3501,-5.3501,-5.3501,-5.3501,-5.3501,-5.3501,-5.3501,-5.3501,-5.3501,-5.3501,-5.3501,-5.3501,-5.3501,-5.2875,-5.2367,-5.2114,-5.1082,-5.0338,-5.0101,-4.9407,-4.868,-4.7922,-4.621,-4.5309,-4.5309,-4.5309,-4.5309,-4.5309,-4.5072,-4.5265,-4.5814,-4.4845,-4.4593,-1.6326,-1.7247,0.0,0.0,0.0,0.0,0.0,0.0,0.0,0.0,0.0,0.0,0.0,0.0,0.0,0.0,0.0,0.0,0.0,0.0,0.0,0.0,0.0,0.0,0.0,0.0,0.0,0.0,0.0,0.0,0.0,0.0,0.0,0.0,0.0,0.0,-4.7872,-4.7158,-4.6786,-4.6786,-4.6786,-4.7564,-4.8951,-4.824,-4.8308,-4.8984,-4.8984,-4.8984,-4.8984,-4.9001,-4.9001,-4.9001,-4.9001,-4.9001,-4.9001,-4.9001,-4.9001,-4.9001,-4.9001,-5.098,-5.3501,-5.3501,-5.3501,-5.2942,-4.9949,-4.9035,-4.9678,-5.2655,-5.3501,-5.3501,-5.3501,-5.3501,-5.3501,-5.3501,-5.3501,-5.3501,-5.3501,-5.3501,-5.3501,-5.3501,-5.3501,-5.3501,-5.3501,-5.3501,-5.3501,-5.3501,-5.3501,-5.3501,-5.3501,-5.3501,-5.3501,-5.3501,-5.3501,-5.3179,-5.2384,-5.164,-5.0896,-5.0152,-4.9407,-4.868,-4.7922,-4.7208,-4.6802,-4.6802,-4.6786,-4.6786,-4.6786,-4.6075,-4.6004,-4.6576,-4.5237,-4.4541,-1.7501,-1.8198,0.0,0.0,0.0,0.0,0.0,0.0,0.0,0.0,0.0,0.0,0.0,0.0,0.0,0.0,0.0,0.0,0.0,0.0,0.0,0.0,0.0,0.0,0.0,0.0,0.0,0.0,0.0,0.0,0.0,0.0,0.0,0.0,0.0,0.0,-4.7124,-4.6904,-4.6786,-4.6786,-4.6261,-4.6532,-4.7445,-4.7225,-4.7242,-4.7479,-4.8003,-4.824,-4.8291,-4.8798,-4.9001,-4.9001,-4.9001,-4.9001,-4.9001,-4.9001,-4.9001,-4.9001,-4.9001,-5.098,-5.3501,-5.3501,-5.3501,-5.3331,-5.2452,-5.2181,-5.235,-5.3247,-5.3501,-5.3501,-5.3501,-5.3501,-5.3501,-5.3501,-5.3501,-5.3501,-5.3501,-5.3501,-5.3501,-5.3501,-5.3501,-5.3501,-5.3501,-5.3501,-5.3501,-5.3501,-5.3501,-5.3501,-5.3501,-5.3501,-5.3501,-5.3501,-5.3501,-5.3399,-5.3162,-5.1961,-5.1116,-5.0896,-4.9695,-4.89,-4.8697,-4.7986,-4.7581,-4.7581,-4.7056,-4.6786,-4.6786,-4.6583,-4.6527,-4.6593,-4.5755,-4.5299,-1.828,0.0,0.0,0.0,0.0,0.0,0.0,0.0,0.0,0.0,0.0,0.0,0.0,0.0,0.0,0.0,0.0,0.0,0.0,0.0,0.0,0.0,0.0,0.0,0.0,0.0,0.0,0.0,0.0,0.0,0.0,0.0,0.0,0.0,0.0,0.0,-4.6346,-4.5754,-4.5602,-4.5906,-4.5466,-4.5483,-4.5952,-4.6227,-4.6515,-4.6836,-4.7597,-4.7889,-4.7939,-4.8714,-4.9001,-4.9001,-4.9001,-4.9001,-4.9001,-4.9001,-4.9001,-4.9001,-4.9001,-5.0202,-5.1725,-5.1725,-5.252,-5.3501,-5.3501,-5.3501,-5.3501,-5.3501,-5.3501,-5.3501,-5.3501,-5.3501,-5.3501,-5.3501,-5.3501,-5.3501,-5.3501,-5.3501,-5.3501,-5.3501,-5.3501,-5.3501,-5.3501,-5.3501,-5.3501,-5.3501,-5.3501,-5.3501,-5.3501,-5.3501,-5.3501,-5.3501,-5.3501,-5.3365,-5.3061,-5.2181,-5.1522,-5.1202,-5.0388,-4.9746,-4.9458,-4.8731,-4.8359,-4.8359,-4.7902,-4.7665,-4.7665,-4.7378,-4.7206,-4.7105,-4.643,-4.5932,0.0,0.0,0.0,0.0,0.0,0.0,0.0,0.0,0.0,0.0,0.0,0.0,0.0,0.0,0.0,0.0,0.0,0.0,0.0,0.0,0.0,0.0,0.0,0.0,0.0,0.0,0.0,0.0,0.0,0.0,0.0,0.0,0.0,0.0,0.0,0.0,-4.5382,-4.4079,-4.3775,0.0,-4.4496,-4.453,-4.4632,-4.528,-4.6007,-4.6735,-4.7428,-4.772,-4.7838,-4.8612,-4.89,-4.8917,-4.8984,-4.9001,-4.9001,-4.9001,-4.9001,-4.9001,-4.9001,-4.9001,-4.9001,-4.9001,-5.0862,-5.3145,-5.3416,-5.3501,-5.3501,-5.3501,-5.3501,-5.3501,-5.3501,-5.3501,-5.3501,-5.3501,-5.3501,-5.3501,-5.3501,-5.3501,-5.3501,-5.3501,-5.3501,-5.3501,-5.3501,-5.3501,-5.3501,-5.3501,-5.3501,-5.3501,-5.3501,-5.3501,-5.3501,-5.3501,-5.3501,-5.3213,-5.2469,-5.2334,-5.2012,-5.132,-5.1251,-5.0913,-5.0219,-4.9492,-4.9069,-4.9001,-4.9001,-4.9001,-4.9001,-4.8342,-4.7956,-4.7872,-4.7208,-4.6498,0.0,0.0,0.0,0.0,0.0,0.0,0.0,0.0,0.0,0.0,0.0,0.0,0.0,0.0,0.0,0.0,0.0,0.0,0.0,0.0,0.0,0.0,0.0,0.0,0.0,0.0,0.0,0.0,0.0,0.0,0.0,0.0,0.0,0.0,0.0,-4.3132,-4.3031,-4.3284,-4.3504,0.0,-4.3673,-4.3995,-4.4615,-4.4767,-4.5229,-4.5957,-4.6109,-4.6498,-4.709,-4.7834,-4.8125,-4.8176,-4.8781,-4.9001,-4.9001,-4.9001,-4.9001,-4.9001,-4.9001,-4.9001,-4.9001,-4.9001,-4.9441,-5.0405,-5.279,-5.3501,-5.3501,-5.3501,-5.3501,-5.3501,-5.3501,-5.3501,-5.3501,-5.3501,-5.3501,-5.3501,-5.3501,-5.3501,-5.3501,-5.3501,-5.3501,-5.3501,-5.3501,-5.3501,-5.3501,-5.3501,-5.3501,-5.3501,-5.3501,-5.3501,-5.3501,-5.3501,-5.3501,-5.3433,-5.3264,-5.2655,-5.2232,-5.208,-5.1539,-5.115,-5.098,-5.0253,-4.9593,-4.9018,-4.9001,-4.9001,-4.9001,-4.8849,-4.8477,-4.7889,-4.772,-4.7276,0.0,0.0,0.0,0.0,0.0,0.0,0.0,0.0,0.0,0.0,0.0,0.0,0.0,0.0,0.0,0.0,0.0,0.0,0.0,0.0,0.0,0.0,0.0,0.0,0.0,0.0,0.0,0.0,0.0,0.0,0.0,0.0,0.0,0.0,-4.1982,-4.1965,-4.2286,-4.2337,-4.2523,-4.2878,-4.2878,-4.3081,-4.3532,-4.4276,-4.4818,-4.5179,-4.5551,-4.5923,-4.6329,-4.7073,-4.7378,-4.7462,-4.8189,-4.8697,-4.9001,-4.9001,-4.9001,-4.9001,-4.9001,-4.9001,-4.9001,-4.9001,-4.9001,-4.9289,-5.0879,-5.235,-5.3501,-5.3501,-5.3501,-5.3501,-5.3501,-5.3501,-5.3501,-5.3501,-5.3501,-5.3501,-5.3501,-5.3501,-5.3501,-5.3501,-5.3501,-5.3501,-5.3501,-5.3501,-5.3501,-5.3501,-5.3501,-5.3501,-5.3501,-5.3501,-5.3501,-5.3501,-5.3501,-5.3501,-5.3501,-5.3129,-5.2875,-5.2875,-5.252,-5.2147,-5.1758,-5.1352,-5.0642,-4.9543,-4.9187,-4.9001,-4.9001,-4.9001,-4.8798,-4.8443,-4.8443,-4.8037,0.0,0.0,0.0,0.0,0.0,0.0,0.0,0.0,0.0,0.0,0.0,0.0,0.0,0.0,0.0,0.0,0.0,0.0,0.0,0.0,0.0,0.0,0.0,0.0,0.0,0.0,0.0,0.0,0.0,0.0,0.0,0.0,-4.1424,-4.1897,-4.0874,-4.0823,-4.1897,-4.1441,-4.1508,-4.21,-4.2236,-4.2219,-4.2151,-4.3555,-4.4209,-4.4242,-4.4976,-4.5314,-4.5382,-4.6244,-4.6599,-4.6667,-4.7428,-4.824,-4.9001,-4.9001,-4.9001,-4.9001,-4.9001,-4.9001,-4.9001,-4.9001,-4.9001,-4.9001,-4.9001,-5.1116,-5.3501,-5.3501,-5.3501,-5.3501,-5.3501,-5.3501,-5.3501,-5.3501,-5.3501,-5.3501,-5.3501,-5.3501,-5.3501,-5.3501,-5.3501,-5.3501,-5.3501,-5.3501,-5.3501,-5.3501,-5.3501,-5.3501,-5.3501,-5.3501,-5.3501,-5.3501,-5.3501,-5.3501,-5.3501,-5.3501,-5.3501,-5.3501,-5.3501,-5.3213,-5.2536,-5.2367,-5.1674,-5.0321,-4.956,-4.9137,-4.9001,-4.9001,-4.9001,-4.9001,-4.9001,-4.868,0.0,0.0,0.0,0.0,0.0,0.0,0.0,0.0,0.0,0.0,0.0,0.0,0.0,0.0,0.0,0.0,0.0,0.0,0.0,0.0,0.0,0.0,0.0,0.0,0.0,0.0,0.0,0.0,0.0,0.0,0.0,-4.0849,-4.095,-4.0417,-4.0815,-4.0832,-4.04,-4.0933,-4.1255,-4.1356,-4.1982,-4.1965,-4.139,-4.2219,-4.2591,-4.2642,-4.3403,-4.3696,-4.3815,-4.5263,-4.5855,-4.5923,-4.665,-4.7784,-4.9001,-4.9001,-4.9001,-4.9001,-4.9001,-4.9001,-4.9001,-4.9001,-4.9001,-4.9001,-4.9001,-5.1116,-5.3501,-5.3501,-5.3501,-5.3501,-5.3501,-5.3501,-5.3501,-5.3501,-5.3501,-5.3501,-5.3501,-5.3501,-5.3501,-5.3501,-5.3501,-5.3501,-5.3501,-5.3501,-5.3501,-5.3501,-5.3501,-5.3501,-5.3501,-5.3501,-5.3501,-5.3501,-5.3501,-5.3501,-5.3501,-5.3501,-5.3501,-5.3501,-5.3501,-5.345,-5.3348,-5.2672,-5.1911,-5.1082,-5.0321,-4.9644,-4.9001,-4.9001,-4.9001,-4.9001,-4.9001,-4.8951,0.0,0.0,0.0,0.0,0.0,0.0,0.0,0.0,0.0,0.0,0.0,0.0,0.0,0.0,0.0,0.0,0.0,0.0,0.0,0.0,0.0,0.0,0.0,0.0,0.0,0.0,0.0,0.0,0.0,0.0,-4.0096,-4.0417,-4.0451,-4.0113,-4.0417,-4.0434,-4.0096,-4.0434,-4.0578,-4.0578,-4.0899,-4.0908,-4.0578,-4.0925,-4.1728,-4.2929,-4.324,-4.3673,-4.4113,-4.479,-4.5077,-4.5145,-4.5889,-4.6583,-4.7259,-4.8088,-4.8663,-4.9001,-4.9001,-4.9001,-4.9001,-4.9001,-4.9001,-4.9001,-4.9001,-5.1116,-5.3162,-5.1454,-5.2198,-5.3501,-5.3501,-5.3501,-5.3501,-5.3501,-5.3501,-5.3501,-5.3501,-5.3501,-5.3501,-5.3501,-5.3501,-5.3501,-5.3501,-5.3501,-5.3501,-5.3501,-5.3501,-5.3501,-5.3501,-5.3501,-5.3501,-5.3501,-5.3501,-5.3501,-5.3501,-5.3501,-5.3501,-5.3501,-5.3501,-5.3501,-5.3501,-5.3162,-5.2621,-5.1843,-5.0676,-4.9729,-4.9001,-4.9001,-4.9001,-4.9001,-4.9001,-4.9001,0.0,0.0,0.0,0.0,0.0,0.0,0.0,0.0,0.0,0.0,0.0,0.0,0.0,0.0,0.0,0.0,0.0,0.0,0.0,0.0,0.0,0.0,0.0,0.0,0.0,0.0,0.0,0.0,0.0,0.0,-4.0096,-4.0096,-4.0096,-4.0096,-4.0096,-4.0096,-4.0096,-4.0096,-4.0096,-4.0096,-4.0096,-3.9978,-3.9808,-4.002,-4.1008,-4.2583,-4.2763,-4.3301,-4.4039,-4.4215,-4.4429,-4.4649,-4.5213,-4.5534,-4.5838,-4.6955,-4.7936,-4.8748,-4.8934,-4.9001,-4.9001,-4.9001,-4.9001,-4.9001,-4.9001,-5.0574,-5.2046,-5.0557,-5.1775,-5.3501,-5.3501,-5.3501,-5.3501,-5.3501,-5.3501,-5.3501,-5.3501,-5.3501,-5.3501,-5.3501,-5.3501,-5.3501,-5.3501,-5.3501,-5.3501,-5.3501,-5.3501,-5.3501,-5.3501,-5.3501,-5.3501,-5.3501,-5.3501,-5.3501,-5.3501,-5.3501,-5.3501,-5.3501,-5.3501,-5.3501,-5.3501,-5.3501,-5.3129,-5.2317,-5.1217,-5.0287,-4.956,-4.9373,-4.9272,-4.9272,-4.9086,-4.9001,0.0,0.0,0.0,0.0,0.0,0.0,0.0,0.0,0.0,0.0,0.0,0.0,0.0,0.0,0.0,0.0,0.0,0.0,0.0,0.0,0.0,0.0,0.0,0.0,0.0,0.0,0.0,0.0,0.0,0.0,-4.0096,-4.0096,-4.0096,-4.0096,-4.0096,-4.0096,-4.0096,-4.0096,-4.0096,-4.0096,-4.0096,-3.9705,-3.8989,-3.9756,-4.0158,-4.0326,-4.0999,-4.1728,-4.2455,-4.3183,-4.391,-4.4615,-4.4649,-4.5077,-4.572,-4.5788,-4.6735,-4.8041,-4.8765,-4.9001,-4.9001,-4.9001,-4.9001,-4.9001,-4.9001,-4.912,-4.9796,-5.252,-5.3382,-5.3501,-5.3501,-5.3501,-5.3501,-5.3501,-5.3501,-5.3501,-5.3501,-5.3501,-5.3501,-5.3501,-5.3501,-5.3501,-5.3501,-5.3501,-5.3501,-5.3501,-5.3501,-5.3501,-5.3501,-5.3501,-5.3501,-5.3501,-5.3501,-5.3501,-5.3501,-5.3501,-5.3501,-5.3501,-5.3501,-5.3501,-5.3501,-5.3501,-5.3129,-5.2317,-5.2232,-5.1826,-5.1067,-5.0388,-5.0033,-5.0016,-4.9323,-4.9001,0.0,0.0,0.0,0.0,0.0,0.0,0.0,0.0,0.0,0.0,0.0,0.0,0.0,0.0,0.0,0.0,0.0,0.0,0.0,0.0,0.0,0.0,0.0,0.0,0.0,0.0,0.0,0.0,0.0,0.0,-4.0045,-3.9191,-3.9106,-4.0079,-4.0096,-4.0096,-4.0096,-4.0096,-4.0096,-4.0096,-3.9584,-3.9166,-3.8881,-3.8707,-3.8881,-3.9331,-3.9607,-4.0966,-4.3031,-4.3274,-4.3876,-4.4615,-4.4615,-4.4767,-4.5043,-4.5534,-4.6329,-4.7378,-4.8578,-4.9001,-4.9001,-4.9001,-4.9001,-4.9001,-4.9001,-4.9661,-5.0642,-5.1725,-5.2756,-5.3501,-5.3501,-5.3501,-5.3501,-5.3501,-5.3501,-5.3501,-5.3501,-5.3501,-5.3501,-5.3501,-5.3501,-5.3501,-5.3501,-5.3501,-5.3501,-5.3501,-5.3501,-5.3501,-5.3501,-5.3501,-5.3501,-5.3501,-5.3501,-5.3501,-5.3501,-5.3501,-5.3501,-5.3501,-5.3501,-5.3501,-5.3501,-5.3501,-5.3365,-5.3078,-5.3078,-5.2452,-5.1185,-5.0947,-5.0557,-5.0084,-4.9813,-4.9458,0.0,0.0,0.0,0.0,0.0,0.0,0.0,0.0,0.0,0.0,0.0,0.0,0.0,0.0,0.0,0.0,0.0,0.0,0.0,0.0,0.0,0.0,0.0,0.0,0.0,0.0,0.0,0.0,0.0,0.0,-3.9706,-3.8802,-3.8717,-3.9706,-3.974,-3.9859,-4.0096,-4.0096,-3.9952,-3.9688,-3.9166,-3.8619,-3.8129,-3.8161,-3.8302,-3.8553,-3.8799,-4.0198,-4.2316,-4.2551,-4.3114,-4.3838,-4.4097,-4.435,-4.4666,-4.5145,-4.594,-4.6938,-4.7919,-4.8595,-4.9001,-4.9001,-4.9001,-4.9001,-4.9001,-4.9695,-5.0608,-5.1285,-5.2215,-5.3078,-5.3416,-5.3501,-5.3501,-5.3501,-5.3501,-5.3501,-5.3501,-5.3501,-5.3501,-5.3501,-5.3501,-5.3501,-5.3501,-5.3501,-5.3501,-5.3501,-5.3501,-5.3501,-5.3501,-5.3501,-5.3501,-5.3501,-5.3501,-5.3501,-5.3501,-5.3501,-5.3501,-5.3501,-5.3501,-5.3501,-5.3501,-5.3501,-5.3501,-5.3501,-5.3501,-5.301,-5.1978,-5.1708,-5.12,-5.0456,-5.0202,-4.9695,0.0,0.0,0.0,0.0,0.0,0.0,0.0,0.0,0.0,0.0,0.0,0.0,0.0,0.0,0.0,0.0,0.0,0.0,0.0,0.0,0.0,0.0,0.0,0.0,0.0,0.0,0.0,0.0,0.0,-3.9673,-3.8988,-3.8954,-3.8954,-3.8954,-3.8988,-3.9326,-4.0062,-4.0096,-3.9705,-3.8908,-3.8881,-3.8072,-3.663,-3.8129,-3.8414,-3.7806,-3.8525,-3.9265,-4.0051,-4.0838,-4.163,-4.2361,-4.311,-4.3893,-4.4615,-4.4615,-4.5546,-4.6786,-4.6786,-4.7767,-4.9001,-4.9001,-4.9001,-4.9001,-4.9001,-4.9018,-4.9441,-5.1386,-5.1978,-5.2215,-5.3247,-5.3501,-5.3501,-5.3501,-5.3501,-5.3501,-5.3501,-5.3501,-5.3501,-5.3501,-5.3501,-5.3501,-5.3501,-5.3501,-5.3501,-5.3501,-5.3501,-5.3501,-5.3501,-5.3501,-5.3501,-5.3501,-5.3501,-5.3501,-5.3501,-5.3501,-5.3501,-5.3501,-5.3501,-5.3501,-5.3501,-5.3501,-5.3501,-5.3501,-5.3501,-5.3501,-5.3501,-5.2723,-5.1944,-5.1168,-5.0422,-4.9678,-2.0653,0.0,0.0,0.0,0.0,0.0,0.0,0.0,0.0,0.0,0.0,0.0,0.0,0.0,0.0,0.0,0.0,0.0,0.0,0.0,0.0,0.0,0.0,0.0,0.0,0.0,0.0,0.0,-3.7483,-3.7246,-3.8159,-3.821,-3.821,-3.821,-3.8717,-3.9089,-3.9317,-3.9842,-3.9705,-3.8881,-3.8358,-3.7587,-3.6615,-3.6492,-3.6615,-3.6934,-3.7158,-3.7358,-3.7727,-3.9631,-4.1155,-4.2361,-4.311,-4.3893,-4.4615,-4.4615,-4.5546,-4.6786,-4.6786,-4.7767,-4.9001,-4.9001,-4.9001,-4.9001,-4.9001,-4.9373,-4.9949,-5.071,-5.1437,-5.2215,-5.3247,-5.3501,-5.3501,-5.3501,-5.3501,-5.3501,-5.3501,-5.3501,-5.3501,-5.3501,-5.3501,-5.3501,-5.3501,-5.3501,-5.3501,-5.3501,-5.3501,-5.3501,-5.3501,-5.3501,-5.3501,-5.3501,-5.3501,-5.3501,-5.3501,-5.3501,-5.3501,-5.3501,-5.3501,-5.3501,-5.3501,-5.3501,-5.3501,-5.3501,-5.3501,-5.3501,-5.3501,-5.3281,-5.2503,-5.1183,-4.9898,-4.9204,0.0,0.0,0.0,0.0,0.0,0.0,0.0,-2.1992,0.0,0.0,0.0,0.0,0.0,0.0,0.0,0.0,0.0,0.0,0.0,0.0,0.0,0.0,0.0,0.0,0.0,0.0,0.0,0.0,-3.7053,-3.6823,-3.7398,-3.7127,-3.7094,-3.7432,-3.7855,-3.8072,-3.8078,-3.879,-3.8586,-3.7524,-3.7385,-3.6889,-3.6149,-3.5991,-3.6196,-3.6615,-3.6615,-3.6615,-3.6707,-3.8075,-3.9525,-4.0978,-4.2043,-4.3155,-4.413,-4.4496,-4.5546,-4.6786,-4.6786,-4.7767,-4.9001,-4.9001,-4.9001,-4.9001,-4.9001,-4.9306,-4.9763,-5.0355,-5.1539,-5.2756,-5.3348,-5.3501,-5.3501,-5.3501,-5.3501,-5.3501,-5.3501,-5.3501,-5.3501,-5.3501,-5.3501,-5.3501,-5.3501,-5.3501,-5.3501,-5.3501,-5.3501,-5.3501,-5.3501,-5.3501,-5.3501,-5.3501,-5.3501,-5.3501,-5.3501,-5.3501,-5.3501,-5.3501,-5.3501,-5.3501,-5.3501,-5.3501,-5.3501,-5.3501,-5.3501,-5.3501,-5.3501,-5.3501,-5.2723,-5.1183,-4.9999,-4.9458,0.0,0.0,0.0,0.0,0.0,0.0,-2.069,-2.2446,-2.4186,0.0,0.0,0.0,0.0,0.0,0.0,0.0,0.0,0.0,0.0,0.0,0.0,0.0,0.0,0.0,0.0,0.0,-3.6721,-3.7466,-3.7601,-3.7364,-3.6711,-3.5994,-3.5943,-3.6643,-3.6675,-3.6671,-3.6694,-3.7281,-3.6904,-3.5608,-3.6197,-3.6151,-3.5537,-3.6165,-3.6477,-3.6477,-3.6477,-3.6477,-3.6477,-3.6477,-3.7432,-3.9058,-4.059,-4.2105,-4.3494,-4.4282,-4.5495,-4.6684,-4.6752,-4.7716,-4.89,-4.8984,-4.9001,-4.9001,-4.9001,-4.9001,-4.9187,-5.0101,-5.1877,-5.3501,-5.3501,-5.3501,-5.3501,-5.3501,-5.3501,-5.3501,-5.3501,-5.3501,-5.3501,-5.3501,-5.3501,-5.3501,-5.3501,-5.3501,-5.3501,-5.3501,-5.3501,-5.3501,-5.3501,-5.3501,-5.3501,-5.3501,-5.3501,-5.3501,-5.3501,-5.3501,-5.3501,-5.3501,-5.3501,-5.3501,-5.3501,-5.3501,-5.3501,-5.3501,-5.3501,-5.3501,-5.3501,-5.3416,-5.2672,-5.1319,-5.0473,-5.0084,0.0,0.0,0.0,0.0,0.0,0.0,-2.2818,-2.319,-2.3577,0.0,0.0,0.0,0.0,0.0,0.0,0.0,0.0,0.0,0.0,0.0,0.0,0.0,0.0,0.0,0.0,0.0,-3.437,-3.5098,-3.5723,-3.5988,-3.5836,-3.5684,-3.5667,-3.5842,-3.5892,-3.591,-3.5902,-3.6094,-3.5991,-3.5592,-3.5732,-3.5692,-3.5504,-3.5636,-3.5701,-3.5701,-3.5701,-3.5701,-3.5701,-3.5701,-3.6956,-3.9058,-4.059,-4.2105,-4.3494,-4.4282,-4.5145,-4.6007,-4.6583,-4.7378,-4.8193,-4.8815,-4.9001,-4.9001,-4.9001,-4.9001,-4.9035,-4.9238,-5.1336,-5.3501,-5.3501,-5.3501,-5.3501,-5.3501,-5.3501,-5.3501,-5.3501,-5.3501,-5.3501,-5.3501,-5.3501,-5.3501,-5.3501,-5.3501,-5.3501,-5.3501,-5.3501,-5.3501,-5.3501,-5.3501,-5.3501,-5.3501,-5.3501,-5.3501,-5.3501,-5.3501,-5.3501,-5.3501,-5.3501,-5.3501,-5.3501,-5.3501,-5.3501,-5.3501,-5.3501,-5.3501,-5.3501,-5.2858,-5.2384,-5.2046,-5.071,-5.0084,0.0,0.0,0.0,-2.4379,0.0,0.0,0.0,-2.368,-2.3848,0.0,0.0,0.0,0.0,0.0,0.0,0.0,0.0,0.0,0.0,0.0,0.0,0.0,0.0,0.0,0.0,0.0,-3.2763,-3.3863,-3.4303,-3.4484,-3.4484,-3.4516,-3.4541,-3.4541,-3.4611,-3.4496,-3.4152,-3.4476,-3.4628,-3.4577,-3.4912,-3.5212,-3.5504,-3.5504,-3.5504,-3.5504,-3.5504,-3.5504,-3.5504,-3.5504,-3.6379,-3.7938,-3.9858,-4.1529,-4.2997,-4.4164,-4.506,-4.5821,-4.6532,-4.7293,-4.8007,-4.8765,-4.9001,-4.9001,-4.9001,-4.9001,-4.9103,-4.961,-4.909,-4.9208,-5.2604,-5.2672,-5.2078,-5.323,-5.3501,-5.3501,-5.3501,-5.3501,-5.3501,-5.3501,-5.3501,-5.3501,-5.3501,-5.3501,-5.3501,-5.3501,-5.3501,-5.3501,-5.3501,-5.3501,-5.3501,-5.3501,-5.3501,-5.3501,-5.3501,-5.3501,-5.3501,-5.3501,-5.3501,-5.3501,-5.3501,-5.3501,-5.3501,-5.3501,-5.3501,-5.3501,-5.3501,-5.3095,-5.2689,-5.2283,-5.1539,-5.12,0.0,0.0,0.0,0.0,0.0,-2.3555,0.0,0.0,0.0,-2.3564,0.0,0.0,0.0,0.0,0.0,0.0,0.0,0.0,0.0,0.0,0.0,0.0,0.0,0.0,0.0,0.0,-3.1326,-3.2662,-3.3034,-3.3186,-3.3186,-3.3262,-3.3301,-3.3301,-3.3119,-3.2824,-3.2427,-3.2746,-3.3038,-3.332,-3.3978,-3.4651,-3.531,-3.5444,-3.5504,-3.5504,-3.5504,-3.5504,-3.5504,-3.5504,-3.5911,-3.68,-3.8915,-4.0616,-4.2015,-4.354,-4.4478,-4.5144,-4.6182,-4.6948,-4.7605,-4.8652,-4.9001,-4.9001,-4.9001,-4.8829,-4.8856,-4.9919,-4.7178,-4.5303,-5.1262,-5.1518,-5.0749,-5.2721,-5.3348,-5.3501,-5.3501,-5.3501,-5.3501,-5.3501,-5.3501,-5.3501,-5.3501,-5.3501,-5.3501,-5.3501,-5.3501,-5.3501,-5.3501,-5.3501,-5.3501,-5.3501,-5.3501,-5.3501,-5.3501,-5.3501,-5.3501,-5.3501,-5.3501,-5.3501,-5.3501,-5.3501,-5.3501,-5.3501,-5.3501,-5.3501,-5.3501,-5.3501,-5.3179,-5.2536,-5.2367,-5.23,0.0,0.0,0.0,0.0,-2.4572,0.0,0.0,0.0,-2.4514,-2.3589,0.0,0.0,0.0,0.0,0.0,0.0,0.0,0.0,0.0,0.0,0.0,0.0,0.0,0.0,0.0,0.0,0.0,-3.0393,-3.1681,-3.2429,-3.2429,-3.2557,-3.2611,-3.2611,-3.1532,-3.1192,-3.1714,-3.1144,-3.1446,-3.2632,-3.329,-3.3948,-3.4638,-3.5235,-3.5504,-3.5504,-3.5504,-3.5504,-3.5504,-3.5504,-3.5911,-3.6739,-3.8277,-3.9392,-4.0365,-4.1753,-4.2332,-4.2717,-4.4906,-4.57,-4.614,-4.8296,-4.9001,-4.9001,-4.9001,-4.8225,-4.7572,-4.8822,-4.7773,-4.6922,-4.9635,-5.058,-5.102,-5.19,-5.28,-5.3501,-5.3501,-5.3501,-5.3501,-5.3501,-5.3501,-5.3501,-5.3501,-5.3501,-5.3501,-5.3501,-5.3501,-5.3501,-5.3501,-5.3501,-5.3501,-5.3501,-5.3501,-5.3501,-5.3501,-5.3501,-5.3501,-5.3501,-5.3501,-5.3501,-5.3501,-5.3501,-5.3501,-5.3501,-5.3501,-5.3501,-5.3501,-5.3501,-5.345,-5.3348,-5.2638,-5.23,0.0,0.0,0.0,0.0,0.0,0.0,0.0,0.0,-2.4662,0.0,0.0,0.0,0.0,0.0,0.0,0.0,0.0,0.0,0.0,0.0,0.0,0.0,0.0,0.0,0.0,0.0,0.0,0.0,0.0,-2.9572,-2.9287,-3.0146,-3.0493,-3.0193,-3.0088,-3.0137,-3.0441,-3.0493,-3.0986,-3.1929,-3.2991,-3.3844,-3.4533,-3.519,-3.5504,-3.5504,-3.5504,-3.5504,-3.5504,-3.5504,-3.5668,-3.6066,-3.7056,-3.8447,-4.0028,-4.1037,-4.1677,-4.2318,-4.4684,-4.5509,-4.5882,-4.8231,-4.9001,-4.9001,-4.9001,-4.8112,-4.7354,-4.8497,-4.6836,-4.5488,-4.877,-4.909,-4.9138,-5.1372,-5.2241,-5.2749,-5.3382,-5.3501,-5.3501,-5.3501,-5.3501,-5.3501,-5.3501,-5.3501,-5.3501,-5.3501,-5.3501,-5.3501,-5.3501,-5.3501,-5.3501,-5.3501,-5.3501,-5.3501,-5.3501,-5.3501,-5.3501,-5.3501,-5.3501,-5.3501,-5.3501,-5.3501,-5.3501,-5.3501,-5.3501,-5.3501,-5.3501,-5.3501,-5.3501,-5.3501,-5.3162,-5.301,-2.5345,0.0,0.0,0.0,0.0,0.0,0.0,0.0,0.0,0.0,0.0,0.0,0.0,0.0,0.0,0.0,0.0,0.0,0.0,0.0,0.0,0.0,0.0,0.0,0.0,0.0,0.0,0.0,-2.7266,-2.7293,-2.6823,-2.8038,-2.8591,-2.824,-2.8758,-2.9232,-2.9606,-3.0193,-3.0851,-3.1525,-3.2871,-3.3739,-3.4233,-3.5115,-3.5504,-3.5504,-3.5504,-3.5504,-3.5504,-3.5504,-3.5504,-3.5564,-3.6237,-3.7602,-3.9283,-4.0022,-4.0877,-4.1995,-4.4317,-4.571,-4.6697,-4.8161,-4.8798,-4.894,-4.8688,-4.7803,-4.7066,-4.8097,-4.5924,-4.4243,-4.843,-4.8391,-4.8073,-5.1145,-5.2117,-5.254,-5.3348,-5.3501,-5.3501,-5.3501,-5.3501,-5.3501,-5.3501,-5.3501,-5.3501,-5.3501,-5.3501,-5.3501,-5.3501,-5.3501,-5.3501,-5.3501,-5.3501,-5.3501,-5.3501,-5.3501,-5.3501,-5.3501,-5.3501,-5.3501,-5.3501,-5.3501,-5.3501,-5.3501,-5.3501,-5.3501,-5.3501,-5.3501,-5.3501,-5.3501,-5.3501,-5.3501,0.0,0.0,0.0,-2.4807,0.0,0.0,0.0,0.0,-2.4373,0.0,0.0,0.0,0.0,0.0,-2.184,-2.0339,0.0,0.0,0.0,0.0,0.0,0.0,0.0,0.0,0.0,0.0,0.0,-2.4592,-2.5929,-2.6521,-2.6064,-2.6872,-2.7422,-2.7526,-2.7616,-2.8289,-2.9592,-3.0193,-3.0851,-3.1525,-3.2871,-3.3499,-3.3574,-3.4906,-3.5504,-3.5504,-3.5504,-3.5504,-3.5504,-3.5504,-3.5504,-3.5564,-3.6237,-3.69,-3.7548,-3.8242,-3.9451,-4.1081,-4.343,-4.6272,-4.8762,-4.7933,-4.8257,-4.8829,-4.7901,-4.6986,-4.6435,-4.7372,-4.5545,-4.4293,-4.8563,-4.9027,-4.8953,-5.1343,-5.2714,-5.3467,-5.3501,-5.3501,-5.3501,-5.3501,-5.3501,-5.3501,-5.3501,-5.3501,-5.3501,-5.3501,-5.3501,-5.3501,-5.3501,-5.3501,-5.3501,-5.3501,-5.3501,-5.3501,-5.3501,-5.3501,-5.3501,-5.3501,-5.3501,-5.3501,-5.3501,-5.3501,-5.3501,-5.3501,-5.3501,-5.3501,-5.3501,-5.3501,-5.3501,-5.3501,-5.3501,-5.3501,0.0,0.0,-2.6881,-2.6632,0.0,0.0,0.0,0.0,0.0,0.0,0.0,0.0,0.0,0.0,-2.2868,-2.233,-2.187,-2.1549,0.0,0.0,0.0,0.0,0.0,0.0,0.0,0.0,0.0,-2.3297,-2.4049,-2.4048,0.0,-2.5139,-2.6188,-2.5599,-2.7325,-2.8472,-2.8921,-2.9983,-3.0612,-3.0838,-3.2213,-3.308,-3.3529,-3.4427,-3.507,-3.5504,-3.5504,-3.5504,-3.5504,-3.5504,-3.5504,-3.5564,-3.6237,-3.6866,-3.7479,-3.8138,-3.9008,-4.0243,-4.3194,-4.6305,-4.894,-4.8625,-4.875,-4.894,-4.8608,-4.7868,-4.7189,-4.7523,-4.6454,-4.5751,-4.8136,-4.8542,-4.8932,-5.1343,-5.2189,-5.2627,-5.3348,-5.3501,-5.3501,-5.3501,-5.3501,-5.3501,-5.3501,-5.3501,-5.3501,-5.3501,-5.3501,-5.3501,-5.3501,-5.3501,-5.3501,-5.3501,-5.3501,-5.3501,-5.3501,-5.3501,-5.3501,-5.3501,-5.3501,-5.3501,-5.3501,-5.3501,-5.3501,-5.3501,-5.3501,-5.3501,-5.3501,-5.3501,-5.3501,-5.3501,-5.3501,-5.3501,-2.748,-2.76,0.0,-2.73,-2.6587,0.0,-2.6093,0.0,0.0,0.0,0.0,0.0,0.0,0.0,-2.3235,-2.3154,-2.2128,-2.1566,0.0,-2.2296,0.0,0.0,0.0,0.0,0.0,0.0,-2.2158,-2.2302,-2.2474,-2.2312,0.0,0.0,-2.5278,-2.4956,-2.7096,-2.8457,-2.8951,-2.9983,-3.0627,-3.0881,-3.1959,-3.2856,-3.3514,-3.4173,-3.4861,-3.5504,-3.5504,-3.5504,-3.5504,-3.5504,-3.5504,-3.5594,-3.6462,-3.706,-3.7479,-3.8138,-3.939,-4.1059,-4.3357,-4.6125,-4.8602,-4.8541,-4.8719,-4.894,-4.8608,-4.808,-4.7589,-4.7589,-4.6918,-4.667,-4.8795,-4.9082,-4.9457,-5.1893,-5.247,-5.2679,-5.3348,-5.3501,-5.3501,-5.3501,-5.3501,-5.3501,-5.3501,-5.3501,-5.3501,-5.3501,-5.3501,-5.3501,-5.3501,-5.3501,-5.3501,-5.3501,-5.3501,-5.3501,-5.3501,-5.3501,-5.3501,-5.3501,-5.3501,-5.3501,-5.3501,-5.3501,-5.3619,-5.389,-5.3636,-5.3636,-5.389,-5.3636,-5.3501,-5.3501,-5.3501,-5.3501]}]]